ftp/pub/palmer/observations_modified/2017/June/AR170628_BASE.txt
Download
Sample DateTime Unit Id WS Avg 2min WD Avg 2min WGS 10min WGD 10min Air Temp Rel Humidity Dew Point Pyranometer Quantum Air Pressure Snow Level Rainfall PW Current Visibility CBase 1 CBase 2 CBase 3 Vert Vis
2017/06/28 00:00:00 BASE 13.87 9 18.52 6 0.4 95 -0.3 0 0 961.8 NA 0.0000 -SN BR 7000 0 0 0 2590
2017/06/28 00:01:00 BASE 14.15 8 18.52 6 0.4 95 -0.3 0 0 961.8 NA 0.0000 -SN BR 7000 0 0 0 2790
2017/06/28 00:02:00 BASE 14.14 11 18.52 6 0.4 95 -0.4 0 0 961.8 NA 0.0000 -SN BR 7000 0 0 0 2720
2017/06/28 00:03:00 BASE 15.03 9 18.52 6 0.4 94 -0.4 0 0 961.7 NA 0.0000 -SN BR 6000 0 0 0 2620
2017/06/28 00:04:00 BASE 15.47 9 20.89 12 0.4 94 -0.5 0 0 961.7 NA 0.0000 -SN BR 5000 0 0 0 2260
2017/06/28 00:05:00 BASE 15.91 11 20.89 12 0.3 94 -0.5 0 0 961.7 NA 0.0000 -SN BR 4600 0 0 0 2300
2017/06/28 00:06:00 BASE 15.76 7 20.89 12 0.3 94 -0.5 0 0 961.7 NA 0.0000 -SN BR 4400 0 0 0 2330
2017/06/28 00:07:00 BASE 14.94 6 20.89 12 0.3 94 -0.5 0 0 961.8 NA 0.0000 -SN BR 4400 0 0 0 2200
2017/06/28 00:08:00 BASE 14.98 8 20.89 12 0.4 94 -0.4 0 0 961.7 NA 0.0000 -SN BR 5000 0 0 0 2100
2017/06/28 00:09:00 BASE 14.84 8 20.89 12 0.3 95 -0.4 0 0 961.7 NA 0.0000 -SN BR 5000 0 0 0 2170
2017/06/28 00:10:00 BASE 15.00 9 20.89 12 0.3 95 -0.4 0 0 961.7 NA 0.0000 -SN BR 4800 0 0 0 1970
2017/06/28 00:11:00 BASE 15.12 9 20.89 12 0.3 95 -0.4 0 0 961.7 NA 0.0000 -SN BR 4700 0 0 0 2000
2017/06/28 00:12:00 BASE 13.80 8 20.89 12 0.3 95 -0.4 0 0 961.8 NA 0.0000 -SN BR 5000 0 0 0 2000
2017/06/28 00:13:00 BASE 13.70 9 20.89 12 0.3 95 -0.4 0 0 961.7 NA 0.0000 -SN BR 4800 0 0 0 1940
2017/06/28 00:14:00 BASE 14.26 8 20.37 14 0.3 95 -0.4 0 0 961.7 NA 0.0000 -SN BR 5000 0 0 0 2030
2017/06/28 00:15:00 BASE 14.36 8 20.37 14 0.3 95 -0.4 0 0 961.7 NA 0.0000 -SN BR 5000 0 0 0 2100
2017/06/28 00:16:00 BASE 14.01 5 20.37 14 0.3 95 -0.4 0 0 961.7 NA 0.0000 -SN BR 4600 0 0 0 2170
2017/06/28 00:17:00 BASE 13.91 3 20.37 14 0.3 96 -0.4 0 0 961.6 NA 0.0000 -SN BR 5000 0 0 0 2720
2017/06/28 00:18:00 BASE 14.52 8 20.37 14 0.2 96 -0.3 0 0 961.6 NA 0.0000 -SN BR 6000 0 0 0 2790
2017/06/28 00:19:00 BASE 14.95 8 20.37 14 0.3 96 -0.4 0 0 961.6 NA 0.0000 -SN BR 5000 0 0 0 2760
2017/06/28 00:20:00 BASE 14.12 6 18.47 7 0.3 96 -0.4 0 0 961.7 NA 0.0000 -SN BR 7000 0 0 0 2330
2017/06/28 00:21:00 BASE 13.98 6 18.47 7 0.3 95 -0.4 0 0 961.6 NA 0.0000 -SN BR 7000 0 0 0 2200
2017/06/28 00:22:00 BASE 14.64 7 18.47 7 0.3 95 -0.4 0 0 961.6 NA 0.2540 -SN BR 4800 0 0 0 2130
2017/06/28 00:23:00 BASE 14.22 6 18.47 7 0.3 95 -0.4 0 0 961.6 NA 0.0000 -SN BR 3900 0 0 0 2000
2017/06/28 00:24:00 BASE 13.99 7 18.47 7 0.3 94 -0.5 0 0 961.6 NA 0.0000 -SN BR 4100 0 0 0 2170
2017/06/28 00:25:00 BASE 12.80 10 18.47 7 0.4 94 -0.5 0 0 961.7 NA 0.0000 -SN BR 4800 0 0 0 2430
2017/06/28 00:26:00 BASE 12.76 8 18.47 7 0.4 94 -0.5 0 0 961.6 NA 0.0000 -SN BR 4200 0 0 0 2560
2017/06/28 00:27:00 BASE 13.99 8 17.08 9 0.4 94 -0.5 0 0 961.5 NA 0.0000 -SN BR 3700 0 0 0 2400
2017/06/28 00:28:00 BASE 14.64 9 17.08 9 0.4 94 -0.5 0 0 961.5 NA 0.0000 -SN BR 3800 0 0 0 2000
2017/06/28 00:29:00 BASE 14.99 5 17.08 9 0.4 94 -0.5 0 0 961.5 NA 0.0000 -SN BR 3600 0 0 0 1770
2017/06/28 00:30:00 BASE 14.78 8 18.21 12 0.4 94 -0.5 0 0 961.5 NA 0.0000 -SN BR 3100 230 0 0 0
2017/06/28 00:31:00 BASE 14.63 13 18.21 12 0.4 94 -0.4 0 0 961.4 NA 0.0000 -SN BR 3000 0 0 0 1800
2017/06/28 00:32:00 BASE 13.99 13 18.21 12 0.4 95 -0.4 0 0 961.5 NA 0.0000 -SN BR 3200 0 0 0 1770
2017/06/28 00:33:00 BASE 13.75 13 18.21 12 0.4 95 -0.3 0 0 961.4 NA 0.0000 -SN BR 3300 0 0 0 1800
2017/06/28 00:34:00 BASE 14.63 10 18.21 12 0.4 95 -0.3 0 0 961.3 NA 0.0000 -SN BR 3800 0 0 0 1870
2017/06/28 00:35:00 BASE 15.20 8 18.21 12 0.4 95 -0.3 0 0 961.3 NA 0.0000 -SN BR 3800 300 0 0 0
2017/06/28 00:36:00 BASE 14.94 10 18.21 12 0.4 95 -0.3 0 0 961.3 NA 0.0000 -SN BR 3400 300 0 0 0
2017/06/28 00:37:00 BASE 13.87 10 18.21 12 0.4 95 -0.3 0 0 961.4 NA 0.0000 -SN BR 3700 300 0 0 0
2017/06/28 00:38:00 BASE 13.31 11 18.21 12 0.5 95 -0.3 0 0 961.4 NA 0.0000 -SN BR 3700 0 0 0 1840
2017/06/28 00:39:00 BASE 13.41 12 18.21 12 0.5 95 -0.2 0 0 961.4 NA 0.0000 -SN BR 3700 0 0 0 1770
2017/06/28 00:40:00 BASE 12.72 13 17.18 6 0.5 95 -0.2 0 0 961.4 NA 0.0000 -SN BR 4200 0 0 0 1800
2017/06/28 00:41:00 BASE 12.85 12 17.18 6 0.4 96 -0.2 0 0 961.3 NA 0.0000 -SN BR 4800 330 0 0 0
2017/06/28 00:42:00 BASE 12.96 10 17.18 6 0.4 96 -0.2 0 0 961.3 NA 0.0000 -SN BR 4300 330 0 0 0
2017/06/28 00:43:00 BASE 12.90 11 17.18 6 0.4 96 -0.2 0 0 961.2 NA 0.0000 -SN BR 3800 260 0 0 0
2017/06/28 00:44:00 BASE 13.78 11 17.18 6 0.4 96 -0.2 0 0 961.1 NA 0.0000 -SN BR 3200 0 0 0 1380
2017/06/28 00:45:00 BASE 14.59 11 16.62 6 0.4 96 -0.2 0 0 961.1 NA 0.0000 -SN BR 2700 0 0 0 1310
2017/06/28 00:46:00 BASE 14.04 11 16.62 6 0.4 96 -0.2 0 0 961.2 NA 0.0000 -SN BR 2600 0 0 0 1440
2017/06/28 00:47:00 BASE 13.22 10 16.62 6 0.4 96 -0.2 0 0 961.1 NA 0.0000 -SN BR 2800 230 0 0 0
2017/06/28 00:48:00 BASE 13.16 10 16.62 6 0.4 96 -0.1 0 0 961.2 NA 0.0000 -SN BR 3200 260 0 0 0
2017/06/28 00:49:00 BASE 14.40 13 17.54 10 0.4 96 -0.1 0 0 960.9 NA 0.0000 -SN BR 3600 0 0 0 1610
2017/06/28 00:50:00 BASE 15.47 12 17.54 10 0.4 96 -0.1 0 0 961.0 NA 0.0000 -SN BR 3600 0 0 0 1570
2017/06/28 00:51:00 BASE 15.25 9 17.54 10 0.4 97 -0.1 0 0 960.9 NA 0.0000 -SN BR 3300 0 0 0 1540
2017/06/28 00:52:00 BASE 15.54 9 17.85 9 0.4 97 -0.1 0 0 960.9 NA 0.0000 -SN BR 3400 260 0 0 0
2017/06/28 00:53:00 BASE 15.70 10 18.57 14 0.4 97 -0.1 0 0 960.9 NA 0.0000 -SN BR 3700 300 0 0 0
2017/06/28 00:54:00 BASE 15.19 9 18.57 14 0.4 97 -0.1 0 0 960.9 NA 0.0000 -SN BR 3800 0 0 0 1540
2017/06/28 00:55:00 BASE 14.30 6 18.57 14 0.4 96 -0.1 0 0 961.0 NA 0.0000 -SN BR 4600 300 0 0 0
2017/06/28 00:56:00 BASE 14.61 6 18.67 11 0.4 96 -0.2 0 0 960.9 NA 0.2540 -SN BR 5000 330 0 0 0
2017/06/28 00:57:00 BASE 14.47 10 18.67 11 0.4 96 -0.2 0 0 961.0 NA 0.0000 -SN BR 3900 260 0 0 0
2017/06/28 00:58:00 BASE 14.01 9 18.67 11 0.4 96 -0.2 0 0 961.0 NA 0.0000 -SN BR 3800 260 0 0 0
2017/06/28 00:59:00 BASE 13.98 5 18.67 11 0.4 96 -0.2 0 0 960.9 NA 0.0000 -SN BR 4000 300 0 0 0
2017/06/28 01:00:00 BASE 13.33 5 18.67 11 0.4 96 -0.1 0 0 961.0 NA 0.0000 -SN BR 4900 300 0 0 0
2017/06/28 01:01:00 BASE 13.67 9 18.67 11 0.5 96 -0.1 0 0 960.9 NA 0.0000 -SN BR 5000 0 0 0 1710
2017/06/28 01:02:00 BASE 14.33 11 18.67 11 0.5 96 -0.1 0 0 960.9 NA 0.0000 -SN BR 4300 0 0 0 1540
2017/06/28 01:03:00 BASE 14.21 9 18.67 11 0.5 96 -0.0 0 0 960.8 NA 0.0000 -SN BR 4300 300 0 0 0
2017/06/28 01:04:00 BASE 14.95 6 18.67 11 0.6 96 -0.0 0 0 960.7 NA 0.0000 -SN BR 4700 300 0 0 0
2017/06/28 01:05:00 BASE 14.84 9 18.67 11 0.6 96 0.0 0 0 960.8 NA 0.0000 -SN BR 3800 260 0 0 0
2017/06/28 01:06:00 BASE 14.41 12 17.08 1 0.6 96 -0.0 0 0 960.7 NA 0.0000 -SN BR 3200 260 0 0 0
2017/06/28 01:07:00 BASE 14.57 10 17.08 1 0.5 96 -0.0 0 0 960.7 NA 0.0000 -SN BR 3000 0 0 0 1540
2017/06/28 01:08:00 BASE 14.03 9 17.08 1 0.5 96 -0.0 0 0 960.8 NA 0.0000 -SN BR 3200 230 0 0 0
2017/06/28 01:09:00 BASE 14.11 9 17.08 1 0.5 96 0.0 0 0 960.7 NA 0.0000 -SN BR 3300 200 0 0 0
2017/06/28 01:10:00 BASE 14.52 9 17.08 1 0.5 97 0.0 0 0 960.5 NA 0.0000 -SN BR 3200 200 0 0 0
2017/06/28 01:11:00 BASE 14.32 9 17.70 10 0.5 97 0.0 0 0 960.6 NA 0.0000 -SN BR 3200 200 0 0 0
2017/06/28 01:12:00 BASE 14.15 9 17.70 10 0.5 97 0.0 0 0 960.6 NA 0.0000 -SN BR 2800 230 0 0 0
2017/06/28 01:13:00 BASE 14.37 11 17.70 10 0.5 97 0.0 0 0 960.5 NA 0.0000 -SN BR 2800 230 0 0 0
2017/06/28 01:14:00 BASE 14.76 10 17.70 10 0.4 97 0.0 0 0 960.4 NA 0.0000 -SN BR 3000 260 0 0 0
2017/06/28 01:15:00 BASE 15.60 7 18.93 17 0.4 97 0.0 0 0 960.4 NA 0.0000 -SN BR 3200 300 0 0 0
2017/06/28 01:16:00 BASE 15.80 5 18.93 17 0.5 97 0.0 0 0 960.4 NA 0.0000 -SN BR 3400 300 0 0 0
2017/06/28 01:17:00 BASE 15.11 5 18.93 17 0.5 97 0.1 0 0 960.4 NA 0.0000 -SN BR 3600 300 0 0 0
2017/06/28 01:18:00 BASE 14.85 9 18.93 17 0.5 97 0.1 0 0 960.4 NA 0.0000 -SN BR 3900 0 0 0 1900
2017/06/28 01:19:00 BASE 14.85 9 18.93 17 0.6 97 0.1 0 0 960.3 NA 0.0000 -SN BR 4300 0 0 0 2030
2017/06/28 01:20:00 BASE 13.95 9 18.93 17 0.6 97 0.1 0 0 960.4 NA 0.0000 -SN BR 4500 330 0 0 0
2017/06/28 01:21:00 BASE 14.25 12 18.93 17 0.6 97 0.1 0 0 960.2 NA 0.0000 -SN BR 4100 0 0 0 1840
2017/06/28 01:22:00 BASE 15.33 9 18.93 17 0.5 97 0.1 0 0 960.2 NA 0.0000 -SN BR 3500 0 0 0 1800
2017/06/28 01:23:00 BASE 14.59 8 18.93 17 0.5 97 0.1 0 0 960.2 NA 0.0000 -SN BR 3500 260 0 0 0
2017/06/28 01:24:00 BASE 14.14 8 18.93 17 0.5 97 0.1 0 0 960.1 NA 0.2540 -SN BR 3300 230 0 0 0
2017/06/28 01:25:00 BASE 14.57 9 17.95 12 0.5 97 0.1 0 0 960.1 NA 0.0000 -SN BR 3000 200 0 0 0
2017/06/28 01:26:00 BASE 15.19 9 17.95 12 0.5 97 0.1 0 0 959.9 NA 0.0000 -SN BR 2900 0 0 0 2070
2017/06/28 01:27:00 BASE 15.28 7 17.95 12 0.5 97 0.1 0 0 960.0 NA 0.0000 -SN BR 3200 230 0 0 0
2017/06/28 01:28:00 BASE 14.75 8 17.95 12 0.5 97 0.1 0 0 960.0 NA 0.0000 -SN BR 3700 260 0 0 0
2017/06/28 01:29:00 BASE 14.76 9 17.95 12 0.5 97 0.1 0 0 959.9 NA 0.0000 -SN BR 3800 260 0 0 0
2017/06/28 01:30:00 BASE 15.32 5 18.21 7 0.5 97 0.1 0 0 959.8 NA 0.0000 -SN BR 3600 0 0 0 2620
2017/06/28 01:31:00 BASE 14.82 5 18.21 7 0.5 97 0.1 0 0 959.9 NA 0.0000 -SN BR 4000 0 0 0 2590
2017/06/28 01:32:00 BASE 14.20 8 18.21 7 0.5 97 0.1 0 0 959.9 NA 0.0000 -SN BR 4300 0 0 0 2720
2017/06/28 01:33:00 BASE 14.46 7 18.21 7 0.5 97 0.1 0 0 960.0 NA 0.0000 -SN BR 4700 0 0 0 3510
2017/06/28 01:34:00 BASE 15.43 8 18.62 5 0.5 97 0.1 0 0 959.8 NA 0.0000 -SN BR 5000 0 0 0 3610
2017/06/28 01:35:00 BASE 16.46 8 18.83 5 0.5 97 0.1 0 0 959.7 NA 0.2540 -SN BR 3800 0 0 0 3510
2017/06/28 01:36:00 BASE 16.40 8 18.83 5 0.5 97 0.1 0 0 959.7 NA 0.0000 -SN BR 3600 790 0 0 0
2017/06/28 01:37:00 BASE 15.73 8 18.83 5 0.5 97 0.1 0 0 959.8 NA 0.0000 -SN BR 3500 300 0 0 0
2017/06/28 01:38:00 BASE 15.90 6 19.24 15 0.5 97 0.1 0 0 959.7 NA 0.0000 -SN BR 3500 0 0 0 2030
2017/06/28 01:39:00 BASE 16.15 6 19.24 15 0.5 97 0.1 0 0 959.8 NA 0.0000 -SN BR 3100 300 0 0 0
2017/06/28 01:40:00 BASE 16.07 11 19.24 15 0.5 97 0.1 0 0 959.6 NA 0.0000 -SN BR 3000 300 0 0 0
2017/06/28 01:41:00 BASE 16.21 13 19.50 11 0.5 97 0.1 0 0 959.6 NA 0.0000 -SN BR 3000 300 0 0 0
2017/06/28 01:42:00 BASE 15.86 12 19.50 11 0.5 97 0.1 0 0 959.7 NA 0.0000 -SN BR 3100 260 0 0 0
2017/06/28 01:43:00 BASE 15.82 10 19.50 11 0.5 97 0.1 0 0 959.7 NA 0.0000 -SN BR 3200 300 0 0 0
2017/06/28 01:44:00 BASE 15.73 7 19.50 11 0.5 97 0.1 0 0 959.6 NA 0.0000 -SN BR 3100 300 0 0 0
2017/06/28 01:45:00 BASE 16.14 9 19.50 11 0.5 97 0.1 0 0 959.6 NA 0.0000 -SN BR 3100 0 0 0 1840
2017/06/28 01:46:00 BASE 16.42 11 19.50 11 0.5 97 0.1 0 0 959.6 NA 0.0000 -SN BR 3600 0 0 0 2000
2017/06/28 01:47:00 BASE 15.71 9 19.50 11 0.4 98 0.1 0 0 959.7 NA 0.2540 -SN BR 3600 0 0 0 2130
2017/06/28 01:48:00 BASE 14.72 5 19.50 11 0.4 98 0.1 0 0 959.8 NA 0.0000 -SN BR 4000 0 0 0 2170
2017/06/28 01:49:00 BASE 14.89 5 19.50 11 0.4 98 0.1 0 0 959.7 NA 0.0000 -SN BR 4900 0 0 0 2330
2017/06/28 01:50:00 BASE 15.84 8 19.50 11 0.4 98 0.1 0 0 959.6 NA 0.0000 -SN BR 5000 0 0 0 2460
2017/06/28 01:51:00 BASE 15.71 10 19.45 7 0.4 98 0.1 0 0 959.6 NA 0.0000 -SN BR 4900 0 0 0 2720
2017/06/28 01:52:00 BASE 15.90 12 19.45 7 0.4 98 0.1 0 0 959.6 NA 0.0000 -SN BR 4100 0 0 0 2530
2017/06/28 01:53:00 BASE 16.44 11 19.45 7 0.4 98 0.1 0 0 959.6 NA 0.0000 -SN BR 4200 0 0 0 2530
2017/06/28 01:54:00 BASE 15.98 7 19.45 7 0.4 98 0.1 0 0 959.6 NA 0.0000 -SN BR 4200 0 0 0 2170
2017/06/28 01:55:00 BASE 16.09 7 19.45 7 0.4 98 0.1 0 0 959.5 NA 0.0000 -SN BR 4100 0 0 0 2260
2017/06/28 01:56:00 BASE 16.12 9 19.45 7 0.4 98 0.2 0 0 959.5 NA 0.0000 -SN BR 3400 0 0 0 2070
2017/06/28 01:57:00 BASE 15.77 10 19.45 7 0.4 99 0.2 0 0 959.4 NA 0.0000 -SN BR 3200 0 0 0 2360
2017/06/28 01:58:00 BASE 16.66 10 19.45 7 0.4 99 0.2 0 0 959.4 NA 0.2540 -SN BR 3300 0 0 0 2300
2017/06/28 01:59:00 BASE 16.80 6 19.45 7 0.4 99 0.3 0 0 959.5 NA 0.0000 -SN BR 3300 300 0 0 0
2017/06/28 02:00:00 BASE 16.46 6 18.98 11 0.4 99 0.3 0 0 959.4 NA 0.0000 -SN BR 3300 0 0 0 1800
2017/06/28 02:01:00 BASE 16.39 9 18.98 11 0.4 99 0.3 0 0 959.5 NA 0.0000 -SN BR 3300 0 0 0 1970
2017/06/28 02:02:00 BASE 15.30 8 18.98 11 0.4 99 0.3 0 0 959.5 NA 0.0000 -SN BR 3400 0 0 0 2170
2017/06/28 02:03:00 BASE 15.01 8 18.98 11 0.4 99 0.3 0 0 959.5 NA 0.0000 -SN BR 3600 0 0 0 2100
2017/06/28 02:04:00 BASE 15.25 9 18.98 11 0.4 99 0.3 0 0 959.4 NA 0.0000 -SN BR 3600 360 0 0 0
2017/06/28 02:05:00 BASE 15.79 8 18.98 11 0.4 99 0.3 0 0 959.3 NA 0.0000 -SN BR 3400 330 0 0 0
2017/06/28 02:06:00 BASE 16.35 7 18.98 11 0.4 99 0.3 0 0 959.3 NA 0.0000 -SN BR 3400 360 0 0 0
2017/06/28 02:07:00 BASE 15.97 8 18.98 11 0.4 99 0.3 0 0 959.3 NA 0.0000 -SN BR 3300 390 0 0 0
2017/06/28 02:08:00 BASE 15.83 11 18.83 9 0.4 99 0.3 0 0 959.3 NA 0.0000 -SN BR 3100 360 0 0 0
2017/06/28 02:09:00 BASE 16.19 10 18.83 9 0.4 99 0.3 0 0 959.3 NA 0.0000 -SN BR 3200 0 0 0 2070
2017/06/28 02:10:00 BASE 15.83 9 18.83 9 0.4 99 0.3 0 0 959.4 NA 0.2540 -SN BR 3300 0 0 0 2130
2017/06/28 02:11:00 BASE 15.38 8 18.83 9 0.4 99 0.3 0 0 959.4 NA 0.0000 -SN BR 3800 0 0 0 1970
2017/06/28 02:12:00 BASE 15.75 7 18.83 9 0.4 99 0.3 0 0 959.3 NA 0.0000 -SN BR 3700 330 0 0 0
2017/06/28 02:13:00 BASE 15.84 8 18.83 9 0.4 100 0.3 0 0 959.3 NA 0.0000 -SN BR 3600 330 0 0 0
2017/06/28 02:14:00 BASE 16.00 8 18.83 9 0.4 100 0.4 0 0 959.2 NA 0.0000 -SN BR 3600 0 0 0 2230
2017/06/28 02:15:00 BASE 15.90 7 18.52 12 0.4 100 0.4 0 0 959.2 NA 0.0000 -SN BR 3400 0 0 0 2330
2017/06/28 02:16:00 BASE 14.84 6 18.52 12 0.4 100 0.4 0 0 959.3 NA 0.0000 -SN BR 3400 330 0 0 0
2017/06/28 02:17:00 BASE 15.15 9 18.52 12 0.4 100 0.4 0 0 959.1 NA 0.0000 -SN BR 3700 300 0 0 0
2017/06/28 02:18:00 BASE 15.97 6 18.52 12 0.4 100 0.4 0 0 959.1 NA 0.0000 -SN BR 3700 0 0 0 2360
2017/06/28 02:19:00 BASE 15.50 7 18.52 12 0.5 100 0.5 0 0 959.1 NA 0.0000 -SN BR 3600 390 0 0 0
2017/06/28 02:20:00 BASE 15.40 9 18.52 12 0.5 100 0.5 0 0 959.1 NA 0.0000 -SN BR 3700 0 0 0 2530
2017/06/28 02:21:00 BASE 15.04 10 18.52 12 0.5 100 0.5 0 0 959.1 NA 0.0000 -SN BR 3500 330 0 0 0
2017/06/28 02:22:00 BASE 14.92 11 18.52 12 0.5 100 0.5 0 0 959.1 NA 0.0000 -SN BR 3300 330 0 0 0
2017/06/28 02:23:00 BASE 14.79 10 18.52 12 0.5 100 0.5 0 0 959.1 NA 0.2540 -SN BR 3300 330 0 0 0
2017/06/28 02:24:00 BASE 14.37 10 18.52 12 0.5 100 0.5 0 0 959.1 NA 0.0000 -SN BR 3400 330 0 0 0
2017/06/28 02:25:00 BASE 14.77 10 17.75 11 0.5 100 0.5 0 0 959.0 NA 0.0000 -SN BR 3400 330 0 0 0
2017/06/28 02:26:00 BASE 15.03 10 17.75 11 0.5 100 0.5 0 0 959.0 NA 0.0000 -SN BR 3300 330 0 0 0
2017/06/28 02:27:00 BASE 15.07 10 17.34 12 0.5 100 0.5 0 0 959.0 NA 0.0000 -SN BR 3500 360 0 0 0
2017/06/28 02:28:00 BASE 15.45 9 17.44 10 0.5 100 0.5 0 0 959.0 NA 0.0000 -SN BR 3500 1020 0 0 0
2017/06/28 02:29:00 BASE 15.40 8 17.44 10 0.5 100 0.5 0 0 959.0 NA 0.0000 -SN BR 3300 330 0 0 0
2017/06/28 02:30:00 BASE 14.89 7 17.44 10 0.5 100 0.5 0 0 959.0 NA 0.0000 -SN BR 3800 390 0 0 0
2017/06/28 02:31:00 BASE 14.71 11 17.44 10 0.5 100 0.5 0 0 959.0 NA 0.0000 -SN BR 4000 390 0 0 0
2017/06/28 02:32:00 BASE 15.01 11 17.44 10 0.5 100 0.5 0 0 959.0 NA 0.0000 -SN BR 3300 330 0 0 0
2017/06/28 02:33:00 BASE 15.38 12 17.44 10 0.5 100 0.5 0 0 958.9 NA 0.0000 -SN BR 2900 330 0 0 0
2017/06/28 02:34:00 BASE 14.71 12 17.44 10 0.6 100 0.6 0 0 959.0 NA 0.0000 -SN BR 3200 360 0 0 0
2017/06/28 02:35:00 BASE 13.78 6 17.44 10 0.6 100 0.6 0 0 959.1 NA 0.0000 -SN BR 3400 360 0 0 0
2017/06/28 02:36:00 BASE 14.10 11 17.44 10 0.6 100 0.6 0 0 959.0 NA 0.0000 -SN BR 3300 0 0 0 2400
2017/06/28 02:37:00 BASE 14.41 14 17.44 10 0.6 100 0.6 0 0 959.0 NA 0.0000 -SN BR 3800 0 0 0 2030
2017/06/28 02:38:00 BASE 14.50 10 17.18 17 0.6 100 0.6 0 0 959.0 NA 0.0000 -SN BR 3600 0 0 0 2000
2017/06/28 02:39:00 BASE 14.46 11 17.18 17 0.6 100 0.6 0 0 959.0 NA 0.2540 -SN BR 3400 0 0 0 2030
2017/06/28 02:40:00 BASE 14.18 9 17.18 17 0.6 100 0.6 0 0 959.0 NA 0.0000 -SN BR 3400 390 0 0 0
2017/06/28 02:41:00 BASE 14.26 10 17.18 17 0.5 100 0.5 0 0 958.9 NA 0.0000 -SN BR 3400 0 0 0 2030
2017/06/28 02:42:00 BASE 14.08 10 17.18 17 0.5 100 0.5 0 0 958.9 NA 0.0000 -SN BR 3200 0 0 0 1940
2017/06/28 02:43:00 BASE 14.05 8 16.41 8 0.5 100 0.5 0 0 958.9 NA 0.0000 -SN BR 3100 0 0 0 1740
2017/06/28 02:44:06 BASE 13.68 7 16.41 8 0.5 100 0.5 0 0 958.9 NA 0.0000 -SN BR 3100 0 0 0 1710
2017/06/28 02:45:00 BASE 13.32 8 16.26 111 0.5 100 0.5 0 0 958.8 NA 0.0000 -SN BR 3300 0 0 0 1740
2017/06/28 02:46:00 BASE 13.90 9 16.67 10 0.5 100 0.5 0 0 958.8 NA 0.0000 -SN BR 3600 0 0 0 1900
2017/06/28 02:47:00 BASE 14.10 9 16.67 10 0.5 100 0.5 0 0 958.8 NA 0.0000 -SN BR 4500 0 0 0 2170
2017/06/28 02:48:00 BASE 13.92 10 16.67 10 0.5 100 0.5 0 0 958.7 NA 0.0000 -SN BR 4800 360 0 0 0
2017/06/28 02:49:00 BASE 14.11 10 16.67 10 0.5 100 0.5 0 0 958.7 NA 0.0000 -SN BR 3900 0 0 0 1970
2017/06/28 02:50:00 BASE 14.93 7 17.44 1 0.5 100 0.5 0 0 958.5 NA 0.0000 -SN BR 3200 0 0 0 2330
2017/06/28 02:51:00 BASE 15.57 6 17.85 5 0.6 100 0.6 0 0 958.5 NA 0.0000 -SN BR 3200 0 0 0 2850
2017/06/28 02:52:00 BASE 15.16 9 17.85 5 0.6 100 0.6 0 0 958.6 NA 0.0000 -SN BR 3500 0 0 0 3280
2017/06/28 02:53:00 BASE 14.40 8 17.85 5 0.6 100 0.6 0 0 958.6 NA 0.2540 -SN BR 3600 0 0 0 3020
2017/06/28 02:54:00 BASE 14.45 7 17.85 5 0.6 100 0.6 0 0 958.6 NA 0.0000 -SN BR 4200 0 0 0 2920
2017/06/28 02:55:00 BASE 15.08 8 17.85 5 0.6 100 0.6 0 0 958.5 NA 0.0000 -SN BR 3800 0 0 0 2820
2017/06/28 02:56:00 BASE 14.97 7 17.85 5 0.6 100 0.6 0 0 958.6 NA 0.0000 -SN BR 3600 0 0 0 2820
2017/06/28 02:57:00 BASE 14.34 7 17.85 5 0.6 100 0.6 0 0 958.7 NA 0.0000 -SN BR 3900 0 0 0 2660
2017/06/28 02:58:00 BASE 15.15 9 17.85 5 0.6 100 0.6 0 0 958.5 NA 0.0000 -SN BR 3900 0 0 0 2850
2017/06/28 02:59:00 BASE 15.92 10 17.85 5 0.6 100 0.6 0 0 958.6 NA 0.0000 -SN BR 3400 0 0 0 2950
2017/06/28 03:00:00 BASE 16.00 10 18.16 10 0.6 100 0.6 0 0 958.4 NA 0.0000 -SN BR 3200 0 0 0 3120
2017/06/28 03:01:00 BASE 15.48 8 18.16 10 0.6 100 0.6 0 0 958.7 NA 0.0000 -SN BR 3500 360 0 0 0
2017/06/28 03:02:00 BASE 14.94 7 18.16 10 0.6 100 0.6 0 0 958.6 NA 0.0000 -SN BR 3600 390 0 0 0
2017/06/28 03:03:00 BASE 15.60 9 18.16 10 0.6 100 0.6 0 0 958.5 NA 0.0000 -SN BR 3400 360 0 0 0
2017/06/28 03:04:00 BASE 16.13 9 18.16 10 0.5 100 0.5 0 0 958.5 NA 0.0000 -SN BR 3000 360 0 0 0
2017/06/28 03:05:00 BASE 15.90 6 18.16 10 0.5 100 0.5 0 0 958.7 NA 0.0000 -SN BR 2800 360 0 0 0
2017/06/28 03:06:00 BASE 14.87 8 18.16 10 0.5 100 0.5 0 0 958.6 NA 0.0000 -SN BR 3200 360 0 0 0
2017/06/28 03:07:00 BASE 14.64 7 18.16 10 0.6 100 0.6 0 0 958.6 NA 0.2540 -SN BR 3300 360 0 0 0
2017/06/28 03:08:00 BASE 15.20 5 18.16 10 0.6 100 0.6 0 0 958.7 NA 0.0000 -SN BR 3100 330 0 0 0
2017/06/28 03:09:00 BASE 15.15 6 18.16 10 0.6 100 0.6 0 0 958.6 NA 0.0000 -SN BR 3200 360 0 0 0
2017/06/28 03:10:00 BASE 15.51 6 18.67 4 0.6 100 0.6 0 0 958.5 NA 0.0000 -SN BR 3300 330 0 0 0
2017/06/28 03:11:00 BASE 15.04 5 18.67 4 0.6 100 0.6 0 0 958.6 NA 0.0000 -SN BR 3300 330 0 0 0
2017/06/28 03:12:00 BASE 13.99 6 18.67 4 0.6 100 0.6 0 0 958.7 NA 0.0000 -SN BR 3900 360 0 0 0
2017/06/28 03:13:00 BASE 13.87 6 18.67 4 0.6 100 0.6 0 0 958.7 NA 0.0000 -SN BR 4700 430 0 0 0
2017/06/28 03:14:00 BASE 13.81 5 18.67 4 0.6 100 0.6 0 0 958.6 NA 0.0000 -SN BR 5000 390 0 0 0
2017/06/28 03:15:00 BASE 14.16 6 18.67 4 0.6 100 0.6 0 0 958.5 NA 0.0000 -SN BR 4800 330 0 0 0
2017/06/28 03:16:00 BASE 14.20 6 18.67 4 0.6 100 0.6 0 0 958.5 NA 0.0000 -SN BR 3400 300 0 0 0
2017/06/28 03:17:00 BASE 13.86 9 18.67 4 0.6 100 0.6 0 0 958.6 NA 0.0000 -SN BR 3700 330 0 0 0
2017/06/28 03:18:00 BASE 13.60 9 18.67 4 0.6 100 0.6 0 0 958.6 NA 0.2540 -SN BR 3800 330 0 0 0
2017/06/28 03:19:00 BASE 13.48 9 18.67 4 0.6 100 0.6 0 0 958.6 NA 0.0000 -SN BR 4300 0 0 0 2130
2017/06/28 03:20:00 BASE 13.86 9 16.62 1 0.6 100 0.6 0 0 958.4 NA 0.0000 -SN BR 4800 0 0 0 2170
2017/06/28 03:21:00 BASE 14.27 9 16.51 8 0.6 100 0.6 0 0 958.4 NA 0.0000 -SN BR 3300 330 0 0 0
2017/06/28 03:22:00 BASE 14.20 8 16.51 8 0.6 100 0.6 0 0 958.4 NA 0.0000 -SN BR 3200 300 0 0 0
2017/06/28 03:23:00 BASE 14.45 9 16.51 8 0.6 100 0.6 0 0 958.3 NA 0.0000 -SN BR 3400 300 0 0 0
2017/06/28 03:24:00 BASE 14.51 9 16.51 8 0.6 100 0.6 0 0 958.4 NA 0.0000 -SN BR 3200 330 0 0 0
2017/06/28 03:25:00 BASE 13.82 6 16.51 8 0.6 100 0.6 0 0 958.4 NA 0.0000 -SN BR 3600 330 0 0 0
2017/06/28 03:26:00 BASE 13.86 4 16.31 6 0.6 100 0.6 0 0 958.2 NA 0.0000 -SN BR 3600 300 0 0 0
2017/06/28 03:27:00 BASE 14.31 6 16.31 6 0.6 100 0.6 0 0 958.3 NA 0.0000 -SN BR 3400 330 0 0 0
2017/06/28 03:28:00 BASE 14.17 7 16.31 6 0.6 100 0.6 0 0 958.3 NA 0.0000 -SN BR 3700 0 0 0 2360
2017/06/28 03:29:00 BASE 14.25 7 16.41 2 0.6 100 0.6 0 0 958.2 NA 0.0000 -SN BR 4000 330 0 0 0
2017/06/28 03:30:00 BASE 13.87 5 16.41 2 0.6 100 0.6 0 0 958.3 NA 0.0000 -SN BR 3500 300 0 0 0
2017/06/28 03:31:00 BASE 13.28 7 16.41 2 0.6 100 0.6 0 0 958.3 NA 0.0000 -SN BR 3400 300 0 0 0
2017/06/28 03:32:00 BASE 13.48 8 16.41 2 0.5 100 0.5 0 0 958.2 NA 0.2540 -SN BR 3300 260 0 0 0
2017/06/28 03:33:00 BASE 13.46 5 16.41 2 0.5 100 0.5 0 0 958.2 NA 0.0000 -SN BR 3300 260 0 0 0
2017/06/28 03:34:00 BASE 13.79 5 16.41 2 0.4 100 0.4 0 0 958.2 NA 0.0000 -SN BR 3000 260 0 0 0
2017/06/28 03:35:00 BASE 14.00 5 16.41 2 0.4 100 0.4 0 0 958.2 NA 0.0000 -SN BR 2100 260 0 0 0
2017/06/28 03:36:00 BASE 13.99 5 16.41 2 0.4 100 0.4 0 0 958.2 NA 0.0000 -SN BR 2100 330 0 0 0
2017/06/28 03:37:00 BASE 14.34 6 16.57 9 0.4 100 0.4 0 0 958.1 NA 0.0000 -SN BR 2400 260 0 0 0
2017/06/28 03:38:00 BASE 14.19 6 16.57 9 0.4 100 0.4 0 0 958.1 NA 0.0000 -SN BR 2500 300 0 0 0
2017/06/28 03:39:00 BASE 14.34 3 16.57 9 0.4 100 0.4 0 0 958.1 NA 0.0000 -SN BR 3000 300 0 0 0
2017/06/28 03:40:00 BASE 14.06 4 16.57 9 0.4 100 0.4 0 0 958.2 NA 0.2540 -SN BR 2800 300 0 0 0
2017/06/28 03:41:00 BASE 13.91 8 16.57 9 0.4 100 0.4 0 0 958.1 NA 0.0000 -SN BR 2900 360 0 0 0
2017/06/28 03:42:00 BASE 14.54 8 16.57 9 0.4 100 0.4 0 0 958.0 NA 0.0000 -SN BR 3000 330 0 0 0
2017/06/28 03:43:00 BASE 14.20 7 16.57 9 0.5 100 0.5 0 0 958.1 NA 0.0000 -SN BR 3000 300 0 0 0
2017/06/28 03:44:00 BASE 14.12 6 16.72 7 0.5 100 0.5 0 0 958.1 NA 0.0000 -SN BR 2700 300 0 0 0
2017/06/28 03:45:00 BASE 14.19 6 16.72 7 0.5 100 0.5 0 0 958.0 NA 0.0000 -SN BR 2500 330 0 0 0
2017/06/28 03:46:00 BASE 14.15 0 16.72 7 0.5 100 0.5 0 0 958.1 NA 0.0000 -SN BR 2800 300 0 0 0
2017/06/28 03:47:00 BASE 14.28 359 16.72 7 0.5 100 0.5 0 0 958.1 NA 0.0000 -SN BR 3400 300 0 0 0
2017/06/28 03:48:00 BASE 13.96 4 16.72 7 0.5 100 0.5 0 0 958.1 NA 0.2540 -SN BR 3400 330 0 0 0
2017/06/28 03:49:00 BASE 14.16 5 16.72 7 0.5 100 0.5 0 0 958.0 NA 0.0000 -SN BR 3200 330 0 0 0
2017/06/28 03:50:00 BASE 15.10 5 16.72 7 0.5 100 0.5 0 0 957.8 NA 0.0000 -SN BR 3300 300 0 0 0
2017/06/28 03:51:00 BASE 15.08 6 16.72 7 0.5 100 0.5 0 0 957.9 NA 0.0000 -SN BR 3000 300 0 0 0
2017/06/28 03:52:00 BASE 14.34 9 16.72 7 0.5 100 0.5 0 0 957.9 NA 0.0000 -SN BR 2800 360 0 0 0
2017/06/28 03:53:00 BASE 14.62 11 16.72 7 0.5 100 0.5 0 0 957.8 NA 0.0000 -SN BR 3400 330 0 0 0
2017/06/28 03:54:00 BASE 14.94 8 16.51 10 0.5 100 0.5 0 0 957.8 NA 0.0000 -SN BR 3200 330 0 0 0
2017/06/28 03:55:00 BASE 15.11 6 16.98 6 0.5 100 0.5 0 0 957.7 NA 0.0000 -SN BR 3000 300 0 0 0
2017/06/28 03:56:00 BASE 15.28 5 16.98 6 0.5 100 0.5 0 0 957.7 NA 0.2540 -SN BR 3300 330 0 0 0
2017/06/28 03:57:00 BASE 15.18 9 17.49 6 0.5 100 0.5 0 0 957.7 NA 0.0000 -SN BR 3500 330 0 0 0
2017/06/28 03:58:00 BASE 14.41 9 17.49 6 0.5 100 0.5 0 0 957.8 NA 0.0000 -SN BR 3500 300 0 0 0
2017/06/28 03:59:00 BASE 14.41 6 17.49 6 0.5 100 0.5 0 0 957.6 NA 0.0000 -SN BR 3900 300 0 0 0
2017/06/28 04:00:00 BASE 15.00 5 17.49 6 0.5 100 0.5 0 0 957.7 NA 0.0000 -SN BR 3500 300 0 0 0
2017/06/28 04:01:00 BASE 14.61 4 17.49 6 0.5 100 0.5 0 0 957.7 NA 0.0000 -SN BR 3500 300 0 0 0
2017/06/28 04:02:00 BASE 14.85 4 17.49 6 0.5 100 0.5 0 0 957.6 NA 0.0000 -SN BR 3500 300 0 0 0
2017/06/28 04:03:00 BASE 14.88 3 17.49 6 0.5 100 0.5 0 0 957.7 NA 0.0000 -SN BR 4000 330 0 0 0
2017/06/28 04:04:00 BASE 15.09 4 17.49 6 0.5 100 0.5 0 0 957.6 NA 0.0000 -SN BR 4500 0 0 0 2460
2017/06/28 04:05:00 BASE 15.33 5 17.49 6 0.5 100 0.5 0 0 957.6 NA 0.0000 -SN BR 3700 0 0 0 2430
2017/06/28 04:06:00 BASE 15.21 4 17.80 3 0.5 100 0.5 0 0 957.5 NA 0.0000 -SN BR 3900 330 0 0 0
2017/06/28 04:07:00 BASE 14.65 3 17.80 3 0.5 100 0.5 0 0 957.7 NA 0.0000 -SN BR 4500 330 0 0 0
2017/06/28 04:08:00 BASE 13.95 3 17.80 3 0.5 100 0.5 0 0 957.6 NA 0.0000 -SN BR 7000 330 0 0 0
2017/06/28 04:09:00 BASE 14.61 5 17.80 3 0.5 100 0.5 0 0 957.6 NA 0.0000 -SN BR 6000 330 0 0 0
2017/06/28 04:10:00 BASE 15.16 5 17.80 3 0.5 100 0.5 0 0 957.5 NA 0.0000 -SN BR 4800 330 0 0 0
2017/06/28 04:11:00 BASE 15.66 5 17.80 3 0.5 100 0.5 0 0 957.3 NA 0.2540 -SN BR 3900 0 0 0 2330
2017/06/28 04:12:00 BASE 16.35 6 17.80 3 0.5 100 0.5 0 0 957.3 NA 0.0000 -SN BR 3300 0 0 0 2300
2017/06/28 04:13:00 BASE 16.47 6 17.80 3 0.6 100 0.6 0 0 957.3 NA 0.0000 -SN BR 3200 330 0 0 0
2017/06/28 04:14:00 BASE 15.62 5 17.80 3 0.6 100 0.6 0 0 957.4 NA 0.0000 -SN BR 3500 360 0 0 0
2017/06/28 04:15:00 BASE 15.12 5 17.80 3 0.6 100 0.6 0 0 957.3 NA 0.0000 -SN BR 3500 390 0 0 0
2017/06/28 04:16:00 BASE 14.84 6 17.54 1 0.6 100 0.6 0 0 957.3 NA 0.0000 -SN BR 3600 390 0 0 0
2017/06/28 04:17:00 BASE 15.38 7 18.21 8 0.5 100 0.5 0 0 957.2 NA 0.0000 -SN BR 3400 330 0 0 0
2017/06/28 04:18:00 BASE 16.22 7 18.21 8 0.5 100 0.5 0 0 957.2 NA 0.0000 -SN BR 3100 360 0 0 0
2017/06/28 04:19:00 BASE 15.93 5 18.21 8 0.5 100 0.5 0 0 957.2 NA 0.0000 -SN BR 3300 330 0 0 0
2017/06/28 04:20:00 BASE 16.06 4 18.21 8 0.5 100 0.5 0 0 957.4 NA 0.0000 -SN BR 3500 980 0 0 0
2017/06/28 04:21:00 BASE 15.37 3 18.21 8 0.5 100 0.5 0 0 957.5 NA 0.0000 -SN BR 3900 0 0 0 2300
2017/06/28 04:22:00 BASE 14.49 4 18.21 8 0.5 100 0.5 0 0 957.4 NA 0.0000 -SN BR 4400 0 0 0 2530
2017/06/28 04:23:00 BASE 15.46 10 18.21 8 0.5 100 0.5 0 0 957.3 NA 0.0000 -SN BR 4000 850 0 0 0
2017/06/28 04:24:00 BASE 16.13 11 18.21 8 0.5 100 0.5 0 0 957.3 NA 0.0000 -SN BR 5000 330 0 0 0
2017/06/28 04:25:00 BASE 15.47 5 18.21 8 0.5 100 0.5 0 0 957.4 NA 0.0000 -SN BR 7000 0 0 0 2460
2017/06/28 04:26:00 BASE 15.29 4 18.21 8 0.5 100 0.5 0 0 957.3 NA 0.0000 -SN BR 6000 0 0 0 2620
2017/06/28 04:27:00 BASE 15.32 2 18.01 349 0.5 100 0.5 0 0 957.3 NA 0.0000 -SN BR 5000 0 0 0 2760
2017/06/28 04:28:00 BASE 15.80 1 18.01 349 0.5 100 0.5 0 0 957.2 NA 0.0000 -SN BR 5000 0 0 0 2760
2017/06/28 04:29:00 BASE 16.05 6 18.01 349 0.5 100 0.5 0 0 957.3 NA 0.0000 -SN BR 5000 0 0 0 2850
2017/06/28 04:30:00 BASE 15.64 6 18.01 349 0.5 100 0.5 0 0 957.2 NA 0.2540 -SN BR 3700 0 0 0 2850
2017/06/28 04:31:00 BASE 14.95 2 18.01 349 0.5 100 0.5 0 0 957.2 NA 0.0000 -SN BR 3700 0 0 0 2760
2017/06/28 04:32:00 BASE 14.86 357 18.01 349 0.4 100 0.4 0 0 957.2 NA 0.0000 -SN BR 3700 0 0 0 2460
2017/06/28 04:33:00 BASE 15.70 356 17.70 1 0.4 100 0.4 0 0 957.1 NA 0.0000 -SN BR 3500 0 0 0 2460
2017/06/28 04:34:00 BASE 15.05 3 17.70 1 0.4 100 0.4 0 0 957.2 NA 0.0000 -SN BR 4500 300 0 0 0
2017/06/28 04:35:00 BASE 14.18 359 17.70 1 0.4 100 0.4 0 0 957.2 NA 0.0000 -SN BR 5000 330 0 0 0
2017/06/28 04:36:00 BASE 14.90 0 17.70 1 0.4 100 0.4 0 0 957.1 NA 0.0000 -SN BR 3700 330 0 0 0
2017/06/28 04:37:00 BASE 15.80 6 17.70 1 0.4 100 0.4 0 0 957.0 NA 0.0000 -SN BR 3500 0 0 0 2260
2017/06/28 04:38:00 BASE 15.83 5 17.54 360 0.5 100 0.5 0 0 957.0 NA 0.0000 -SN BR 3400 360 0 0 0
2017/06/28 04:39:00 BASE 15.77 5 17.54 360 0.5 100 0.5 0 0 956.9 NA 0.0000 -SN BR 3500 0 0 0 2300
2017/06/28 04:40:00 BASE 15.99 5 17.39 2 0.5 100 0.5 0 0 957.0 NA 0.0000 -SN BR 3500 0 0 0 2260
2017/06/28 04:41:00 BASE 15.88 4 17.39 2 0.5 100 0.5 0 0 957.0 NA 0.0000 -SN BR 3400 0 0 0 2330
2017/06/28 04:42:00 BASE 15.95 5 17.65 6 0.5 100 0.5 0 0 956.9 NA 0.0000 -SN BR 3800 0 0 0 2360
2017/06/28 04:43:00 BASE 15.38 6 17.65 6 0.5 100 0.5 0 0 957.0 NA 0.0000 -SN BR 4000 360 0 0 0
2017/06/28 04:44:00 BASE 14.62 4 17.65 6 0.5 100 0.5 0 0 957.0 NA 0.0000 -SN BR 4100 360 0 0 0
2017/06/28 04:45:00 BASE 14.81 3 17.65 6 0.5 100 0.5 0 0 956.9 NA 0.2540 -SN BR 4200 0 0 0 2170
2017/06/28 04:46:00 BASE 15.28 4 17.65 6 0.5 100 0.5 0 0 956.8 NA 0.0000 -SN BR 3500 0 0 0 2560
2017/06/28 04:47:00 BASE 15.73 4 17.65 6 0.5 100 0.5 0 0 956.8 NA 0.0000 -SN BR 3600 0 0 0 2720
2017/06/28 04:48:00 BASE 15.39 4 17.65 6 0.5 100 0.5 0 0 956.9 NA 0.0000 -SN BR 3800 0 0 0 2790
2017/06/28 04:49:00 BASE 14.81 3 17.65 6 0.5 100 0.5 0 0 956.8 NA 0.0000 -SN BR 4700 0 0 0 2890
2017/06/28 04:50:00 BASE 15.20 4 17.65 6 0.5 100 0.5 0 0 956.7 NA 0.0000 -SN BR 4300 0 0 0 2890
2017/06/28 04:51:00 BASE 15.48 7 17.65 6 0.5 100 0.5 0 0 956.7 NA 0.0000 -SN BR 3800 660 0 0 0
2017/06/28 04:52:00 BASE 16.26 10 18.67 3 0.6 100 0.6 0 0 956.5 NA 0.0000 -SN BR 3500 0 0 0 2620
2017/06/28 04:53:00 BASE 17.06 8 18.93 303 0.6 100 0.6 0 0 956.5 NA 0.0000 -SN BR 3300 0 0 0 2720
2017/06/28 04:54:00 BASE 16.78 8 18.93 303 0.6 100 0.6 0 0 956.5 NA 0.0000 -SN BR 3300 0 0 0 2760
2017/06/28 04:55:00 BASE 16.59 8 18.93 303 0.6 100 0.6 0 0 956.5 NA 0.0000 -SN BR 3300 0 0 0 2690
2017/06/28 04:56:00 BASE 16.54 7 18.93 303 0.6 100 0.6 0 0 956.5 NA 0.0000 -SN BR 3500 0 0 0 2790
2017/06/28 04:57:00 BASE 16.28 8 18.93 303 0.6 100 0.6 0 0 956.4 NA 0.0000 -SN BR 3700 0 0 0 3020
2017/06/28 04:58:00 BASE 15.82 7 18.93 303 0.7 100 0.7 0 0 956.4 NA 0.0000 -SN BR 4200 0 0 0 3050
2017/06/28 04:59:00 BASE 15.79 6 18.93 303 0.7 100 0.7 0 0 956.4 NA 0.0000 -SN BR 4200 0 0 0 3080
2017/06/28 05:00:00 BASE 16.12 5 18.93 303 0.7 100 0.7 0 0 956.3 NA 0.2540 -SN BR 3100 0 0 0 3080
2017/06/28 05:01:00 BASE 16.31 6 18.93 303 0.7 100 0.7 0 0 956.4 NA 0.0000 -SN BR 3100 0 0 0 2790
2017/06/28 05:02:00 BASE 16.06 6 18.93 303 0.8 100 0.8 0 0 956.3 NA 0.0000 -SN BR 3100 0 0 0 2590
2017/06/28 05:03:00 BASE 15.93 6 18.21 7 0.8 100 0.8 0 0 956.3 NA 0.0000 -SN BR 2900 0 0 0 2850
2017/06/28 05:04:00 BASE 15.66 5 17.80 2 0.8 100 0.8 0 0 956.3 NA 0.0000 -SN BR 3400 0 0 0 2920
2017/06/28 05:05:00 BASE 15.74 5 17.80 2 0.9 100 0.9 0 0 956.2 NA 0.0000 -SN BR 3200 0 0 0 2890
2017/06/28 05:06:00 BASE 16.37 6 18.01 9 0.9 100 0.9 0 0 956.2 NA 0.0000 -SN BR 3500 0 0 0 3080
2017/06/28 05:07:00 BASE 16.05 7 18.98 11 0.9 100 0.9 0 0 956.2 NA 0.0000 -SN BR 4000 0 0 0 3410
2017/06/28 05:08:00 BASE 16.35 8 19.55 10 0.9 100 0.9 0 0 956.1 NA 0.0000 -SN BR 3200 0 0 0 3540
2017/06/28 05:09:00 BASE 17.09 12 19.55 10 0.8 100 0.8 0 0 956.1 NA 0.0000 -SN BR 3100 0 0 0 3480
2017/06/28 05:10:00 BASE 16.00 12 19.55 10 0.8 100 0.8 0 0 956.2 NA 0.2540 -SN BR 3400 0 0 0 4890
2017/06/28 05:11:00 BASE 15.88 8 19.55 10 0.8 100 0.8 0 0 956.2 NA 0.0000 -SN BR 3600 0 0 0 5610
2017/06/28 05:12:00 BASE 16.77 5 19.55 10 0.8 100 0.8 0 0 956.2 NA 0.0000 -SN BR 3200 0 0 0 5770
2017/06/28 05:13:00 BASE 15.93 5 19.55 10 0.7 100 0.7 0 0 956.2 NA 0.0000 -SN BR 2900 0 0 0 5350
2017/06/28 05:14:00 BASE 15.46 5 19.55 10 0.7 100 0.7 0 0 956.2 NA 0.0000 -SN BR 3000 0 0 0 4230
2017/06/28 05:15:00 BASE 15.62 6 19.55 10 0.7 100 0.7 0 0 956.2 NA 0.0000 -SN BR 2800 0 0 0 4130
2017/06/28 05:16:00 BASE 15.52 7 19.55 10 0.6 100 0.6 0 0 956.1 NA 0.0000 -SN BR 3100 0 0 0 4270
2017/06/28 05:17:00 BASE 16.13 5 19.55 10 0.7 100 0.6 0 0 956.0 NA 0.0000 -SN BR 3400 0 0 0 4400
2017/06/28 05:18:00 BASE 16.26 2 18.98 9 0.7 100 0.6 0 0 956.1 NA 0.0000 -SN BR 3200 0 0 0 3120
2017/06/28 05:19:00 BASE 16.01 2 18.11 7 0.7 100 0.7 0 0 956.1 NA 0.0000 -SN BR 3500 1080 0 0 0
2017/06/28 05:20:00 BASE 16.38 4 18.11 7 0.7 100 0.7 0 0 956.0 NA 0.2540 -SN BR 3800 0 0 0 3900
2017/06/28 05:21:00 BASE 16.33 5 18.11 7 0.7 100 0.7 0 0 956.0 NA 0.0000 -SN BR 3800 0 0 0 4660
2017/06/28 05:22:00 BASE 15.97 6 18.11 7 0.7 100 0.7 0 0 956.0 NA 0.0000 -SN BR 4100 0 0 0 3840
2017/06/28 05:23:00 BASE 15.39 5 18.11 7 0.7 100 0.7 0 0 956.0 NA 0.0000 -SN BR 4200 0 0 0 5150
2017/06/28 05:24:00 BASE 15.12 5 18.11 7 0.8 100 0.8 0 0 956.0 NA 0.0000 -SN BR 4400 0 0 0 4360
2017/06/28 05:25:00 BASE 15.65 7 18.93 14 0.8 100 0.8 0 0 955.9 NA 0.0000 -SN BR 5000 0 0 0 4200
2017/06/28 05:26:00 BASE 15.48 7 18.93 14 0.8 100 0.8 0 0 955.9 NA 0.0000 -SN BR 4400 0 0 0 3740
2017/06/28 05:27:00 BASE 15.57 7 18.93 14 0.9 100 0.9 0 0 955.8 NA 0.0000 -SN BR 5000 0 0 0 4270
2017/06/28 05:28:00 BASE 15.95 7 18.93 14 0.9 100 0.9 0 0 955.8 NA 0.0000 -SN BR 3700 0 0 0 3970
2017/06/28 05:29:00 BASE 16.18 6 18.93 14 1.0 100 1.0 0 0 955.8 NA 0.0000 -SN BR 4700 0 0 0 3640
2017/06/28 05:30:00 BASE 16.80 6 18.93 14 1.0 100 1.0 0 0 955.7 NA 0.0000 -SN BR 6000 0 0 0 3540
2017/06/28 05:31:00 BASE 16.99 9 18.93 14 1.0 100 1.0 0 0 955.8 NA 0.0000 -SN BR 6000 0 0 0 6040
2017/06/28 05:32:00 BASE 17.17 9 18.93 14 1.0 100 1.0 0 0 955.7 NA 0.0000 -SN BR 5000 0 0 0 4000
2017/06/28 05:33:00 BASE 16.92 6 18.93 14 1.0 100 1.0 0 0 955.8 NA 0.0000 -SN BR 4500 0 0 0 4100
2017/06/28 05:34:00 BASE 15.99 5 18.93 14 1.0 100 1.0 0 0 955.8 NA 0.0000 -SN BR 3300 0 0 0 5510
2017/06/28 05:35:00 BASE 15.05 354 18.42 4 1.0 100 1.0 0 0 955.9 NA 0.0000 -SN BR 3900 0 0 0 5280
2017/06/28 05:36:00 BASE 14.46 336 18.42 4 1.0 100 1.0 0 0 955.9 NA 0.0000 -SN BR 7000 0 0 0 5180
2017/06/28 05:37:00 BASE 12.85 339 18.42 4 0.9 100 0.9 0 0 956.0 NA 0.0000 -SN BR 9999 0 0 0 6270
2017/06/28 05:38:00 BASE 11.47 342 18.42 4 0.9 100 0.9 0 0 956.1 NA 0.0000 -SN BR 9999 0 0 0 3350
2017/06/28 05:39:00 BASE 12.84 351 18.42 4 1.0 100 1.0 0 0 955.9 NA 0.0000 -SN BR 9999 0 0 0 5710
2017/06/28 05:40:00 BASE 14.51 356 18.42 4 1.1 100 1.1 0 0 955.8 NA 0.0000 -SN BR 9999 0 0 0 5510
2017/06/28 05:41:00 BASE 14.92 357 18.42 4 1.2 100 1.2 0 0 955.8 NA 0.0000 -SN BR 9999 0 0 0 4040
2017/06/28 05:42:00 BASE 15.56 6 18.21 344 1.3 100 1.3 0 0 955.7 NA 0.0000 -SN BR 9999 0 0 0 3740
2017/06/28 05:43:00 BASE 14.74 6 18.21 344 1.4 100 1.4 0 0 955.9 NA 0.0000 -SN BR 6000 0 0 0 3580
2017/06/28 05:44:00 BASE 14.09 3 18.21 344 1.4 100 1.4 0 0 955.8 NA 0.0000 -SN BR 6000 0 0 0 4490
2017/06/28 05:45:00 BASE 14.24 357 18.21 344 1.3 100 1.3 0 0 955.8 NA 0.0000 -SN 9999 0 0 0 3710
2017/06/28 05:46:00 BASE 13.55 356 18.21 344 1.2 100 1.2 0 0 955.8 NA 0.0000 -SN 9999 0 0 0 4070
2017/06/28 05:47:00 BASE 13.44 353 18.21 344 1.1 100 1.1 0 0 955.8 NA 0.0000 -SN 9999 0 0 0 4100
2017/06/28 05:48:00 BASE 13.33 348 18.21 344 1.0 100 1.0 0 0 955.8 NA 0.0000 -SN 9999 0 0 0 3380
2017/06/28 05:49:00 BASE 13.04 352 18.21 344 0.9 100 0.9 0 0 955.8 NA 0.0000 -SN 9999 0 0 0 3150
2017/06/28 05:50:00 BASE 14.28 355 17.90 2 0.9 100 0.9 0 0 955.6 NA 0.0000 -SN 9999 0 0 0 3410
2017/06/28 05:51:00 BASE 16.11 0 17.90 2 1.0 100 1.0 0 0 955.6 NA 0.0000 -SN 8000 920 0 0 0
2017/06/28 05:52:00 BASE 15.84 2 17.44 3 1.0 100 1.0 0 0 955.6 NA 0.0000 -SN 9000 0 0 0 3310
2017/06/28 05:53:00 BASE 14.84 358 17.44 3 1.0 100 1.0 0 0 955.6 NA 0.0000 -SN 9999 0 0 0 3770
2017/06/28 05:54:00 BASE 14.71 356 17.44 3 1.0 100 1.0 0 0 955.6 NA 0.0000 -SN 9999 0 0 0 3840
2017/06/28 05:55:00 BASE 15.01 2 17.44 3 1.0 100 1.0 0 0 955.6 NA 0.0000 -SN 9999 0 0 0 3770
2017/06/28 05:56:00 BASE 15.45 356 17.44 3 1.0 100 1.0 0 0 955.5 NA 0.0000 -SN 5000 0 0 0 4170
2017/06/28 05:57:00 BASE 15.91 355 17.44 3 1.0 100 1.0 0 0 955.5 NA 0.0000 -SN BR 4900 0 0 0 3580
2017/06/28 05:58:00 BASE 16.18 1 17.44 3 1.0 100 1.0 0 0 955.5 NA 0.0000 -SN BR 7000 0 0 0 3610
2017/06/28 05:59:00 BASE 16.05 360 17.44 3 0.9 100 0.9 0 0 955.5 NA 0.0000 -SN BR 4500 0 0 0 3940
2017/06/28 06:00:00 BASE 15.85 0 17.44 3 0.9 100 0.9 0 0 955.4 NA 0.0000 -SN BR 4100 0 0 0 3410
2017/06/28 06:01:00 BASE 16.28 1 17.39 2 0.9 100 0.9 0 0 955.4 NA 0.0000 -SN BR 4300 0 0 0 3510
2017/06/28 06:02:00 BASE 16.42 4 17.39 2 0.9 100 0.9 0 0 955.4 NA 0.0000 -SN BR 5000 0 0 0 3150
2017/06/28 06:03:00 BASE 15.56 8 17.39 2 0.8 100 0.8 0 0 955.4 NA 0.2540 -SN BR 4800 0 0 0 2890
2017/06/28 06:04:00 BASE 15.23 16 17.39 2 0.8 100 0.8 0 0 955.4 NA 0.0000 -SN BR 6000 0 0 0 3840
2017/06/28 06:05:00 BASE 15.97 10 17.39 6 0.8 100 0.8 0 0 955.3 NA 0.0000 -SN BR 6000 0 0 0 3250
2017/06/28 06:06:00 BASE 16.52 3 17.80 4 0.8 100 0.8 0 0 955.3 NA 0.0000 -SN BR 3900 0 0 0 3120
2017/06/28 06:07:00 BASE 16.31 359 17.80 4 0.7 100 0.7 0 0 955.3 NA 0.0000 -SN BR 3100 0 0 0 3350
2017/06/28 06:08:00 BASE 15.62 2 17.80 4 0.7 100 0.7 0 0 955.3 NA 0.0000 -SN BR 3300 0 0 0 3310
2017/06/28 06:09:00 BASE 15.56 4 17.80 4 0.7 100 0.7 0 0 955.3 NA 0.0000 -SN BR 4200 0 0 0 3350
2017/06/28 06:10:00 BASE 15.45 5 17.80 4 0.7 100 0.7 0 0 955.3 NA 0.0000 -SN BR 4600 0 0 0 3020
2017/06/28 06:11:00 BASE 15.13 12 17.80 4 0.7 100 0.7 0 0 955.3 NA 0.0000 -SN BR 5000 0 0 0 3120
2017/06/28 06:12:00 BASE 15.26 9 17.80 4 0.7 100 0.7 0 0 955.2 NA 0.0000 -SN BR 5000 0 0 0 3280
2017/06/28 06:13:00 BASE 14.98 5 17.80 4 0.7 100 0.7 0 0 955.2 NA 0.0000 -SN BR 9000 0 0 0 3580
2017/06/28 06:14:00 BASE 15.27 3 17.80 4 0.7 100 0.7 0 0 955.0 NA 0.0000 -SN BR 5000 0 0 0 3610
2017/06/28 06:15:00 BASE 15.65 3 17.80 4 0.7 100 0.7 0 0 955.1 NA 0.0000 -SN BR 3800 0 0 0 3870
2017/06/28 06:16:00 BASE 15.61 5 17.18 1 0.7 100 0.7 0 0 955.0 NA 0.2540 -SN BR 4600 0 0 0 3740
2017/06/28 06:17:00 BASE 15.99 1 17.18 1 0.7 100 0.7 0 0 954.9 NA 0.0000 -SN BR 4700 0 0 0 3410
2017/06/28 06:18:00 BASE 15.71 2 17.18 1 0.7 100 0.7 0 0 955.0 NA 0.0000 -SN BR 3300 0 0 0 3580
2017/06/28 06:19:00 BASE 15.80 2 17.34 1 0.7 100 0.7 0 0 954.9 NA 0.0000 -SN BR 3100 0 0 0 3540
2017/06/28 06:20:00 BASE 16.47 1 17.39 5 0.8 100 0.8 0 0 954.8 NA 0.0000 -SN BR 3600 0 0 0 3610
2017/06/28 06:21:00 BASE 16.76 5 18.52 360 0.8 100 0.8 0 0 954.8 NA 0.0000 -SN BR 3600 0 0 0 3350
2017/06/28 06:22:00 BASE 16.93 4 18.52 4 0.8 100 0.8 0 0 954.7 NA 0.0000 -SN BR 4100 0 0 0 3610
2017/06/28 06:23:00 BASE 16.41 3 18.52 4 0.8 100 0.8 0 0 954.8 NA 0.0000 -SN BR 6000 0 0 0 3870
2017/06/28 06:24:00 BASE 15.99 4 18.57 13 0.9 100 0.9 0 0 954.7 NA 0.0000 -SN BR 6000 0 0 0 4170
2017/06/28 06:25:00 BASE 16.34 6 18.57 13 0.9 100 0.9 0 0 954.6 NA 0.0000 -SN BR 7000 0 0 0 4400
2017/06/28 06:26:00 BASE 17.12 7 18.78 9 0.9 100 0.9 0 0 954.6 NA 0.0000 -SN BR 9000 0 0 0 4300
2017/06/28 06:27:00 BASE 17.66 5 18.78 9 0.9 100 0.9 0 0 954.5 NA 0.0000 -SN BR 7000 0 0 0 3940
2017/06/28 06:28:00 BASE 17.28 7 18.98 2 0.8 100 0.8 0 0 954.5 NA 0.0000 -SN BR 8000 0 0 0 5120
2017/06/28 06:29:00 BASE 17.32 8 18.98 2 0.9 100 0.9 0 0 954.5 NA 0.0000 -SN BR 5000 0 0 0 4860
2017/06/28 06:30:00 BASE 17.48 7 18.98 2 0.8 100 0.8 0 0 954.5 NA 0.0000 -SN BR 4400 0 0 0 5020
2017/06/28 06:31:00 BASE 17.30 6 19.45 14 0.8 100 0.8 0 0 954.5 NA 0.2540 -SN BR 4700 0 0 0 4430
2017/06/28 06:32:00 BASE 16.64 6 19.45 14 0.8 100 0.8 0 0 954.5 NA 0.0000 -SN BR 5000 0 0 0 4430
2017/06/28 06:33:00 BASE 16.39 7 19.45 14 0.8 100 0.8 0 0 954.4 NA 0.0000 -SN BR 7000 0 0 0 4270
2017/06/28 06:34:00 BASE 16.43 7 19.45 14 0.8 100 0.8 0 0 954.4 NA 0.0000 -SN BR 7000 0 0 0 4720
2017/06/28 06:35:00 BASE 16.66 8 19.45 14 0.8 100 0.8 0 0 954.4 NA 0.0000 -SN BR 6000 0 0 0 4560
2017/06/28 06:36:00 BASE 17.36 9 20.06 12 0.8 100 0.8 0 0 954.3 NA 0.0000 -SN BR 6000 0 0 0 4360
2017/06/28 06:37:00 BASE 17.16 8 20.06 12 0.8 100 0.8 0 0 954.3 NA 0.0000 -SN BR 4900 0 0 0 4630
2017/06/28 06:38:00 BASE 16.82 7 20.06 12 0.8 100 0.8 0 0 954.3 NA 0.0000 -SN BR 4400 0 0 0 4130
2017/06/28 06:39:00 BASE 16.66 7 20.06 12 0.8 100 0.8 0 0 954.3 NA 0.0000 -SN BR 4700 0 0 0 3940
2017/06/28 06:40:00 BASE 16.79 7 20.06 12 0.8 100 0.8 0 0 954.3 NA 0.0000 -SN BR 3800 0 0 0 4130
2017/06/28 06:41:00 BASE 16.74 7 20.06 12 0.8 100 0.8 0 0 954.3 NA 0.0000 -SN BR 4200 0 0 0 4270
2017/06/28 06:42:00 BASE 16.44 8 20.06 12 0.8 100 0.8 0 0 954.3 NA 0.0000 -SN BR 5000 0 0 0 4530
2017/06/28 06:43:00 BASE 16.93 9 20.06 12 0.8 100 0.8 0 0 954.3 NA 0.0000 -SN BR 4500 0 0 0 3900
2017/06/28 06:44:00 BASE 16.86 9 20.06 12 0.8 100 0.8 0 0 954.3 NA 0.0000 -SN BR 4600 0 0 0 3900
2017/06/28 06:45:00 BASE 16.46 12 20.06 12 0.8 100 0.8 0 0 954.2 NA 0.0000 -SN BR 5000 0 0 0 3970
2017/06/28 06:46:00 BASE 16.72 12 19.24 11 0.9 100 0.9 0 0 954.2 NA 0.0000 -SN BR 4400 0 0 0 4230
2017/06/28 06:47:00 BASE 16.66 11 19.24 11 0.9 100 0.9 0 0 954.2 NA 0.0000 -SN BR 4700 0 0 0 4000
2017/06/28 06:48:00 BASE 16.53 11 19.24 11 0.9 100 0.9 0 0 954.2 NA 0.0000 -SN BR 4300 0 0 0 4490
2017/06/28 06:49:00 BASE 16.61 10 19.24 11 0.9 100 0.9 0 0 954.2 NA 0.0000 -SN BR 5000 0 0 0 6790
2017/06/28 06:50:00 BASE 16.52 10 19.24 11 0.9 100 0.9 0 0 954.2 NA 0.0000 -SN BR 5000 0 0 0 6860
2017/06/28 06:51:00 BASE 15.97 8 19.24 11 0.9 100 0.9 0 0 954.3 NA 0.0000 -SN BR 4800 0 0 0 6820
2017/06/28 06:52:00 BASE 15.05 9 19.24 11 0.8 100 0.8 0 0 954.3 NA 0.0000 -SN BR 3900 0 0 0 7090
2017/06/28 06:53:00 BASE 15.08 11 19.24 11 0.8 100 0.8 0 0 954.2 NA 0.0000 -SN BR 4000 0 0 0 7280
2017/06/28 06:54:00 BASE 15.95 10 19.24 11 0.8 100 0.8 0 0 954.2 NA 0.0000 -SN BR 7000 0 0 0 7350
2017/06/28 06:55:00 BASE 16.33 10 19.24 11 0.8 100 0.8 0 0 954.1 NA 0.0000 -SN BR 8000 0 0 0 7150
2017/06/28 06:56:00 BASE 16.14 9 18.37 12 0.9 100 0.9 0 0 954.2 NA 0.0000 -SN BR 6000 0 0 0 6890
2017/06/28 06:57:00 BASE 15.85 11 18.42 7 0.9 100 0.9 0 0 954.2 NA 0.0000 -SN BR 8000 0 0 0 7190
2017/06/28 06:58:00 BASE 15.96 12 18.42 7 0.9 100 0.9 0 0 954.2 NA 0.0000 -SN BR 6000 0 0 0 6890
2017/06/28 06:59:00 BASE 15.55 9 18.42 7 0.9 100 0.9 0 0 954.2 NA 0.0000 -SN BR 6000 0 0 0 6760
2017/06/28 07:00:00 BASE 14.53 7 18.42 7 0.9 100 0.9 0 0 954.2 NA 0.0000 -SN BR 7000 0 0 0 6500
2017/06/28 07:01:00 BASE 15.00 9 18.42 7 0.9 100 0.9 0 0 954.1 NA 0.0000 -SN BR 9999 0 0 0 5610
2017/06/28 07:02:00 BASE 15.25 12 18.42 7 0.9 100 0.9 0 0 954.1 NA 0.0000 -SN BR 9999 0 0 0 5320
2017/06/28 07:03:00 BASE 15.16 10 18.42 7 1.0 100 1.0 0 0 954.1 NA 0.0000 -SN BR 9999 7150 0 0 0
2017/06/28 07:04:00 BASE 15.09 8 18.42 7 1.0 100 1.0 0 0 954.1 NA 0.0000 -SN BR 9999 0 0 0 6920
2017/06/28 07:05:00 BASE 15.23 10 18.42 7 1.0 100 1.0 0 0 954.0 NA 0.0000 -SN BR 9999 0 0 0 6660
2017/06/28 07:06:00 BASE 15.64 13 18.42 7 1.0 100 1.0 0 0 954.1 NA 0.0000 -SN 9999 0 0 0 6370
2017/06/28 07:07:00 BASE 15.24 13 18.26 15 1.0 100 1.0 0 0 954.1 NA 0.0000 -SN 9999 0 0 0 4860
2017/06/28 07:08:00 BASE 15.18 12 18.01 20 1.0 100 1.0 0 0 954.0 NA 0.0000 -SN 9999 0 0 0 5150
2017/06/28 07:09:00 BASE 15.57 12 18.01 20 1.0 100 1.0 0 0 954.0 NA 0.0000 -SN 9999 0 0 0 6400
2017/06/28 07:10:00 BASE 15.76 11 18.01 20 1.0 100 1.0 0 0 954.0 NA 0.0000 -SN 9999 0 0 0 6370
2017/06/28 07:11:00 BASE 15.62 10 17.54 12 1.0 100 1.0 0 0 954.0 NA 0.0000 -SN 9999 0 0 0 6100
2017/06/28 07:12:00 BASE 14.88 10 17.54 12 1.0 100 1.0 0 0 954.0 NA 0.0000 -SN 9999 0 0 0 6000
2017/06/28 07:13:00 BASE 14.59 13 17.54 12 1.0 100 1.0 0 0 954.0 NA 0.0000 9999 0 0 0 5770
2017/06/28 07:14:00 BASE 14.53 13 17.54 12 1.0 100 1.0 0 0 954.0 NA 0.0000 9999 0 0 0 4530
2017/06/28 07:15:00 BASE 14.24 10 17.44 9 1.0 100 1.0 0 0 954.0 NA 0.0000 9999 0 0 0 5740
2017/06/28 07:16:00 BASE 14.51 7 17.44 9 1.0 100 1.0 0 0 954.0 NA 0.0000 9999 0 0 0 5250
2017/06/28 07:17:00 BASE 14.69 9 17.44 9 1.0 100 1.0 0 0 953.9 NA 0.0000 9999 0 0 0 4430
2017/06/28 07:18:00 BASE 15.12 13 17.44 9 1.0 100 1.0 0 0 953.9 NA 0.0000 -SN 9999 0 0 0 4760
2017/06/28 07:19:00 BASE 15.13 12 17.44 9 1.0 100 1.0 0 0 953.9 NA 0.0000 -SN 9000 0 0 0 5280
2017/06/28 07:20:00 BASE 14.29 12 17.44 9 1.0 100 1.0 0 0 953.9 NA 0.0000 -SN 9999 390 0 0 0
2017/06/28 07:21:00 BASE 14.47 12 16.98 7 1.0 100 1.0 0 0 953.8 NA 0.0000 -SN 9999 0 0 0 5710
2017/06/28 07:22:00 BASE 14.68 12 16.98 7 1.0 100 1.0 0 0 953.9 NA 0.2540 -SN 9999 0 0 0 5770
2017/06/28 07:23:00 BASE 14.68 14 16.98 7 1.0 100 1.0 0 0 953.8 NA 0.0000 -SN 9000 0 0 0 6170
2017/06/28 07:24:00 BASE 15.25 17 16.98 7 1.0 100 1.0 0 0 953.8 NA 0.0000 -SN 7000 0 0 0 5450
2017/06/28 07:25:00 BASE 15.51 18 17.34 20 1.0 100 1.0 0 0 953.7 NA 0.0000 -SN 9999 0 0 0 5120
2017/06/28 07:26:00 BASE 15.25 15 17.34 20 1.0 100 1.0 0 0 953.8 NA 0.0000 -SN 9999 0 0 0 4760
2017/06/28 07:27:00 BASE 14.70 14 17.34 20 1.0 100 1.0 0 0 953.8 NA 0.0000 -SN 9999 0 0 0 4130
2017/06/28 07:28:00 BASE 14.76 15 17.34 20 1.0 100 1.0 0 0 953.8 NA 0.0000 -SN 9999 0 0 0 3900
2017/06/28 07:29:00 BASE 14.54 14 17.34 20 1.0 100 1.0 0 0 953.8 NA 0.0000 -SN 9999 0 0 0 3770
2017/06/28 07:30:00 BASE 13.99 12 17.34 20 1.0 100 1.0 0 0 953.8 NA 0.0000 -SN 9000 0 0 0 3450
2017/06/28 07:31:00 BASE 13.97 13 17.34 20 1.0 100 1.0 0 0 953.8 NA 0.0000 -SN 7000 0 0 0 3380
2017/06/28 07:32:00 BASE 14.54 14 17.34 20 1.0 100 1.0 0 0 953.7 NA 0.0000 -SN BR 6000 390 0 0 0
2017/06/28 07:33:00 BASE 14.89 14 17.34 20 1.0 100 1.0 0 0 953.7 NA 0.0000 -SN BR 5000 0 0 0 3810
2017/06/28 07:34:00 BASE 14.70 14 17.34 20 1.0 100 1.0 0 0 953.7 NA 0.0000 -SN BR 3600 0 0 0 4530
2017/06/28 07:35:00 BASE 13.75 12 16.67 15 1.0 100 1.0 0 0 953.8 NA 0.0000 -SN BR 4300 0 0 0 4200
2017/06/28 07:36:00 BASE 13.41 12 16.67 15 1.0 100 1.0 0 0 953.7 NA 0.0000 -SN BR 7000 0 0 0 4300
2017/06/28 07:37:00 BASE 13.97 14 16.67 15 1.1 100 1.1 0 0 953.7 NA 0.0000 -SN BR 5000 0 0 0 4400
2017/06/28 07:38:00 BASE 13.86 14 16.67 15 1.1 100 1.1 0 0 953.7 NA 0.0000 -SN BR 8000 0 0 0 4400
2017/06/28 07:39:00 BASE 13.33 12 16.67 15 1.1 100 1.1 0 0 953.8 NA 0.0000 -SN BR 9999 0 0 0 4270
2017/06/28 07:40:00 BASE 13.05 9 16.67 15 1.1 100 1.1 0 0 953.7 NA 0.0000 -SN BR 9999 0 0 0 4360
2017/06/28 07:41:00 BASE 13.56 11 16.67 15 1.1 100 1.1 0 0 953.7 NA 0.0000 -SN BR 7000 0 0 0 5380
2017/06/28 07:42:00 BASE 13.63 13 16.67 15 1.0 100 1.0 0 0 953.7 NA 0.2540 -SN BR 6000 0 0 0 4690
2017/06/28 07:43:00 BASE 13.72 12 16.67 15 1.0 100 1.0 0 0 953.6 NA 0.0000 -SN BR 7000 0 0 0 4490
2017/06/28 07:44:00 BASE 14.04 11 16.46 12 1.0 100 1.0 0 0 953.6 NA 0.0000 -SN BR 8000 0 0 0 4360
2017/06/28 07:45:00 BASE 13.54 10 16.46 12 1.0 100 1.0 0 0 953.6 NA 0.0000 -SN BR 9999 0 0 0 4590
2017/06/28 07:46:00 BASE 13.73 10 16.46 12 1.1 100 1.1 0 0 953.6 NA 0.0000 -SN BR 9999 0 0 0 4890
2017/06/28 07:47:00 BASE 14.48 12 16.46 7 1.1 100 1.1 0 0 953.5 NA 0.0000 -SN BR 9999 0 0 0 4720
2017/06/28 07:48:00 BASE 14.56 12 16.46 7 1.1 100 1.1 0 0 953.6 NA 0.0000 -SN BR 9999 0 0 0 4430
2017/06/28 07:49:00 BASE 14.42 11 16.46 7 1.1 100 1.1 0 0 953.6 NA 0.0000 -SN BR 9999 0 0 0 4460
2017/06/28 07:50:00 BASE 14.23 12 16.46 7 1.1 100 1.1 0 0 953.6 NA 0.0000 -SN BR 7000 0 0 0 4200
2017/06/28 07:51:00 BASE 14.51 15 16.46 7 1.1 100 1.1 0 0 953.5 NA 0.0000 -SN BR 5000 330 0 0 0
2017/06/28 07:52:00 BASE 14.69 15 16.46 7 1.0 100 1.0 0 0 953.5 NA 0.0000 -SN BR 4200 0 0 0 4990
2017/06/28 07:53:00 BASE 14.53 13 16.46 7 1.0 100 1.0 0 0 953.5 NA 0.0000 -SN BR 3700 0 0 0 5050
2017/06/28 07:54:00 BASE 14.18 10 16.46 7 1.0 100 1.0 0 0 953.5 NA 0.0000 -SN BR 4400 0 0 0 4170
2017/06/28 07:55:00 BASE 13.51 9 16.46 7 1.0 100 1.0 0 0 953.6 NA 0.0000 -SN BR 7000 0 0 0 4270
2017/06/28 07:56:00 BASE 13.69 8 16.46 7 1.0 100 1.0 0 0 953.5 NA 0.0000 -SN BR 9999 390 0 0 0
2017/06/28 07:57:00 BASE 14.17 9 16.20 14 0.9 100 0.9 0 0 953.5 NA 0.0000 -SN BR 9999 390 0 0 0
2017/06/28 07:58:00 BASE 13.97 10 16.20 14 0.9 100 0.9 0 0 953.6 NA 0.2540 -SN BR 7000 390 0 0 0
2017/06/28 07:59:00 BASE 13.20 10 16.20 14 0.9 100 0.9 0 0 953.6 NA 0.0000 -SN BR 5000 430 0 0 0
2017/06/28 08:00:00 BASE 13.24 9 16.20 14 0.9 100 0.9 0 0 953.5 NA 0.0000 -SN BR 6000 0 0 0 5020
2017/06/28 08:01:00 BASE 13.68 10 16.05 18 0.9 100 0.9 0 0 953.5 NA 0.0000 -SN BR 6000 0 0 0 4920
2017/06/28 08:02:00 BASE 13.91 11 16.05 18 0.9 100 0.9 0 0 953.5 NA 0.0000 -SN BR 9999 0 0 0 4430
2017/06/28 08:03:00 BASE 13.79 11 16.05 18 0.9 100 0.9 0 0 953.5 NA 0.0000 -SN BR 9999 0 0 0 4360
2017/06/28 08:04:00 BASE 13.90 12 16.41 15 0.9 100 0.9 0 0 953.5 NA 0.0000 -SN BR 8000 0 0 0 4200
2017/06/28 08:05:00 BASE 14.69 14 16.62 14 0.9 100 0.9 0 0 953.4 NA 0.0000 -SN BR 6000 0 0 0 4000
2017/06/28 08:06:00 BASE 14.79 12 16.62 14 0.9 100 0.9 0 0 953.4 NA 0.0000 -SN BR 9999 0 0 0 3940
2017/06/28 08:07:00 BASE 14.61 11 16.62 14 0.9 100 0.9 0 0 953.4 NA 0.0000 -SN BR 9999 0 0 0 3870
2017/06/28 08:08:00 BASE 14.35 12 16.62 14 0.9 100 0.9 0 0 953.4 NA 0.0000 -SN BR 9999 0 0 0 3770
2017/06/28 08:09:00 BASE 14.11 10 16.62 14 0.9 100 0.9 0 0 953.4 NA 0.0000 -SN BR 9999 0 0 0 3670
2017/06/28 08:10:00 BASE 14.00 11 16.62 14 0.9 100 0.9 0 0 953.4 NA 0.0000 -SN 9999 0 0 0 3940
2017/06/28 08:11:00 BASE 13.98 14 16.62 14 0.9 100 0.9 0 0 953.3 NA 0.0000 -SN 9999 0 0 0 4230
2017/06/28 08:12:00 BASE 14.56 14 16.62 14 0.9 100 0.9 0 0 953.3 NA 0.0000 -SN 9999 0 0 0 4330
2017/06/28 08:13:00 BASE 14.43 13 16.62 14 0.9 100 0.9 0 0 953.3 NA 0.0000 -SN 9000 390 0 0 0
2017/06/28 08:14:00 BASE 14.18 12 16.62 14 0.9 100 0.9 0 0 953.3 NA 0.0000 -SN 5000 360 0 0 0
2017/06/28 08:15:00 BASE 13.79 12 16.26 19 0.9 100 0.9 0 0 953.4 NA 0.0000 -SN 6000 0 0 0 3810
2017/06/28 08:16:00 BASE 12.79 11 16.26 19 0.9 100 0.9 0 0 953.4 NA 0.0000 -SN BR 7000 430 0 0 0
2017/06/28 08:17:00 BASE 12.08 8 16.26 19 0.9 100 0.9 0 0 953.4 NA 0.0000 -SN BR 9000 0 0 0 4790
2017/06/28 08:18:00 BASE 12.22 8 16.26 19 0.8 100 0.8 0 0 953.3 NA 0.0000 -SN BR 9999 0 0 0 4560
2017/06/28 08:19:00 BASE 13.39 11 16.26 19 0.9 100 0.9 0 0 953.2 NA 0.0000 -SN BR 9999 0 0 0 4590
2017/06/28 08:20:00 BASE 13.94 12 16.31 5 0.9 100 0.9 0 0 953.2 NA 0.0000 -SN BR 9999 0 0 0 4690
2017/06/28 08:21:00 BASE 13.92 13 16.31 5 0.9 100 0.9 0 0 953.2 NA 0.0000 -SN BR 9000 0 0 0 4860
2017/06/28 08:22:00 BASE 13.99 14 16.31 5 0.9 100 0.9 0 0 953.1 NA 0.0000 -SN BR 9999 0 0 0 4760
2017/06/28 08:23:00 BASE 13.95 15 16.31 5 0.9 100 0.9 0 0 953.1 NA 0.0000 -SN BR 9999 0 0 0 4950
2017/06/28 08:24:00 BASE 13.80 14 16.31 5 0.9 100 0.9 0 0 953.1 NA 0.0000 -SN 9999 0 0 0 5020
2017/06/28 08:25:00 BASE 13.85 13 16.31 5 0.9 100 0.9 0 0 953.0 NA 0.0000 -SN 9999 0 0 0 5050
2017/06/28 08:26:00 BASE 14.03 11 16.31 5 0.9 100 0.9 0 0 953.0 NA 0.0000 -SN 9999 0 0 0 5180
2017/06/28 08:27:00 BASE 14.05 11 16.31 5 0.9 100 0.9 0 0 953.0 NA 0.0000 -SN 9999 0 0 0 4720
2017/06/28 08:28:00 BASE 14.25 12 16.31 5 0.9 100 0.9 0 0 952.9 NA 0.0000 -SN 9999 0 0 0 4630
2017/06/28 08:29:00 BASE 14.63 11 16.31 5 0.9 100 0.9 0 0 952.9 NA 0.0000 -SN 9999 0 0 0 4820
2017/06/28 08:30:00 BASE 15.03 12 16.36 15 0.9 100 0.9 0 0 952.9 NA 0.0000 -SN 9999 0 0 0 4820
2017/06/28 08:31:00 BASE 15.35 12 17.08 12 1.0 100 1.0 0 0 952.8 NA 0.0000 -SN 9999 0 0 0 4630
2017/06/28 08:32:00 BASE 14.99 10 17.08 12 1.0 100 1.0 0 0 952.8 NA 0.0000 -SN 9999 0 0 0 4530
2017/06/28 08:33:00 BASE 14.76 9 17.08 12 1.0 100 1.0 0 0 952.8 NA 0.0000 -SN 9999 0 0 0 4890
2017/06/28 08:34:00 BASE 14.23 10 17.08 12 1.0 100 1.0 0 0 952.8 NA 0.0000 -SN 9999 4170 0 0 0
2017/06/28 08:35:00 BASE 14.20 11 17.08 12 1.0 100 1.0 0 0 952.7 NA 0.0000 -SN 9999 0 0 0 4660
2017/06/28 08:36:00 BASE 14.83 11 17.08 12 1.0 100 1.0 0 0 952.7 NA 0.0000 -SN 9999 0 0 0 5120
2017/06/28 08:37:00 BASE 14.50 9 17.08 12 1.0 100 1.0 0 0 952.7 NA 0.0000 9999 0 0 0 5180
2017/06/28 08:38:00 BASE 13.97 8 17.08 12 0.9 100 0.9 0 0 952.8 NA 0.0000 9999 0 0 0 5050
2017/06/28 08:39:00 BASE 13.72 8 17.08 12 0.9 100 0.9 0 0 952.8 NA 0.0000 9999 0 0 0 4530
2017/06/28 08:40:00 BASE 13.93 9 17.08 12 0.9 100 0.9 0 0 952.8 NA 0.0000 9999 0 0 0 4330
2017/06/28 08:41:00 BASE 14.34 10 16.98 12 0.9 100 0.9 0 0 952.8 NA 0.0000 9999 460 0 0 0
2017/06/28 08:42:00 BASE 14.06 11 16.57 6 0.9 100 0.9 0 0 952.8 NA 0.0000 9999 0 0 0 4270
2017/06/28 08:43:00 BASE 13.68 8 16.57 6 0.9 100 0.9 0 0 952.7 NA 0.0000 9999 590 0 0 0
2017/06/28 08:44:00 BASE 13.66 8 16.57 6 0.9 100 0.9 0 0 952.7 NA 0.0000 9999 620 0 0 0
2017/06/28 08:45:00 BASE 13.53 12 16.31 14 1.0 100 1.0 0 0 952.7 NA 0.0000 9999 560 3410 0 0
2017/06/28 08:46:00 BASE 13.94 14 16.31 14 1.0 100 1.0 0 0 952.6 NA 0.0000 9999 520 0 0 0
2017/06/28 08:47:00 BASE 13.70 13 16.15 15 1.0 100 1.0 0 0 952.7 NA 0.0000 9999 0 0 0 4270
2017/06/28 08:48:00 BASE 12.64 10 16.15 15 1.0 100 1.0 0 0 952.7 NA 0.0000 9999 0 0 0 4170
2017/06/28 08:49:00 BASE 13.19 11 16.15 15 1.0 100 1.0 0 0 952.6 NA 0.0000 9999 0 0 0 4200
2017/06/28 08:50:00 BASE 13.74 13 16.15 15 0.9 100 0.9 0 0 952.6 NA 0.0000 9999 3480 0 0 0
2017/06/28 08:51:00 BASE 13.40 12 16.15 15 0.9 100 0.9 0 0 952.5 NA 0.0000 9999 3480 0 0 0
2017/06/28 08:52:00 BASE 13.29 12 16.15 15 0.9 100 0.9 0 0 952.5 NA 0.0000 9999 0 0 0 4720
2017/06/28 08:53:00 BASE 13.32 13 15.84 6 1.0 100 1.0 0 0 952.5 NA 0.0000 9999 0 0 0 4720
2017/06/28 08:54:00 BASE 14.08 13 15.84 6 1.0 100 1.0 0 0 952.4 NA 0.0000 9999 0 0 0 4950
2017/06/28 08:55:00 BASE 14.18 11 15.84 6 1.0 100 1.0 0 0 952.4 NA 0.0000 9999 0 0 0 5050
2017/06/28 08:56:00 BASE 13.39 10 15.84 6 1.1 100 1.1 0 0 952.4 NA 0.0000 9999 4530 0 0 0
2017/06/28 08:57:00 BASE 13.23 13 15.84 6 1.1 100 1.1 0 0 952.4 NA 0.0000 9999 4560 0 0 0
2017/06/28 08:58:00 BASE 13.84 13 15.95 10 1.1 100 1.1 0 0 952.4 NA 0.0000 9999 4690 0 0 0
2017/06/28 08:59:00 BASE 13.61 10 15.95 10 1.1 100 1.1 0 0 952.3 NA 0.0000 9999 4760 0 0 0
2017/06/28 09:00:00 BASE 13.36 8 15.95 10 1.1 100 1.1 0 0 952.3 NA 0.0000 -SN 9999 4720 0 0 0
2017/06/28 09:01:00 BASE 13.94 8 15.95 10 1.1 100 1.1 0 0 952.3 NA 0.0000 -SN 9999 4720 0 0 0
2017/06/28 09:02:00 BASE 13.91 10 15.95 10 1.1 100 1.1 0 0 952.3 NA 0.0000 -SN 9999 4690 0 0 0
2017/06/28 09:03:00 BASE 13.60 11 15.95 10 1.1 100 1.1 0 0 952.3 NA 0.0000 -SN 9999 0 0 0 5150
2017/06/28 09:04:00 BASE 13.88 12 15.95 10 1.1 100 1.1 0 0 952.3 NA 0.0000 -SN 9999 3380 0 0 0
2017/06/28 09:05:00 BASE 14.43 13 15.95 10 1.1 100 1.1 0 0 952.2 NA 0.0000 -SN 9999 0 0 0 5410
2017/06/28 09:06:00 BASE 14.36 14 15.95 10 1.1 100 1.1 0 0 952.2 NA 0.0000 -SN 9999 0 0 0 5350
2017/06/28 09:07:00 BASE 13.90 15 15.95 10 1.1 100 1.1 0 0 952.2 NA 0.0000 -SN 9999 0 0 0 5250
2017/06/28 09:08:00 BASE 13.91 15 15.84 2 1.1 100 1.1 0 0 952.2 NA 0.0000 -SN 9999 0 0 0 5280
2017/06/28 09:09:00 BASE 13.56 14 15.84 2 1.1 100 1.1 0 0 952.2 NA 0.0000 -SN 9999 0 0 0 5350
2017/06/28 09:10:00 BASE 12.76 12 15.74 8 1.1 100 1.1 0 0 952.2 NA 0.0000 9999 0 0 0 5320
2017/06/28 09:11:00 BASE 12.91 13 15.74 8 1.1 100 1.1 0 0 952.2 NA 0.0000 9999 0 0 0 5280
2017/06/28 09:12:00 BASE 13.49 12 15.74 8 1.1 100 1.1 0 0 952.2 NA 0.0000 9999 0 0 0 5280
2017/06/28 09:13:00 BASE 13.55 12 15.74 8 1.1 100 1.1 0 0 952.2 NA 0.0000 -SN 9999 0 0 0 5350
2017/06/28 09:14:00 BASE 13.52 14 15.74 8 1.1 100 1.1 0 0 952.1 NA 0.0000 -SN 9999 0 0 0 5410
2017/06/28 09:15:00 BASE 13.38 10 15.54 16 1.1 100 1.1 0 0 952.1 NA 0.0000 -SN 9999 0 0 0 5450
2017/06/28 09:16:00 BASE 13.14 9 15.54 16 1.1 100 1.1 0 0 952.1 NA 0.0000 -SN 9999 0 0 0 5380
2017/06/28 09:17:00 BASE 13.56 12 15.64 10 1.1 100 1.1 0 0 952.1 NA 0.0000 -SN 9999 0 0 0 4690
2017/06/28 09:18:00 BASE 13.65 11 15.64 10 1.0 100 1.0 0 0 952.1 NA 0.0000 -SN 9999 0 0 0 4460
2017/06/28 09:19:00 BASE 13.28 10 15.64 10 1.0 100 1.0 0 0 952.1 NA 0.0000 -SN 9999 0 0 0 4000
2017/06/28 09:20:00 BASE 13.42 9 16.20 6 1.0 100 1.0 0 0 952.0 NA 0.0000 -SN 9999 0 0 0 4070
2017/06/28 09:21:00 BASE 14.17 11 16.20 6 1.0 100 1.0 0 0 952.0 NA 0.0000 -SN 9999 0 0 0 4130
2017/06/28 09:22:00 BASE 14.19 14 16.20 6 1.0 100 1.0 0 0 952.0 NA 0.0000 -SN 9999 0 0 0 3770
2017/06/28 09:23:00 BASE 13.49 13 16.20 6 1.0 100 1.0 0 0 952.0 NA 0.0000 -SN 9999 0 0 0 4230
2017/06/28 09:24:00 BASE 13.19 11 16.20 6 1.0 100 1.0 0 0 952.1 NA 0.0000 -SN 9999 0 0 0 4300
2017/06/28 09:25:00 BASE 13.41 10 16.20 6 1.0 100 1.0 0 0 952.0 NA 0.0000 -SN 9999 0 0 0 4430
2017/06/28 09:26:00 BASE 13.59 11 16.20 6 1.0 100 1.0 0 0 952.0 NA 0.0000 -SN 9999 0 0 0 3740
2017/06/28 09:27:00 BASE 13.43 11 16.20 6 1.0 100 1.0 0 0 952.0 NA 0.0000 -SN 9999 0 0 0 3710
2017/06/28 09:28:00 BASE 13.12 11 16.20 6 1.0 100 1.0 0 0 952.0 NA 0.0000 -SN 9999 0 0 0 3870
2017/06/28 09:29:00 BASE 13.33 9 16.82 3 1.0 100 1.0 0 0 951.9 NA 0.0000 -SN 9999 0 0 0 4660
2017/06/28 09:30:00 BASE 14.23 8 16.82 3 1.1 100 1.1 0 0 951.8 NA 0.0000 -SN 9999 0 0 0 4000
2017/06/28 09:31:00 BASE 14.04 8 16.82 3 1.1 100 1.1 0 0 951.9 NA 0.0000 -SN 9999 0 0 0 3840
2017/06/28 09:32:00 BASE 13.89 8 16.82 3 1.1 100 1.1 0 0 951.8 NA 0.0000 -SN 8000 0 0 0 3900
2017/06/28 09:33:00 BASE 13.81 9 16.82 3 1.0 100 1.0 0 0 951.9 NA 0.0000 -SN 5000 0 0 0 3900
2017/06/28 09:34:00 BASE 12.99 11 16.82 3 1.0 100 1.0 0 0 951.9 NA 0.2540 -SN BR 3600 0 0 0 3900
2017/06/28 09:35:00 BASE 13.26 13 16.82 3 1.0 100 1.0 0 0 951.8 NA 0.0000 -SN BR 4000 0 0 0 3870
2017/06/28 09:36:00 BASE 13.72 12 16.82 3 1.0 100 1.0 0 0 951.8 NA 0.0000 -SN BR 4400 0 0 0 3480
2017/06/28 09:37:00 BASE 13.31 10 16.82 3 0.9 100 0.9 0 0 951.8 NA 0.0000 -SN BR 4000 0 0 0 3280
2017/06/28 09:38:00 BASE 13.09 8 16.82 3 0.9 100 0.9 0 0 951.7 NA 0.0000 -SN BR 3800 0 0 0 3380
2017/06/28 09:39:00 BASE 12.88 8 15.84 10 0.9 100 0.9 0 0 951.8 NA 0.0000 -SN BR 3400 0 0 0 3050
2017/06/28 09:40:00 BASE 13.26 8 15.84 10 0.9 100 0.9 0 0 951.7 NA 0.0000 -SN BR 3900 0 0 0 2720
2017/06/28 09:41:00 BASE 13.99 7 15.84 10 1.0 100 1.0 0 0 951.6 NA 0.0000 -SN BR 7000 1250 0 0 0
2017/06/28 09:42:00 BASE 13.99 8 15.84 10 1.0 100 1.0 0 0 951.6 NA 0.0000 -SN BR 9999 0 0 0 2850
2017/06/28 09:43:00 BASE 14.06 9 15.84 10 1.0 100 1.0 0 0 951.6 NA 0.0000 -SN BR 6000 0 0 0 2820
2017/06/28 09:44:00 BASE 13.95 8 16.05 11 1.0 100 1.0 0 0 951.6 NA 0.0000 -SN BR 5000 430 0 0 0
2017/06/28 09:45:00 BASE 13.43 7 16.05 11 1.0 100 1.0 0 0 951.6 NA 0.2540 -SN BR 6000 460 0 0 0
2017/06/28 09:46:00 BASE 13.81 7 16.98 12 1.0 100 1.0 0 0 951.5 NA 0.0000 -SN BR 5000 0 0 0 2430
2017/06/28 09:47:00 BASE 13.90 6 16.98 12 1.0 100 1.0 0 0 951.5 NA 0.0000 -SN BR 3500 0 0 0 2400
2017/06/28 09:48:00 BASE 13.94 7 16.98 12 1.0 100 1.0 0 0 951.5 NA 0.0000 -SN BR 4800 0 0 0 2720
2017/06/28 09:49:00 BASE 14.92 7 16.98 12 0.9 100 0.9 0 0 951.4 NA 0.0000 -SN BR 6000 490 0 0 0
2017/06/28 09:50:00 BASE 14.93 5 16.98 12 0.9 100 0.9 0 0 951.5 NA 0.0000 -SN BR 5000 0 0 0 3080
2017/06/28 09:51:00 BASE 14.69 5 16.98 12 0.9 100 0.9 0 0 951.4 NA 0.0000 -SN BR 9999 0 0 0 3050
2017/06/28 09:52:00 BASE 14.87 6 16.98 12 0.9 100 0.9 0 0 951.4 NA 0.0000 -SN BR 9999 0 0 0 3350
2017/06/28 09:53:00 BASE 15.24 6 16.98 12 0.9 100 0.9 0 0 951.3 NA 0.0000 -SN BR 9999 0 0 0 3640
2017/06/28 09:54:00 BASE 14.65 4 16.98 12 0.9 100 0.9 0 0 951.5 NA 0.0000 -SN BR 9000 0 0 0 3610
2017/06/28 09:55:00 BASE 13.87 4 16.98 12 0.9 100 0.9 0 0 951.5 NA 0.0000 -SN BR 9999 0 0 0 3640
2017/06/28 09:56:00 BASE 14.26 4 16.87 3 0.9 100 0.9 0 0 951.4 NA 0.0000 -SN BR 9999 0 0 0 3410
2017/06/28 09:57:00 BASE 14.06 3 16.87 3 0.8 100 0.8 0 0 951.5 NA 0.0000 -SN BR 9999 0 0 0 3710
2017/06/28 09:58:00 BASE 13.03 5 16.87 3 0.8 100 0.8 0 0 951.6 NA 0.0000 -SN 9999 0 0 0 3450
2017/06/28 09:59:00 BASE 12.92 3 16.72 7 0.8 100 0.8 0 0 951.6 NA 0.0000 -SN 9999 0 0 0 3610
2017/06/28 10:00:00 BASE 13.44 357 16.72 7 0.8 100 0.8 0 0 951.5 NA 0.0000 -SN 9999 0 0 0 2820
2017/06/28 10:01:00 BASE 13.10 351 16.72 7 0.8 100 0.8 0 0 951.6 NA 0.0000 -SN 9999 0 0 0 3050
2017/06/28 10:02:00 BASE 12.85 351 16.72 7 0.8 100 0.8 0 0 951.5 NA 0.0000 -SN 9999 0 0 0 3150
2017/06/28 10:03:00 BASE 13.14 357 16.72 7 0.8 100 0.8 0 0 951.5 NA 0.0000 -SN 9999 0 0 0 3050
2017/06/28 10:04:00 BASE 13.74 359 16.72 7 0.8 100 0.8 0 0 951.5 NA 0.0000 -SN 9999 0 0 0 3080
2017/06/28 10:05:00 BASE 14.34 360 15.84 3 0.8 100 0.8 0 0 951.4 NA 0.0000 -SN 9999 0 0 0 3080
2017/06/28 10:06:00 BASE 14.70 3 16.31 3 0.8 100 0.8 0 0 951.4 NA 0.0000 -SN 9999 0 0 0 3380
2017/06/28 10:07:00 BASE 14.91 2 16.31 3 0.8 100 0.8 0 0 951.3 NA 0.0000 -SN 9999 0 0 0 3510
2017/06/28 10:08:00 BASE 14.57 356 16.31 3 0.8 100 0.8 0 0 951.3 NA 0.0000 -SN 9999 0 0 0 3740
2017/06/28 10:09:00 BASE 14.77 359 16.31 3 0.8 100 0.8 0 0 951.3 NA 0.0000 -SN 9999 0 0 0 3840
2017/06/28 10:10:00 BASE 14.57 2 16.31 3 0.7 100 0.7 0 0 951.4 NA 0.0000 -SN 9999 0 0 0 3900
2017/06/28 10:11:00 BASE 13.82 360 16.31 3 0.7 100 0.7 0 0 951.4 NA 0.0000 -SN 9999 0 0 0 3510
2017/06/28 10:12:00 BASE 14.21 1 16.31 3 0.7 100 0.7 0 0 951.4 NA 0.0000 -SN 9999 0 0 0 2920
2017/06/28 10:13:00 BASE 14.48 1 16.31 3 0.7 100 0.7 0 0 951.3 NA 0.0000 -SN 9999 0 0 0 2530
2017/06/28 10:14:00 BASE 14.70 4 16.31 3 0.6 100 0.6 0 0 951.3 NA 0.0000 -SN 9000 0 0 0 2660
2017/06/28 10:15:00 BASE 15.03 5 16.31 3 0.6 100 0.6 0 0 951.2 NA 0.0000 -SN 9999 0 0 0 2590
2017/06/28 10:16:00 BASE 14.84 2 16.26 1 0.6 100 0.6 0 0 951.2 NA 0.0000 -SN 9999 0 0 0 2530
2017/06/28 10:17:00 BASE 14.04 1 16.26 1 0.6 100 0.6 0 0 951.2 NA 0.0000 -SN 9000 0 0 0 2460
2017/06/28 10:18:00 BASE 14.00 3 16.62 171 0.6 100 0.6 0 0 951.2 NA 0.0000 -SN 9999 0 0 0 2490
2017/06/28 10:19:00 BASE 14.68 360 16.62 1 0.6 100 0.6 0 0 951.1 NA 0.0000 -SN 7000 0 0 0 2460
2017/06/28 10:20:00 BASE 14.63 0 16.62 1 0.5 100 0.5 0 0 951.2 NA 0.0000 -SN BR 4500 0 0 0 2230
2017/06/28 10:21:00 BASE 13.99 4 16.62 1 0.5 100 0.5 0 0 951.2 NA 0.0000 -SN BR 4100 0 0 0 2070
2017/06/28 10:22:00 BASE 13.91 6 16.62 1 0.5 100 0.5 0 0 951.1 NA 0.0000 -SN BR 3800 0 0 0 2230
2017/06/28 10:23:00 BASE 14.43 3 16.62 1 0.5 100 0.5 0 0 951.1 NA 0.0000 -SN BR 3900 0 0 0 2430
2017/06/28 10:24:00 BASE 14.69 2 16.62 1 0.4 100 0.4 0 0 951.1 NA 0.0000 -SN BR 4000 0 0 0 2530
2017/06/28 10:25:00 BASE 15.06 4 16.67 3 0.4 100 0.4 0 0 951.1 NA 0.0000 -SN BR 4200 0 0 0 2430
2017/06/28 10:26:00 BASE 15.16 4 16.67 3 0.4 100 0.4 0 0 951.1 NA 0.0000 -SN BR 4700 0 0 0 2230
2017/06/28 10:27:00 BASE 14.56 4 16.67 3 0.4 100 0.4 0 0 951.1 NA 0.0000 -SN BR 6000 0 0 0 2030
2017/06/28 10:28:00 BASE 14.42 4 16.67 3 0.4 100 0.4 0 0 951.0 NA 0.0000 -SN BR 6000 0 0 0 2000
2017/06/28 10:29:00 BASE 14.45 3 16.67 3 0.4 100 0.4 0 0 951.1 NA 0.0000 -SN BR 6000 330 0 0 0
2017/06/28 10:30:00 BASE 14.55 4 16.67 3 0.4 100 0.4 0 0 951.0 NA 0.0000 -SN BR 5000 0 0 0 2230
2017/06/28 10:31:00 BASE 13.99 1 16.67 3 0.4 100 0.4 0 0 951.0 NA 0.0000 -SN BR 3600 0 0 0 2460
2017/06/28 10:32:00 BASE 13.71 1 16.67 3 0.4 100 0.4 0 0 951.0 NA 0.0000 -SN BR 3700 0 0 0 2490
2017/06/28 10:33:00 BASE 14.16 3 16.67 3 0.4 100 0.4 0 0 951.1 NA 0.0000 -SN BR 4300 0 0 0 2330
2017/06/28 10:34:00 BASE 14.24 4 16.67 3 0.4 100 0.4 0 0 951.0 NA 0.0000 -SN BR 5000 0 0 0 2260
2017/06/28 10:35:00 BASE 14.13 6 16.51 5 0.4 100 0.4 0 0 951.0 NA 0.0000 -SN BR 7000 0 0 0 2360
2017/06/28 10:36:00 BASE 14.60 5 16.82 2 0.4 100 0.4 0 0 950.9 NA 0.0000 -SN BR 8000 0 0 0 2620
2017/06/28 10:37:00 BASE 14.80 5 16.82 2 0.4 100 0.4 0 0 951.0 NA 0.0000 -SN BR 9999 0 0 0 2820
2017/06/28 10:38:00 BASE 13.67 5 16.82 2 0.4 100 0.4 0 0 950.9 NA 0.0000 -SN BR 9999 0 0 0 2590
2017/06/28 10:39:00 BASE 13.55 5 16.82 2 0.4 100 0.4 0 0 950.9 NA 0.0000 -SN BR 9000 0 0 0 2690
2017/06/28 10:40:00 BASE 14.16 5 16.82 2 0.4 100 0.4 0 0 950.9 NA 0.0000 -SN BR 8000 0 0 0 2920
2017/06/28 10:41:00 BASE 14.71 360 16.82 2 0.4 100 0.4 0 0 950.9 NA 0.0000 -SN BR 7000 0 0 0 3150
2017/06/28 10:42:00 BASE 14.39 359 16.82 2 0.4 100 0.4 0 0 950.9 NA 0.0000 -SN BR 7000 0 0 0 2990
2017/06/28 10:43:00 BASE 14.35 3 16.82 2 0.4 100 0.4 0 0 950.8 NA 0.0000 -SN BR 6000 0 0 0 2560
2017/06/28 10:44:00 BASE 14.73 4 16.82 2 0.4 100 0.4 0 0 950.8 NA 0.0000 -SN BR 5000 0 0 0 2490
2017/06/28 10:45:00 BASE 14.09 4 16.82 2 0.4 100 0.4 0 0 950.8 NA 0.0000 -SN BR 7000 0 0 0 2530
2017/06/28 10:46:00 BASE 14.05 4 16.26 2 0.4 100 0.4 0 0 950.8 NA 0.0000 -SN BR 9999 0 0 0 2330
2017/06/28 10:47:00 BASE 13.82 5 16.26 2 0.4 100 0.4 0 0 950.9 NA 0.0000 -SN BR 9999 460 0 0 0
2017/06/28 10:48:00 BASE 13.32 4 16.26 2 0.4 100 0.4 0 0 950.9 NA 0.0000 -SN BR 9999 0 0 0 2720
2017/06/28 10:49:00 BASE 13.40 3 16.26 2 0.4 100 0.4 0 0 950.9 NA 0.0000 -SN BR 9999 0 0 0 3050
2017/06/28 10:50:00 BASE 13.85 4 16.26 2 0.4 100 0.4 0 0 950.8 NA 0.0000 -SN BR 9999 0 0 0 3180
2017/06/28 10:51:00 BASE 14.58 6 16.26 2 0.4 100 0.4 0 0 950.8 NA 0.0000 -SN BR 9999 0 0 0 2820
2017/06/28 10:52:00 BASE 14.68 6 16.05 2 0.4 100 0.4 0 0 950.8 NA 0.0000 -SN BR 8000 0 0 0 2620
2017/06/28 10:53:00 BASE 14.12 3 16.00 1 0.4 100 0.4 0 0 950.8 NA 0.0000 -SN 9999 0 0 0 2790
2017/06/28 10:54:00 BASE 14.12 2 16.00 1 0.4 100 0.4 0 0 950.8 NA 0.0000 -SN 9000 0 0 0 2690
2017/06/28 10:55:00 BASE 14.34 359 16.00 1 0.4 100 0.4 0 0 950.8 NA 0.0000 -SN 6000 0 0 0 2620
2017/06/28 10:56:00 BASE 14.08 357 16.00 1 0.4 100 0.4 0 0 950.8 NA 0.0000 -SN 7000 0 0 0 2760
2017/06/28 10:57:00 BASE 14.02 357 16.00 1 0.4 100 0.4 0 0 950.8 NA 0.0000 -SN 9999 0 0 0 2130
2017/06/28 10:58:00 BASE 14.39 356 16.00 1 0.4 100 0.4 0 0 950.8 NA 0.0000 -SN 9999 0 0 0 2070
2017/06/28 10:59:00 BASE 14.72 360 16.00 1 0.4 100 0.4 0 0 950.8 NA 0.0000 -SN BR 7000 0 0 0 1800
2017/06/28 11:00:00 BASE 15.06 4 16.72 5 0.4 100 0.4 0 0 950.8 NA 0.0000 -SN BR 4800 0 0 0 1640
2017/06/28 11:01:00 BASE 15.10 3 16.72 5 0.4 100 0.4 0 0 950.8 NA 0.0000 -SN BR 6000 0 0 0 1610
2017/06/28 11:02:00 BASE 14.47 358 16.72 5 0.4 100 0.4 0 0 950.8 NA 0.0000 -SN BR 9999 0 0 0 1740
2017/06/28 11:03:00 BASE 14.23 357 16.72 5 0.4 100 0.4 0 0 950.8 NA 0.0000 -SN BR 9000 0 0 0 1770
2017/06/28 11:04:00 BASE 13.84 0 16.72 5 0.4 100 0.4 0 0 950.9 NA 0.0000 -SN BR 9000 0 0 0 1900
2017/06/28 11:05:00 BASE 13.91 359 16.72 5 0.4 100 0.4 0 0 950.8 NA 0.0000 -SN BR 9999 0 0 0 2200
2017/06/28 11:06:00 BASE 14.47 2 16.72 5 0.4 100 0.4 0 0 950.8 NA 0.0000 -SN BR 9999 0 0 0 2560
2017/06/28 11:07:00 BASE 14.43 1 16.72 5 0.4 100 0.4 0 0 950.8 NA 0.0000 -SN BR 9999 0 0 0 3580
2017/06/28 11:08:00 BASE 14.32 359 16.72 5 0.4 100 0.4 0 0 950.8 NA 0.0000 -SN BR 9999 0 0 0 3540
2017/06/28 11:09:00 BASE 13.88 2 16.72 5 0.4 100 0.4 0 0 950.9 NA 0.0000 -SN BR 9999 0 0 0 3280
2017/06/28 11:10:00 BASE 13.66 358 16.26 1 0.4 100 0.4 0 0 950.8 NA 0.0000 -SN 9999 0 0 0 3050
2017/06/28 11:11:00 BASE 14.00 1 16.26 1 0.4 100 0.4 0 0 950.8 NA 0.0000 -SN 9999 0 0 0 3180
2017/06/28 11:12:00 BASE 14.13 3 16.26 1 0.4 100 0.4 0 0 950.8 NA 0.0000 -SN 9999 0 0 0 3220
2017/06/28 11:13:00 BASE 14.15 1 16.26 1 0.4 100 0.4 0 0 950.8 NA 0.0000 -SN 9999 0 0 0 3310
2017/06/28 11:14:00 BASE 13.94 0 16.26 1 0.4 100 0.4 0 0 950.9 NA 0.0000 -SN 9999 0 0 0 3410
2017/06/28 11:15:00 BASE 13.93 4 16.26 1 0.4 100 0.4 0 0 950.9 NA 0.0000 -SN 9999 0 0 0 3540
2017/06/28 11:16:00 BASE 13.40 8 15.95 5 0.4 100 0.4 0 0 951.0 NA 0.0000 -SN 9999 0 0 0 3480
2017/06/28 11:17:00 BASE 12.78 359 15.54 350 0.4 100 0.4 0 0 951.0 NA 0.0000 -SN 9999 0 0 0 3480
2017/06/28 11:18:00 BASE 12.91 3 15.54 350 0.4 100 0.4 0 0 951.0 NA 0.0000 -SN 9999 0 0 0 3450
2017/06/28 11:19:00 BASE 12.81 11 15.54 350 0.4 100 0.4 0 0 951.0 NA 0.0000 -SN 9999 0 0 0 3250
2017/06/28 11:20:00 BASE 12.40 357 15.43 1 0.4 100 0.4 0 0 951.0 NA 0.0000 -SN 9999 0 0 0 3080
2017/06/28 11:21:00 BASE 12.84 355 15.43 1 0.4 100 0.4 0 0 951.0 NA 0.0000 -SN 9999 0 0 0 2820
2017/06/28 11:22:00 BASE 13.55 347 15.43 1 0.4 100 0.4 0 0 951.0 NA 0.0000 -SN 9999 0 0 0 2760
2017/06/28 11:23:00 BASE 13.72 343 15.33 351 0.4 100 0.4 0 0 950.9 NA 0.0000 -SN 9999 0 0 0 2590
2017/06/28 11:24:00 BASE 13.92 353 15.38 3 0.4 100 0.4 0 0 950.9 NA 0.0000 -SN 9999 0 0 0 2660
2017/06/28 11:25:00 BASE 13.07 351 15.38 3 0.3 100 0.3 0 0 951.0 NA 0.0000 -SN 9999 0 0 0 2660
2017/06/28 11:26:00 BASE 12.93 351 15.43 352 0.3 100 0.3 0 0 951.0 NA 0.0000 -SN 9999 0 0 0 2720
2017/06/28 11:27:00 BASE 13.79 352 15.43 352 0.3 100 0.3 0 0 950.9 NA 0.0000 -SN 9999 0 0 0 2690
2017/06/28 11:28:00 BASE 13.90 354 15.43 352 0.3 100 0.3 0 0 950.9 NA 0.0000 -SN 9999 0 0 0 2760
2017/06/28 11:29:00 BASE 13.69 356 15.43 352 0.3 100 0.3 0 0 950.9 NA 0.0000 -SN 9999 0 0 0 2560
2017/06/28 11:30:00 BASE 13.62 356 15.43 352 0.3 100 0.3 0 0 950.9 NA 0.0000 -SN 9999 330 0 0 0
2017/06/28 11:31:00 BASE 13.16 354 15.43 352 0.3 100 0.3 0 0 950.9 NA 0.0000 -SN 9999 300 0 0 0
2017/06/28 11:32:00 BASE 13.12 347 15.43 352 0.3 100 0.3 0 0 950.9 NA 0.0000 -SN 9999 300 0 0 0
2017/06/28 11:33:00 BASE 13.68 341 15.43 352 0.3 100 0.3 0 0 950.8 NA 0.0000 -SN 9999 300 0 0 0
2017/06/28 11:34:00 BASE 14.22 347 15.48 351 0.3 100 0.3 0 0 950.8 NA 0.0000 -SN 9999 260 0 0 0
2017/06/28 11:35:00 BASE 14.21 349 15.48 351 0.3 100 0.3 0 0 950.9 NA 0.0000 -SN 9999 260 0 0 0
2017/06/28 11:36:00 BASE 13.73 344 15.48 351 0.3 100 0.3 0 0 950.8 NA 0.0000 -SN 9999 260 0 0 0
2017/06/28 11:37:00 BASE 14.09 344 15.48 351 0.3 100 0.3 0 0 950.8 NA 0.0000 -SN 9999 260 0 0 0
2017/06/28 11:38:00 BASE 13.99 345 15.48 351 0.3 100 0.3 0 0 950.8 NA 0.0000 -SN 9999 0 0 0 2260
2017/06/28 11:39:00 BASE 13.31 344 15.48 351 0.3 100 0.3 0 0 950.8 NA 0.0000 -SN 9999 300 0 0 0
2017/06/28 11:40:00 BASE 12.86 347 15.48 351 0.3 100 0.3 0 0 950.8 NA 0.0000 -SN 9999 0 0 0 2100
2017/06/28 11:41:00 BASE 12.84 347 15.48 351 0.3 100 0.3 0 0 950.8 NA 0.0000 -SN 9999 0 0 0 1900
2017/06/28 11:42:00 BASE 13.20 347 15.48 351 0.3 100 0.2 0 0 950.8 NA 0.0000 -SN 9999 300 0 0 0
2017/06/28 11:43:00 BASE 13.76 350 15.48 351 0.2 100 0.2 0 0 950.8 NA 0.0000 -SN 9999 0 0 0 2260
2017/06/28 11:44:00 BASE 14.67 351 16.51 351 0.2 100 0.2 0 0 950.7 NA 0.0000 -SN 9999 0 0 0 2300
2017/06/28 11:45:00 BASE 15.41 347 16.51 211 0.2 100 0.2 0 0 950.6 NA 0.0000 -SN 9999 0 0 0 2200
2017/06/28 11:46:00 BASE 15.21 350 16.51 211 0.3 100 0.3 0 0 950.6 NA 0.0000 -SN 9999 950 0 0 0
2017/06/28 11:47:00 BASE 14.56 347 16.51 211 0.3 100 0.3 0 0 950.7 NA 0.0000 -SN 9999 260 0 0 0
2017/06/28 11:48:00 BASE 14.53 345 16.51 211 0.3 100 0.3 0 0 950.7 NA 0.0000 -SN 9999 230 0 0 0
2017/06/28 11:49:00 BASE 14.43 350 16.51 211 0.3 100 0.3 0 0 950.7 NA 0.2540 -SN 9999 230 0 0 0
2017/06/28 11:50:00 BASE 14.50 350 16.51 211 0.3 100 0.3 0 0 950.6 NA 0.0000 -SN 9999 230 0 0 0
2017/06/28 11:51:00 BASE 14.33 350 16.51 211 0.2 100 0.2 0 0 950.7 NA 0.0000 -SN 9999 260 0 0 0
2017/06/28 11:52:00 BASE 13.57 348 16.51 211 0.2 100 0.2 0 0 950.8 NA 0.0000 -SN 9999 0 0 0 2170
2017/06/28 11:53:00 BASE 12.96 346 16.51 211 0.2 100 0.2 0 0 950.8 NA 0.0000 -SN 9999 0 0 0 2330
2017/06/28 11:54:00 BASE 13.29 346 16.51 211 0.2 100 0.2 0 0 950.8 NA 0.0000 -SN 9999 0 0 0 2400
2017/06/28 11:55:00 BASE 13.92 348 16.10 345 0.2 100 0.2 0 0 950.8 NA 0.0000 -SN 9999 300 0 0 0
2017/06/28 11:56:00 BASE 13.83 345 15.74 349 0.2 100 0.2 0 0 950.8 NA 0.0000 -SN 9999 0 0 0 2330
2017/06/28 11:57:00 BASE 13.92 342 15.74 349 0.2 100 0.2 0 0 950.8 NA 0.0000 -SN 9999 0 0 0 2460
2017/06/28 11:58:00 BASE 13.75 343 15.64 108 0.2 100 0.2 0 0 950.9 NA 0.0000 -SN 9999 0 0 0 2230
2017/06/28 11:59:00 BASE 13.45 345 15.64 108 0.2 100 0.2 0 0 950.9 NA 0.0000 -SN 9999 0 0 0 2100
2017/06/28 12:00:00 BASE 12.72 346 15.18 350 0.2 100 0.2 0 0 951.0 NA 0.0000 -SN 9999 0 0 0 2130
2017/06/28 12:01:00 BASE 12.17 345 15.18 350 0.2 100 0.2 0 0 951.0 NA 0.0000 -SN 9999 260 0 0 0
2017/06/28 12:02:00 BASE 12.84 342 15.18 350 0.2 100 0.2 0 0 951.0 NA 0.0000 -SN 9999 260 0 0 0
2017/06/28 12:03:00 BASE 13.16 339 15.18 350 0.2 100 0.2 0 0 951.0 NA 0.0000 -SN 9999 230 0 0 0
2017/06/28 12:04:00 BASE 12.53 339 15.12 340 0.2 100 0.2 0 0 951.1 NA 0.0000 -SN 9999 260 0 0 0
2017/06/28 12:05:00 BASE 12.47 339 15.12 340 0.2 100 0.2 0 0 951.1 NA 0.0000 -SN 9999 260 0 0 0
2017/06/28 12:06:00 BASE 12.25 341 15.12 340 0.2 100 0.2 0 0 951.1 NA 0.0000 -SN 9999 260 0 0 0
2017/06/28 12:07:00 BASE 11.96 340 14.92 352 0.2 100 0.2 0 0 951.1 NA 0.0000 -SN 9999 260 0 0 0
2017/06/28 12:08:00 BASE 11.99 342 14.92 352 0.2 100 0.2 0 0 951.1 NA 0.0000 -SN 9999 260 0 0 0
2017/06/28 12:09:00 BASE 12.03 341 14.76 345 0.2 100 0.2 0 0 951.1 NA 0.0000 9999 260 0 0 0
2017/06/28 12:10:00 BASE 11.87 337 14.76 345 0.2 100 0.2 0 0 951.2 NA 0.0000 9999 260 0 0 0
2017/06/28 12:11:00 BASE 11.86 338 14.76 345 0.2 100 0.2 0 0 951.2 NA 0.0000 9999 230 0 0 0
2017/06/28 12:12:00 BASE 12.10 338 14.15 330 0.2 100 0.2 0 0 951.2 NA 0.0000 9999 230 0 0 0
2017/06/28 12:13:00 BASE 11.81 337 14.15 330 0.2 100 0.2 0 0 951.2 NA 0.0000 9999 260 0 0 0
2017/06/28 12:14:00 BASE 11.30 336 14.15 330 0.2 100 0.2 0 0 951.3 NA 0.0000 9999 230 0 0 0
2017/06/28 12:15:00 BASE 10.58 334 14.15 330 0.1 100 0.1 0 0 951.3 NA 0.0000 9999 260 0 0 0
2017/06/28 12:16:00 BASE 9.97 332 14.15 330 0.1 100 0.1 0 0 951.4 NA 0.0000 9999 260 0 0 0
2017/06/28 12:17:00 BASE 10.30 334 13.63 328 0.1 100 0.1 0 0 951.4 NA 0.0000 9999 300 0 0 0
2017/06/28 12:18:00 BASE 10.31 335 13.63 328 0.1 100 0.1 0 0 951.4 NA 0.0000 9999 300 0 0 0
2017/06/28 12:19:00 BASE 10.08 333 13.63 328 0.1 100 0.1 0 0 951.4 NA 0.0000 9999 300 0 0 0
2017/06/28 12:20:00 BASE 10.45 332 13.63 328 0.1 100 0.1 0 0 951.4 NA 0.0000 9999 230 0 0 0
2017/06/28 12:21:00 BASE 10.20 334 13.63 328 0.1 100 0.1 0 0 951.5 NA 0.0000 9999 200 0 0 0
2017/06/28 12:22:00 BASE 10.77 338 13.63 328 0.1 100 0.1 0 0 951.4 NA 0.0000 9999 200 0 0 0
2017/06/28 12:23:00 BASE 11.63 338 12.81 340 0.1 100 0.1 0 0 951.3 NA 0.0000 9999 0 0 0 1180
2017/06/28 12:24:00 BASE 10.52 336 12.81 340 0.1 100 0.1 0 0 951.5 NA 0.0000 9999 200 0 0 0
2017/06/28 12:25:00 BASE 9.61 333 12.81 340 0.1 100 0.1 0 0 951.4 NA 0.0000 9999 0 0 0 1480
2017/06/28 12:26:00 BASE 10.12 335 12.81 340 0.1 100 0.1 0 0 951.4 NA 0.0000 9999 0 0 0 1540
2017/06/28 12:27:00 BASE 10.18 335 12.81 340 0.1 100 0.1 0 0 951.5 NA 0.0000 9999 0 0 0 1770
2017/06/28 12:28:00 BASE 9.87 334 12.81 340 0.1 100 0.1 0 0 951.5 NA 0.0000 9999 0 0 0 1900
2017/06/28 12:29:00 BASE 10.05 335 12.81 340 0.1 100 0.1 0 0 951.5 NA 0.0000 9999 0 0 0 1840
2017/06/28 12:30:00 BASE 10.23 333 12.81 340 0.1 100 0.1 0 0 951.5 NA 0.0000 9999 300 0 0 0
2017/06/28 12:31:00 BASE 10.04 332 12.81 340 0.1 100 0.1 0 0 951.6 NA 0.0000 9999 230 0 0 0
2017/06/28 12:32:00 BASE 9.61 333 12.81 340 0.1 100 0.1 0 0 951.6 NA 0.0000 9999 260 0 0 0
2017/06/28 12:33:00 BASE 9.13 333 11.88 349 0.1 100 0.1 0 0 951.7 NA 0.0000 9999 0 0 0 1870
2017/06/28 12:34:00 BASE 9.38 331 11.88 349 0.1 100 0.1 0 0 951.7 NA 0.0000 -SN 9999 0 0 0 1840
2017/06/28 12:35:00 BASE 9.42 331 11.88 349 0.1 100 0.1 0 0 951.7 NA 0.0000 -SN 9999 260 0 0 0
2017/06/28 12:36:00 BASE 9.08 332 11.88 349 0.1 100 0.1 0 0 951.7 NA 0.0000 -SN 9999 0 0 0 1870
2017/06/28 12:37:00 BASE 9.28 329 11.88 349 0.1 100 0.1 0 0 951.7 NA 0.0000 -SN 9999 890 0 0 0
2017/06/28 12:38:00 BASE 9.64 328 11.21 330 0.1 100 0.1 0 0 951.7 NA 0.0000 -SN 9999 260 0 0 0
2017/06/28 12:39:00 BASE 10.00 326 11.27 326 0.1 100 0.1 0 0 951.7 NA 0.0000 -SN 9999 230 0 0 0
2017/06/28 12:40:00 BASE 10.10 322 11.27 326 0.0 100 0.0 0 0 951.8 NA 0.0000 -SN 9999 200 0 0 0
2017/06/28 12:41:00 BASE 9.89 322 11.27 326 -0.0 100 -0.0 0 0 951.8 NA 0.0000 -SN 9999 230 0 0 0
2017/06/28 12:42:00 BASE 9.85 322 11.27 326 -0.1 100 -0.1 0 0 951.8 NA 0.0000 -SN 9999 200 0 0 0
2017/06/28 12:43:00 BASE 10.02 318 11.27 326 -0.1 100 -0.1 0 0 951.8 NA 0.0000 -SN 9999 0 0 0 1800
2017/06/28 12:44:00 BASE 10.08 317 11.27 326 -0.1 100 -0.1 0 0 951.8 NA 0.0000 -SN 9999 0 0 0 1710
2017/06/28 12:45:00 BASE 9.94 317 11.27 326 -0.1 100 -0.1 0 0 951.8 NA 0.2540 -SN 9999 0 0 0 1640
2017/06/28 12:46:00 BASE 9.89 317 11.27 326 -0.1 100 -0.1 0 0 951.9 NA 0.0000 -SN 7000 0 0 0 1480
2017/06/28 12:47:00 BASE 10.13 317 12.04 317 -0.1 100 -0.1 0 0 951.8 NA 0.0000 -SN 8000 0 0 0 1350
2017/06/28 12:48:00 BASE 10.45 317 12.04 317 -0.2 100 -0.2 0 0 951.9 NA 0.0000 -SN 8000 0 0 0 1050
2017/06/28 12:49:00 BASE 10.00 311 12.04 317 -0.2 100 -0.2 0 0 951.9 NA 0.0000 -SN 6000 0 0 0 980
2017/06/28 12:50:00 BASE 8.61 299 12.04 317 -0.3 100 -0.3 0 0 952.0 NA 0.0000 -SN BR 3400 0 0 0 1210
2017/06/28 12:51:00 BASE 7.33 282 12.04 317 -0.4 100 -0.4 0 0 952.1 NA 0.0000 -SN BR 2100 200 0 0 0
2017/06/28 12:52:00 BASE 6.39 260 12.04 317 -0.5 100 -0.5 0 0 952.1 NA 0.0000 -SN BR 2000 230 0 0 0
2017/06/28 12:53:00 BASE 6.35 244 12.04 317 -0.6 100 -0.6 0 0 952.1 NA 0.0000 -SN BR 2500 230 0 0 0
2017/06/28 12:54:00 BASE 7.46 237 12.04 317 -0.7 100 -0.7 0 0 952.2 NA 0.0000 -SN BR 3100 230 0 0 0
2017/06/28 12:55:00 BASE 8.11 236 12.04 317 -0.8 100 -0.8 0 0 952.2 NA 0.0000 -SN BR 3200 260 0 0 0
2017/06/28 12:56:00 BASE 7.89 237 12.04 317 -0.9 100 -0.9 0 0 952.2 NA 0.0000 -SN BR 3600 260 0 0 0
2017/06/28 12:57:00 BASE 6.88 244 11.78 318 -1.0 100 -1.0 0 0 952.3 NA 0.0000 -SN BR 3800 260 0 0 0
2017/06/28 12:58:00 BASE 6.18 246 10.34 312 -1.1 100 -1.1 0 0 952.4 NA 0.0000 -SN BR 3700 230 0 0 0
2017/06/28 12:59:00 BASE 5.90 248 9.52 242 -1.1 100 -1.1 0 0 952.4 NA 0.0000 -SN BR 3400 200 0 0 0
2017/06/28 13:00:00 BASE 5.44 252 9.52 242 -1.1 100 -1.1 0 0 952.4 NA 0.0000 -SN BR 3200 200 0 0 0
2017/06/28 13:01:00 BASE 5.44 252 9.52 242 -1.1 100 -1.1 0 0 952.4 NA 0.0000 -SN BR 3100 0 0 0 1510
2017/06/28 13:02:00 BASE 5.52 255 9.52 242 -1.1 100 -1.1 0 0 952.4 NA 0.0000 -SN BR 3000 0 0 0 1440
2017/06/28 13:03:00 BASE 5.46 259 9.52 242 -1.1 100 -1.1 0 0 952.4 NA 0.0000 -SN BR 3200 0 0 0 1480
2017/06/28 13:04:00 BASE 5.12 261 9.52 242 -1.1 100 -1.1 0 0 952.4 NA 0.0000 -SN BR 3300 0 0 0 1440
2017/06/28 13:05:00 BASE 4.87 265 8.69 242 -1.1 100 -1.1 0 0 952.4 NA 0.0000 -SN BR 3400 0 0 0 1480
2017/06/28 13:06:00 BASE 4.99 271 8.03 249 -1.1 100 -1.1 0 0 952.4 NA 0.0000 -SN BR 3400 0 0 0 1280
2017/06/28 13:07:00 BASE 4.75 274 7.51 247 -1.1 100 -1.1 0 0 952.4 NA 0.0000 -SN BR 3500 0 0 0 1120
2017/06/28 13:08:00 BASE 4.74 278 6.38 253 -1.1 100 -1.1 0 0 952.4 NA 0.0000 -SN BR 4200 0 0 0 850
2017/06/28 13:09:00 BASE 4.88 283 6.38 253 -1.1 100 -1.1 0 0 952.4 NA 0.0000 -SN BR 4700 0 0 0 750
2017/06/28 13:10:00 BASE 4.97 289 6.38 253 -1.1 100 -1.1 0 0 952.4 NA 0.0000 -SN BR 5000 0 0 0 720
2017/06/28 13:11:00 BASE 4.98 290 6.28 274 -1.1 100 -1.1 0 0 952.4 NA 0.0000 -SN BR 5000 0 0 0 790
2017/06/28 13:12:00 BASE 4.62 288 5.81 259 -1.1 100 -1.1 0 0 952.5 NA 0.0000 -SN BR 4700 0 0 0 750
2017/06/28 13:13:00 BASE 4.66 288 5.76 299 -1.1 100 -1.1 0 0 952.5 NA 0.0000 -SN BR 4800 0 0 0 750
2017/06/28 13:14:00 BASE 4.77 291 5.76 299 -1.1 100 -1.1 0 0 952.5 NA 0.0000 -SN BR 4200 0 0 0 720
2017/06/28 13:15:00 BASE 4.80 295 5.76 299 -1.1 100 -1.1 0 0 952.5 NA 0.0000 -SN BR 4300 0 0 0 720
2017/06/28 13:16:00 BASE 4.84 296 5.76 299 -1.1 100 -1.1 0 0 952.5 NA 0.0000 -SN BR 4700 0 0 0 660
2017/06/28 13:17:00 BASE 5.15 296 5.81 301 -1.1 100 -1.1 0 0 952.5 NA 0.0000 -SN BR 4700 0 0 0 620
2017/06/28 13:18:00 BASE 5.06 297 5.81 301 -1.1 100 -1.1 0 0 952.6 NA 0.0000 -SN BR 4600 0 0 0 690
2017/06/28 13:19:00 BASE 4.90 300 5.81 301 -1.1 100 -1.1 0 0 952.6 NA 0.0000 -SN BR 4900 0 0 0 720
2017/06/28 13:20:00 BASE 5.02 298 5.81 301 -1.1 100 -1.1 0 0 952.7 NA 0.0000 -SN BR 5000 0 0 0 720
2017/06/28 13:21:00 BASE 5.06 294 5.81 301 -1.1 100 -1.1 0 0 952.7 NA 0.0000 -SN BR 4700 0 0 0 750
2017/06/28 13:22:00 BASE 5.01 287 5.81 301 -1.1 100 -1.1 0 0 952.7 NA 0.0000 -SN BR 4100 0 0 0 720
2017/06/28 13:23:00 BASE 5.00 281 5.97 280 -1.1 100 -1.1 0 0 952.7 NA 0.0000 -SN BR 3600 0 0 0 720
2017/06/28 13:24:00 BASE 4.95 280 5.97 280 -1.1 100 -1.1 0 0 952.7 NA 0.0000 -SN BR 3600 0 0 0 790
2017/06/28 13:25:00 BASE 4.48 281 5.97 280 -1.1 100 -1.1 0 0 952.7 NA 0.0000 -SN BR 3500 0 0 0 750
2017/06/28 13:26:00 BASE 4.70 281 5.97 280 -1.1 100 -1.1 0 0 952.7 NA 0.0000 -SN BR 3400 0 0 0 790
2017/06/28 13:27:00 BASE 5.23 276 6.38 266 -1.1 100 -1.1 0 0 952.7 NA 0.0000 -SN BR 3300 0 0 0 820
2017/06/28 13:28:00 BASE 5.43 272 6.43 265 -1.1 100 -1.1 0 0 952.7 NA 0.0000 -SN BR 3500 0 0 0 790
2017/06/28 13:29:00 BASE 5.21 272 6.43 265 -1.1 100 -1.1 0 0 952.8 NA 0.0000 -SN BR 3400 0 0 0 820
2017/06/28 13:30:00 BASE 5.00 270 6.43 265 -1.1 100 -1.1 0 0 952.8 NA 0.0000 -SN BR 3200 0 0 0 790
2017/06/28 13:31:00 BASE 4.76 268 6.43 265 -1.1 100 -1.2 0 0 952.9 NA 0.0000 -SN BR 3100 0 0 0 720
2017/06/28 13:32:00 BASE 4.37 271 6.43 265 -1.2 100 -1.2 0 0 952.9 NA 0.0000 -SN BR 3200 0 0 0 720
2017/06/28 13:33:00 BASE 4.42 271 6.43 265 -1.2 100 -1.2 0 0 952.9 NA 0.0000 -SN BR 3400 0 0 0 790
2017/06/28 13:34:00 BASE 4.54 272 6.43 265 -1.2 100 -1.2 0 0 952.9 NA 0.0000 -SN BR 3500 0 0 0 790
2017/06/28 13:35:00 BASE 4.55 274 6.43 265 -1.2 100 -1.2 0 0 952.9 NA 0.0000 -SN BR 3600 0 0 0 790
2017/06/28 13:36:00 BASE 4.60 274 6.43 265 -1.2 100 -1.2 0 0 952.9 NA 0.0000 -SN BR 3700 0 0 0 850
2017/06/28 13:37:00 BASE 4.40 272 6.43 265 -1.2 100 -1.2 0 0 952.9 NA 0.0000 -SN BR 3800 0 0 0 690
2017/06/28 13:38:00 BASE 4.01 272 5.71 269 -1.2 100 -1.2 0 0 952.9 NA 0.0000 -SN BR 3700 0 0 0 820
2017/06/28 13:39:00 BASE 3.98 275 5.61 268 -1.2 100 -1.2 0 0 952.9 NA 0.0000 -SN BR 3600 0 0 0 750
2017/06/28 13:40:00 BASE 4.32 280 5.56 276 -1.2 100 -1.2 0 0 952.9 NA 0.0000 -SN BR 3700 0 0 0 720
2017/06/28 13:41:00 BASE 5.33 288 8.54 278 -1.2 100 -1.2 0 0 952.9 NA 0.2540 -SN BR 4400 0 0 0 720
2017/06/28 13:42:00 BASE 6.70 286 8.54 278 -1.2 100 -1.2 0 0 952.8 NA 0.0000 -SN BR 5000 0 0 0 750
2017/06/28 13:43:00 BASE 7.47 280 8.85 286 -1.2 100 -1.2 0 0 952.9 NA 0.0000 -SN BR 6000 0 0 0 790
2017/06/28 13:44:00 BASE 6.96 270 8.85 286 -1.3 100 -1.3 0 0 952.9 NA 0.0000 -SN BR 6000 0 0 0 660
2017/06/28 13:45:00 BASE 6.58 258 8.85 286 -1.4 100 -1.4 0 0 952.9 NA 0.0000 -SN BR 4400 0 0 0 920
2017/06/28 13:46:00 BASE 7.22 254 8.85 286 -1.5 100 -1.5 0 0 952.9 NA 0.0000 -SN BR 3800 0 0 0 980
2017/06/28 13:47:00 BASE 7.10 248 8.85 286 -1.6 100 -1.6 0 0 952.9 NA 0.0000 -SN BR 3700 0 0 0 1020
2017/06/28 13:48:00 BASE 6.84 246 9.41 239 -1.6 100 -1.6 0 0 952.9 NA 0.0000 -SN BR 3900 0 0 0 1020
2017/06/28 13:49:00 BASE 7.55 244 9.72 241 -1.7 100 -1.7 0 0 953.0 NA 0.0000 -SN BR 4000 0 0 0 980
2017/06/28 13:50:00 BASE 7.89 238 9.72 241 -1.8 100 -1.8 0 0 953.0 NA 0.0000 -SN BR 3600 0 0 0 950
2017/06/28 13:51:00 BASE 8.14 232 10.19 228 -1.8 100 -1.8 0 0 953.0 NA 0.0000 -SN BR 3300 0 0 0 920
2017/06/28 13:52:00 BASE 8.57 226 10.19 228 -1.8 100 -1.8 0 0 953.0 NA 0.0000 -SN BR 3400 0 0 0 1120
2017/06/28 13:53:00 BASE 8.87 226 10.60 229 -1.8 100 -1.8 0 0 953.1 NA 0.0000 -SN BR 3500 0 0 0 1250
2017/06/28 13:54:00 BASE 8.84 229 10.60 229 -1.8 100 -1.8 0 0 953.1 NA 0.0000 -SN BR 3700 200 0 0 0
2017/06/28 13:55:00 BASE 9.25 230 10.60 229 -1.9 100 -1.9 0 0 953.1 NA 0.0000 -SN BR 3700 0 0 0 1180
2017/06/28 13:56:00 BASE 9.43 231 10.60 229 -1.9 100 -1.9 0 0 953.2 NA 0.0000 -SN BR 3700 0 0 0 1080
2017/06/28 13:57:00 BASE 8.39 232 10.60 229 -2.0 100 -2.0 0 0 953.3 NA 0.0000 -SN BR 3600 0 0 0 1150
2017/06/28 13:58:00 BASE 7.71 232 10.60 229 -2.0 100 -2.0 0 0 953.3 NA 0.0000 -SN BR 3600 0 0 0 1050
2017/06/28 13:59:00 BASE 7.29 233 10.60 229 -2.0 100 -2.0 0 0 953.3 NA 0.0000 -SN BR 3800 200 0 0 0
2017/06/28 14:00:00 BASE 7.30 234 10.60 229 -1.9 100 -1.9 0 0 953.3 NA 0.0000 -SN BR 3800 0 0 0 1020
2017/06/28 14:01:00 BASE 7.58 233 10.60 229 -1.9 100 -1.9 0 0 953.4 NA 0.0000 -SN BR 3500 0 0 0 850
2017/06/28 14:02:00 BASE 7.16 232 10.60 229 -1.9 100 -1.9 0 0 953.4 NA 0.0000 -SN BR 3300 0 0 0 790
2017/06/28 14:03:00 BASE 7.06 228 10.44 230 -1.9 100 -1.9 0 0 953.5 NA 0.0000 -SN BR 3200 0 0 0 890
2017/06/28 14:04:00 BASE 7.41 227 10.44 230 -1.9 100 -1.9 0 0 953.5 NA 0.0000 -SN BR 3100 0 0 0 1020
2017/06/28 14:05:00 BASE 6.97 231 9.93 237 -1.9 100 -1.9 0 0 953.5 NA 0.0000 -SN BR 3200 0 0 0 690
2017/06/28 14:06:00 BASE 6.18 238 8.95 227 -1.9 100 -1.9 0 0 953.5 NA 0.0000 -SN BR 3100 0 0 0 720
2017/06/28 14:07:00 BASE 7.04 238 8.85 237 -2.0 100 -2.0 0 0 953.5 NA 0.0000 -SN BR 3400 0 0 0 850
2017/06/28 14:08:00 BASE 7.75 235 8.85 237 -2.0 100 -2.0 0 0 953.5 NA 0.0000 -SN BR 3600 0 0 0 950
2017/06/28 14:09:00 BASE 7.08 237 8.85 237 -2.0 100 -2.0 0 0 953.5 NA 0.0000 -SN BR 3400 0 0 0 850
2017/06/28 14:10:00 BASE 6.66 241 8.85 237 -2.0 100 -2.0 0 0 953.5 NA 0.0000 -SN BR 3400 0 0 0 850
2017/06/28 14:11:01 BASE 6.11 245 8.85 237 -2.0 100 -2.0 0 0 953.6 NA 0.0000 -SN BR 3500 0 0 0 850
2017/06/28 14:12:00 BASE 5.44 247 8.85 237 -2.0 100 -2.0 0 0 953.6 NA 0.0000 -SN BR 3500 0 0 0 820
2017/06/28 14:13:00 BASE 5.68 244 8.85 237 -2.0 100 -2.0 0 0 953.6 NA 0.0000 -SN BR 3600 0 0 0 890
2017/06/28 14:14:00 BASE 7.28 243 9.41 237 -2.0 100 -2.0 0 0 953.6 NA 0.0000 -SN BR 3500 0 0 0 890
2017/06/28 14:15:00 BASE 8.40 241 9.57 239 -2.0 100 -2.0 1 0 953.6 NA 0.0000 -SN BR 3500 0 0 0 980
2017/06/28 14:16:00 BASE 7.91 239 9.57 239 -2.1 100 -2.1 1 0 953.6 NA 0.0000 -SN BR 3500 0 0 0 980
2017/06/28 14:17:00 BASE 7.79 239 9.57 239 -2.1 100 -2.1 1 0 953.6 NA 0.0000 -SN BR 3500 0 0 0 980
2017/06/28 14:18:00 BASE 8.35 237 9.57 239 -2.1 100 -2.1 1 0 953.6 NA 0.0000 -SN BR 3400 0 0 0 1020
2017/06/28 14:19:00 BASE 8.49 236 9.57 239 -2.1 100 -2.1 1 0 953.5 NA 0.0000 -SN BR 3400 0 0 0 1050
2017/06/28 14:20:00 BASE 8.68 236 9.57 239 -2.2 100 -2.2 1 0 953.5 NA 0.0000 -SN BR 1800 0 0 0 1020
2017/06/28 14:21:00 BASE 8.33 235 9.57 239 -2.2 100 -2.2 1 0 953.6 NA 0.0000 -SN BR 1600 0 0 0 980
2017/06/28 14:22:00 BASE 7.43 234 9.57 239 -2.2 100 -2.2 1 0 953.6 NA 0.0000 -SN BR 1500 0 0 0 1210
2017/06/28 14:23:00 BASE 7.04 234 9.57 239 -2.1 100 -2.1 1 0 953.6 NA 0.0000 -SN BR 1600 0 0 0 1570
2017/06/28 14:24:00 BASE 7.68 235 9.57 239 -2.1 100 -2.1 1 0 953.6 NA 0.0000 -SN BR 1800 0 0 0 1610
2017/06/28 14:25:00 BASE 8.14 236 9.21 239 -2.1 100 -2.1 1 0 953.6 NA 0.0000 -SN BR 1800 0 0 0 1510
2017/06/28 14:26:00 BASE 7.65 236 9.21 239 -2.1 100 -2.1 1 0 953.6 NA 0.0000 -SN BR 1600 0 0 0 1180
2017/06/28 14:27:00 BASE 7.40 235 9.21 239 -2.1 100 -2.1 1 0 953.6 NA 0.0000 -SN BR 1600 0 0 0 980
2017/06/28 14:28:00 BASE 7.17 238 9.21 239 -2.1 100 -2.1 1 0 953.7 NA 0.0000 -SN BR 1600 0 0 0 950
2017/06/28 14:29:00 BASE 6.54 240 9.21 239 -2.0 100 -2.0 1 0 953.7 NA 0.0000 -SN BR 1400 0 0 0 720
2017/06/28 14:30:00 BASE 6.05 238 9.05 232 -2.0 100 -2.0 1 0 953.8 NA 0.0000 -SN BR 1500 0 0 0 720
2017/06/28 14:31:00 BASE 5.78 237 9.05 232 -2.0 100 -2.0 1 0 953.8 NA 0.0000 -SN BR 1300 0 0 0 820
2017/06/28 14:32:00 BASE 5.59 240 9.05 232 -2.0 100 -2.0 1 0 953.8 NA 0.0000 -SN BR 1500 0 0 0 1120
2017/06/28 14:33:00 BASE 5.76 243 9.05 232 -2.0 100 -2.0 1 0 953.7 NA 0.0000 -SN BR 1700 0 0 0 1050
2017/06/28 14:34:00 BASE 6.09 239 8.75 232 -2.0 100 -2.0 1 0 953.7 NA 0.0000 -SN BR 1900 0 0 0 980
2017/06/28 14:35:00 BASE 5.95 239 8.64 237 -2.1 100 -2.1 1 0 953.7 NA 0.0000 -SN BR 2100 0 0 0 1050
2017/06/28 14:36:00 BASE 6.01 240 8.39 234 -2.1 100 -2.1 1 0 953.7 NA 0.0000 -SN BR 2200 0 0 0 890
2017/06/28 14:37:00 BASE 6.33 238 7.97 237 -2.1 100 -2.1 1 0 953.7 NA 0.0000 -SN BR 2100 0 0 0 980
2017/06/28 14:38:00 BASE 6.05 237 7.36 235 -2.1 100 -2.1 1 0 953.8 NA 0.0000 -SN BR 2000 0 0 0 1020
2017/06/28 14:39:00 BASE 6.34 235 8.49 238 -2.1 100 -2.1 1 0 953.8 NA 0.0000 -SN BR 1900 0 0 0 1280
2017/06/28 14:40:00 BASE 8.20 235 10.34 236 -2.1 100 -2.1 1 0 953.7 NA 0.0000 -SN BR 2000 0 0 0 1250
2017/06/28 14:41:00 BASE 9.05 236 10.34 236 -2.2 100 -2.2 1 0 953.7 NA 0.0000 -SN BR 2300 0 0 0 1350
2017/06/28 14:42:00 BASE 8.76 236 10.34 236 -2.2 100 -2.2 1 0 953.8 NA 0.0000 -SN BR 2200 0 0 0 1480
2017/06/28 14:43:00 BASE 7.99 237 10.34 236 -2.3 100 -2.3 1 0 953.8 NA 0.0000 -SN BR 2000 0 0 0 1540
2017/06/28 14:44:00 BASE 7.01 239 10.34 236 -2.3 100 -2.3 1 0 953.9 NA 0.0000 -SN BR 1800 0 0 0 1120
2017/06/28 14:45:00 BASE 6.97 239 10.34 236 -2.3 100 -2.3 1 0 953.9 NA 0.0000 -SN BR 1800 0 0 0 950
2017/06/28 14:46:00 BASE 7.41 238 10.34 236 -2.3 100 -2.3 1 0 953.8 NA 0.0000 -SN BR 1600 0 0 0 790
2017/06/28 14:47:00 BASE 7.42 234 10.34 236 -2.3 100 -2.3 2 0 953.9 NA 0.0000 -SN BR 1500 0 0 0 1610
2017/06/28 14:48:00 BASE 7.62 233 10.34 236 -2.3 100 -2.3 2 0 953.9 NA 0.0000 -SN BR 1600 0 0 0 1280
2017/06/28 14:49:00 BASE 8.12 234 10.34 236 -2.3 100 -2.3 2 0 953.9 NA 0.0000 -SN BR 2200 230 0 0 0
2017/06/28 14:50:00 BASE 8.05 234 9.67 243 -2.3 100 -2.3 2 0 953.9 NA 0.0000 -SN BR 2600 260 0 0 0
2017/06/28 14:51:00 BASE 8.14 235 9.47 235 -2.3 100 -2.3 2 0 953.9 NA 0.0000 -SN BR 3400 0 0 0 2130
2017/06/28 14:52:00 BASE 7.77 234 9.47 235 -2.4 100 -2.4 2 0 954.0 NA 0.0000 -SN BR 3500 0 0 0 2170
2017/06/28 14:53:00 BASE 6.89 235 9.47 235 -2.4 100 -2.4 2 0 954.0 NA 0.0000 -SN BR 3500 300 0 0 0
2017/06/28 14:54:00 BASE 7.35 236 9.47 235 -2.4 100 -2.4 2 0 954.0 NA 0.0000 -SN BR 2900 300 0 0 0
2017/06/28 14:55:00 BASE 7.81 236 9.47 235 -2.4 100 -2.4 2 0 954.0 NA 0.0000 -SN BR 3200 300 0 0 0
2017/06/28 14:56:00 BASE 8.03 233 10.55 218 -2.4 100 -2.4 2 0 953.9 NA 0.0000 -SN BR 3500 300 0 0 0
2017/06/28 14:57:00 BASE 8.39 229 10.55 218 -2.4 100 -2.4 2 0 954.0 NA 0.0000 -SN BR 3700 300 0 0 0
2017/06/28 14:58:00 BASE 7.86 232 10.55 218 -2.4 100 -2.4 3 0 954.0 NA 0.0000 -SN BR 3100 300 0 0 0
2017/06/28 14:59:00 BASE 7.91 234 10.55 218 -2.4 100 -2.4 3 0 954.1 NA 0.0000 -SN BR 3000 300 0 0 0
2017/06/28 15:00:00 BASE 7.83 235 10.55 218 -2.4 100 -2.4 2 0 954.1 NA 0.0000 -SN BR 3000 260 0 0 0
2017/06/28 15:01:00 BASE 7.08 236 10.55 218 -2.4 100 -2.4 3 0 954.0 NA 0.0000 -SN BR 2800 0 0 0 1640
2017/06/28 15:02:00 BASE 8.10 237 10.55 218 -2.4 100 -2.4 3 0 954.1 NA 0.0000 -SN BR 2500 0 0 0 1540
2017/06/28 15:03:00 BASE 9.55 237 10.55 218 -2.4 100 -2.4 3 0 954.1 NA 0.0000 -SN BR 3600 230 0 0 0
2017/06/28 15:04:00 BASE 9.30 235 10.55 218 -2.4 100 -2.4 3 0 954.1 NA 0.0000 -SN BR 3500 260 0 0 0
2017/06/28 15:05:00 BASE 8.43 234 10.55 218 -2.4 100 -2.4 2 0 954.2 NA 0.0000 -SN BR 3500 230 0 0 0
2017/06/28 15:06:00 BASE 8.43 232 11.01 232 -2.4 100 -2.4 3 0 954.2 NA 0.0000 -SN BR 2900 200 0 0 0
2017/06/28 15:07:00 BASE 9.14 231 11.01 232 -2.5 100 -2.5 3 0 954.2 NA 0.0000 -SN BR 3400 200 0 0 0
2017/06/28 15:08:00 BASE 9.11 230 11.01 232 -2.5 100 -2.5 3 0 954.3 NA 0.0000 -SN BR 4200 0 0 0 1480
2017/06/28 15:09:00 BASE 8.22 228 11.01 232 -2.5 100 -2.5 3 1 954.3 NA 0.0000 -SN BR 4000 0 0 0 1380
2017/06/28 15:10:00 BASE 8.13 229 11.01 232 -2.6 100 -2.6 3 0 954.4 NA 0.0000 -SN BR 3200 0 0 0 1250
2017/06/28 15:11:00 BASE 8.48 231 11.01 232 -2.6 100 -2.6 3 0 954.4 NA 0.0000 -SN BR 2500 0 0 0 1020
2017/06/28 15:12:00 BASE 8.67 233 11.01 232 -2.6 100 -2.6 3 0 954.4 NA 0.0000 -SN BR 2700 0 0 0 1310
2017/06/28 15:13:00 BASE 9.13 235 11.01 232 -2.6 100 -2.6 3 0 954.4 NA 0.0000 -SN BR 3100 0 0 0 1120
2017/06/28 15:14:00 BASE 8.91 237 11.01 232 -2.6 100 -2.6 3 0 954.4 NA 0.0000 -SN BR 3200 0 0 0 1310
2017/06/28 15:15:00 BASE 7.81 242 11.01 232 -2.6 100 -2.6 3 1 954.5 NA 0.0000 -SN BR 2600 0 0 0 1350
2017/06/28 15:16:00 BASE 7.79 243 10.60 238 -2.6 100 -2.6 4 1 954.5 NA 0.0000 -SN BR 2300 0 0 0 1350
2017/06/28 15:17:00 BASE 8.40 242 10.60 238 -2.5 100 -2.5 4 2 954.5 NA 0.0000 -SN BR 2500 0 0 0 1280
2017/06/28 15:18:00 BASE 7.67 244 10.60 238 -2.5 100 -2.5 4 2 954.5 NA 0.0000 -SN BR 2200 0 0 0 1250
2017/06/28 15:19:00 BASE 7.94 244 10.60 238 -2.5 100 -2.5 4 2 954.5 NA 0.0000 -SN BR 2100 0 0 0 1080
2017/06/28 15:20:00 BASE 9.04 242 11.32 237 -2.5 100 -2.5 4 1 954.5 NA 0.0000 -SN BR 2300 0 0 0 890
2017/06/28 15:21:00 BASE 10.21 234 12.24 230 -2.5 100 -2.5 4 3 954.4 NA 0.0000 -SN BR 2500 0 0 0 1150
2017/06/28 15:22:00 BASE 10.56 222 12.24 230 -2.6 100 -2.6 4 3 954.6 NA 0.0000 -SN BR 2400 0 0 0 1310
2017/06/28 15:23:00 BASE 10.02 218 12.35 222 -2.7 100 -2.7 4 2 954.6 NA 0.0000 -SN BR 1600 0 0 0 1440
2017/06/28 15:24:00 BASE 8.94 219 12.35 222 -2.8 100 -2.8 4 4 954.7 NA 0.0000 -SN BR 1200 0 0 0 1540
2017/06/28 15:25:00 BASE 8.30 218 12.35 222 -2.9 100 -2.9 4 3 954.7 NA 0.0000 -SN BR 2100 0 0 0 1480
2017/06/28 15:26:00 BASE 8.83 219 12.35 222 -2.9 100 -2.9 4 3 954.8 NA 0.0000 -SN BR 2000 0 0 0 1410
2017/06/28 15:27:00 BASE 8.46 224 12.35 222 -2.9 100 -2.9 4 3 954.8 NA 0.0000 -SN BR 2100 0 0 0 1210
2017/06/28 15:28:00 BASE 7.92 227 12.35 222 -2.9 100 -2.9 4 1 954.8 NA 0.0000 -SN BR 2300 0 0 0 1180
2017/06/28 15:29:00 BASE 8.76 224 12.35 222 -2.8 100 -2.8 4 3 954.9 NA 0.0000 -SN BR 1500 0 0 0 920
2017/06/28 15:30:00 BASE 9.86 223 12.35 222 -2.8 100 -2.8 4 3 954.8 NA 0.0000 -SN BR 1200 0 0 0 1380
2017/06/28 15:31:00 BASE 9.88 226 12.35 222 -2.9 100 -2.9 4 3 954.9 NA 0.0000 -SN BR 1700 0 0 0 1180
2017/06/28 15:32:00 BASE 9.75 222 12.35 222 -2.9 100 -3.0 4 4 954.9 NA 0.0000 -SN BR 1400 0 0 0 1310
2017/06/28 15:33:00 BASE 10.24 222 12.35 221 -3.0 99 -3.1 4 3 955.0 NA 0.0000 -SN BR 1900 0 0 0 1250
2017/06/28 15:34:00 BASE 10.84 221 12.55 221 -3.1 99 -3.2 5 5 955.0 NA 0.0000 -SN BR 1400 0 0 0 1380
2017/06/28 15:35:00 BASE 10.72 220 12.55 221 -3.1 99 -3.3 5 5 955.0 NA 0.0000 -SN BR 4200 0 0 0 1410
2017/06/28 15:36:00 BASE 10.64 223 13.07 226 -3.2 99 -3.3 5 4 955.0 NA 0.0000 -SN BR 5000 0 0 0 1440
2017/06/28 15:37:00 BASE 11.62 225 14.71 226 -3.3 99 -3.4 5 4 955.0 NA 0.0000 -SN BR 4900 0 0 0 1540
2017/06/28 15:38:00 BASE 12.33 224 14.71 226 -3.3 99 -3.5 5 4 955.0 NA 0.0000 -SN BR 5000 0 0 0 1570
2017/06/28 15:39:00 BASE 12.81 226 14.97 225 -3.4 99 -3.6 5 6 955.0 NA 0.0000 -SN BR 5000 0 0 0 1640
2017/06/28 15:40:00 BASE 12.81 229 14.97 225 -3.5 99 -3.6 5 6 955.0 NA 0.0000 -SN BR 6000 0 0 0 1900
2017/06/28 15:41:00 BASE 11.49 229 14.97 225 -3.6 99 -3.7 5 6 955.1 NA 0.0000 -SN BR 6000 0 0 0 1970
2017/06/28 15:42:00 BASE 11.01 225 14.97 225 -3.6 99 -3.8 5 5 955.2 NA 0.0000 -SN BR 6000 0 0 0 2300
2017/06/28 15:43:00 BASE 11.51 223 14.97 225 -3.6 99 -3.8 5 5 955.2 NA 0.0000 -SN BR 6000 0 0 0 2560
2017/06/28 15:44:00 BASE 11.55 224 14.97 225 -3.6 99 -3.8 5 4 955.2 NA 0.0000 -SN BR 7000 0 0 0 2400
2017/06/28 15:45:00 BASE 11.27 224 14.97 225 -3.6 99 -3.8 4 4 955.2 NA 0.0000 -SN BR 7000 200 0 0 0
2017/06/28 15:46:00 BASE 11.69 224 14.97 225 -3.6 99 -3.8 4 5 955.2 NA 0.0000 -SN BR 8000 0 0 0 1440
2017/06/28 15:47:00 BASE 12.19 225 14.97 225 -3.6 99 -3.8 5 4 955.2 NA 0.0000 -SN BR 7000 0 0 0 1970
2017/06/28 15:48:00 BASE 11.48 226 14.97 225 -3.6 99 -3.8 4 4 955.3 NA 0.0000 -SN BR 8000 0 0 0 1480
2017/06/28 15:49:00 BASE 10.51 225 14.61 230 -3.6 99 -3.8 4 4 955.3 NA 0.0000 -SN BR 7000 0 0 0 1670
2017/06/28 15:50:00 BASE 10.10 224 14.61 230 -3.6 99 -3.8 5 5 955.3 NA 0.0000 -SN BR 5000 0 0 0 1020
2017/06/28 15:51:00 BASE 10.24 221 14.61 230 -3.6 99 -3.8 5 5 955.3 NA 0.0000 -SN BR 6000 230 0 0 0
2017/06/28 15:52:00 BASE 9.79 219 14.61 230 -3.6 99 -3.7 4 4 955.4 NA 0.0000 -SN BR 7000 230 0 0 0
2017/06/28 15:53:00 BASE 9.03 222 13.74 226 -3.5 99 -3.7 4 4 955.4 NA 0.0000 -SN BR 5000 200 0 0 0
2017/06/28 15:54:00 BASE 9.40 226 13.38 225 -3.5 99 -3.6 4 3 955.4 NA 0.0000 -SN BR 6000 230 0 0 0
2017/06/28 15:55:00 BASE 10.65 228 13.79 221 -3.5 99 -3.7 4 3 955.4 NA 0.0000 -SN BR 5000 0 0 0 1120
2017/06/28 15:56:00 BASE 11.34 231 13.79 221 -3.5 99 -3.7 4 4 955.4 NA 0.0000 -SN BR 4200 0 0 0 1120
2017/06/28 15:57:00 BASE 10.37 231 13.79 221 -3.6 99 -3.7 4 4 955.4 NA 0.0000 -SN BR 5000 0 0 0 1310
2017/06/28 15:58:00 BASE 9.42 226 13.79 221 -3.6 99 -3.7 4 4 955.5 NA 0.0000 -SN BR 4600 0 0 0 1050
2017/06/28 15:59:00 BASE 8.83 223 13.79 221 -3.6 99 -3.7 4 4 955.5 NA 0.0000 -SN BR 3900 0 0 0 1150
2017/06/28 16:00:00 BASE 9.04 224 13.79 221 -3.5 99 -3.7 4 4 955.5 NA 0.0000 -SN BR 3700 0 0 0 1350
2017/06/28 16:01:00 BASE 8.91 225 13.79 221 -3.5 99 -3.6 4 4 955.5 NA 0.0000 -SN BR 3100 0 0 0 1280
2017/06/28 16:02:00 BASE 8.39 226 13.79 221 -3.5 99 -3.6 4 5 955.5 NA 0.0000 -SN BR 2800 0 0 0 1080
2017/06/28 16:03:00 BASE 9.36 224 13.79 221 -3.5 99 -3.7 4 3 955.5 NA 0.0000 -SN BR 2500 0 0 0 1710
2017/06/28 16:04:00 BASE 10.61 226 13.79 221 -3.6 99 -3.7 4 2 955.5 NA 0.0000 -SN BR 3500 0 0 0 1610
2017/06/28 16:05:00 BASE 10.66 230 13.68 229 -3.6 99 -3.8 4 3 955.5 NA 0.0000 -SN BR 2900 0 0 0 1020
2017/06/28 16:06:00 BASE 11.09 233 13.68 229 -3.7 99 -3.8 4 3 955.5 NA 0.0000 -SN BR 2400 0 0 0 1020
2017/06/28 16:07:00 BASE 11.91 235 13.68 229 -3.8 99 -3.9 4 4 955.5 NA 0.0000 -SN BR 2800 0 0 0 1080
2017/06/28 16:08:00 BASE 11.30 232 13.68 229 -3.8 99 -3.9 5 5 955.5 NA 0.0000 -SN BR 4100 0 0 0 1350
2017/06/28 16:09:00 BASE 10.84 232 13.68 229 -3.8 99 -3.9 5 7 955.6 NA 0.0000 -SN BR 5000 0 0 0 2000
2017/06/28 16:10:00 BASE 10.61 233 13.68 229 -3.8 99 -3.9 5 5 955.6 NA 0.0000 -SN BR 6000 200 0 0 0
2017/06/28 16:11:00 BASE 10.20 230 13.68 229 -3.8 99 -3.9 5 6 955.7 NA 0.0000 -SN BR 5000 0 0 0 1900
2017/06/28 16:12:00 BASE 9.59 231 13.68 229 -3.7 99 -3.9 5 6 955.7 NA 0.0000 -SN BR 4200 0 0 0 1640
2017/06/28 16:13:00 BASE 9.33 230 13.68 229 -3.7 99 -3.8 5 6 955.7 NA 0.0000 -SN BR 4500 0 0 0 1350
2017/06/28 16:14:00 BASE 9.59 230 13.63 233 -3.7 99 -3.8 5 6 955.7 NA 0.0000 -SN BR 5000 0 0 0 1670
2017/06/28 16:15:00 BASE 11.06 229 13.63 233 -3.7 99 -3.9 4 3 955.7 NA 0.0000 -SN BR 5000 0 0 0 1540
2017/06/28 16:16:00 BASE 12.36 229 14.66 227 -3.8 99 -3.9 4 5 955.7 NA 0.0000 -SN BR 4400 0 0 0 1440
2017/06/28 16:17:00 BASE 12.47 231 14.66 227 -3.8 99 -4.0 4 5 955.7 NA 0.0000 -SN BR 4000 0 0 0 1610
2017/06/28 16:18:00 BASE 12.73 232 14.66 227 -3.9 99 -4.1 5 4 955.8 NA 0.0000 -SN BR 4200 0 0 0 1940
2017/06/28 16:19:00 BASE 12.71 233 14.66 227 -4.0 98 -4.2 5 5 955.8 NA 0.0000 -SN BR 4300 0 0 0 1640
2017/06/28 16:20:00 BASE 12.73 233 14.66 227 -4.1 98 -4.3 5 6 955.9 NA 0.0000 -SN BR 4500 0 0 0 1540
2017/06/28 16:21:00 BASE 12.79 234 14.66 227 -4.1 98 -4.4 5 6 955.9 NA 0.0000 -SN BR 5000 0 0 0 1570
2017/06/28 16:22:00 BASE 12.91 232 14.82 234 -4.2 98 -4.5 5 5 955.9 NA 0.0000 -SN BR 5000 0 0 0 1610
2017/06/28 16:23:00 BASE 12.31 230 14.82 234 -4.2 98 -4.5 5 6 956.0 NA 0.0000 -SN BR 6000 0 0 0 2030
2017/06/28 16:24:00 BASE 10.85 232 14.82 234 -4.3 98 -4.5 5 8 956.1 NA 0.0000 -SN BR 7000 200 0 0 0
2017/06/28 16:25:00 BASE 10.54 234 14.82 234 -4.3 98 -4.5 5 7 956.1 NA 0.0000 -SN BR 8000 0 0 0 3050
2017/06/28 16:26:00 BASE 10.88 234 14.82 234 -4.3 98 -4.5 5 8 956.1 NA 0.0000 -SN BR 9000 0 0 0 2660
2017/06/28 16:27:00 BASE 10.59 235 14.82 234 -4.3 98 -4.5 5 7 956.1 NA 0.0000 -SN BR 9000 230 0 0 0
2017/06/28 16:28:00 BASE 10.61 236 14.82 234 -4.2 98 -4.5 5 5 956.1 NA 0.0000 -SN BR 9999 260 1050 0 0
2017/06/28 16:29:00 BASE 11.64 236 14.82 234 -4.3 98 -4.5 5 7 956.1 NA 0.0000 -SN BR 9000 0 0 0 1840
2017/06/28 16:30:00 BASE 12.14 237 14.82 234 -4.3 98 -4.6 5 6 956.1 NA 0.0000 -SN BR 8000 0 0 0 2300
2017/06/28 16:31:00 BASE 11.69 237 14.82 234 -4.3 98 -4.6 5 8 956.1 NA 0.0000 -SN BR 8000 160 0 0 0
2017/06/28 16:32:00 BASE 11.45 234 13.68 237 -4.3 98 -4.6 6 8 956.2 NA 0.0000 -SN BR 8000 0 0 0 2400
2017/06/28 16:33:00 BASE 11.47 232 13.68 237 -4.4 98 -4.6 5 7 956.2 NA 0.0000 -SN BR 5000 0 0 0 2170
2017/06/28 16:34:00 BASE 11.26 234 13.68 237 -4.3 98 -4.7 5 6 956.2 NA 0.0000 -SN BR 4600 0 0 0 1840
2017/06/28 16:35:00 BASE 10.40 237 13.68 237 -4.3 98 -4.6 5 5 956.2 NA 0.0000 -SN BR 3500 0 0 0 1480
2017/06/28 16:36:00 BASE 10.72 236 13.68 237 -4.2 98 -4.6 5 5 956.2 NA 0.0000 -SN BR 2900 0 0 0 1480
2017/06/28 16:37:00 BASE 12.12 234 13.94 243 -4.2 98 -4.5 4 5 956.1 NA 0.0000 -SN BR 2300 0 0 0 1610
2017/06/28 16:38:00 BASE 12.00 236 13.94 243 -4.2 98 -4.5 5 5 956.2 NA 0.0000 -SN BR 2400 0 0 0 1310
2017/06/28 16:39:00 BASE 11.59 238 13.94 243 -4.2 98 -4.5 4 5 956.2 NA 0.0000 -SN BR 2500 0 0 0 1250
2017/06/28 16:40:00 BASE 11.77 236 13.94 243 -4.2 98 -4.5 5 5 956.2 NA 0.0000 -SN BR 2400 0 0 0 1350
2017/06/28 16:41:00 BASE 11.59 233 13.94 243 -4.3 98 -4.5 5 7 956.3 NA 0.0000 -SN BR 2300 0 0 0 1080
2017/06/28 16:42:00 BASE 11.33 235 13.94 243 -4.3 98 -4.6 6 8 956.2 NA 0.0000 -SN BR 2800 0 0 0 1080
2017/06/28 16:43:00 BASE 11.61 236 13.94 243 -4.3 98 -4.6 6 8 956.3 NA 0.0000 -SN BR 3500 260 0 0 0
2017/06/28 16:44:00 BASE 12.14 234 13.94 243 -4.3 98 -4.6 6 8 956.3 NA 0.0000 -SN BR 5000 230 0 0 0
2017/06/28 16:45:00 BASE 11.85 235 13.94 243 -4.4 98 -4.7 6 9 956.3 NA 0.0000 -SN BR 5000 260 0 0 0
2017/06/28 16:46:00 BASE 11.39 233 13.94 243 -4.4 98 -4.7 6 7 956.4 NA 0.0000 -SN BR 5000 0 0 0 1570
2017/06/28 16:47:00 BASE 10.99 232 13.58 233 -4.4 98 -4.7 6 9 956.4 NA 0.0000 -SN BR 7000 0 0 0 1710
2017/06/28 16:48:00 BASE 10.87 230 13.58 233 -4.4 98 -4.7 5 8 956.5 NA 0.0000 -SN BR 8000 0 0 0 1900
2017/06/28 16:49:00 BASE 11.08 227 13.58 233 -4.4 97 -4.8 5 7 956.5 NA 0.0000 -SN BR 6000 0 0 0 1870
2017/06/28 16:50:00 BASE 10.18 229 13.27 227 -4.4 97 -4.8 5 7 956.5 NA 0.0000 -SN BR 6000 0 0 0 1940
2017/06/28 16:51:00 BASE 9.68 229 13.27 227 -4.3 97 -4.8 4 6 956.5 NA 0.0000 -SN BR 4700 230 0 0 0
2017/06/28 16:52:00 BASE 10.65 228 13.27 227 -4.3 97 -4.8 5 6 956.5 NA 0.0000 -SN BR 3100 260 0 0 0
2017/06/28 16:53:00 BASE 10.95 230 13.27 227 -4.4 97 -4.8 5 7 956.5 NA 0.0000 -SN BR 4400 0 0 0 1610
2017/06/28 16:54:00 BASE 10.00 234 13.17 227 -4.4 97 -4.8 5 6 956.5 NA 0.0000 -SN BR 8000 0 0 0 1610
2017/06/28 16:55:00 BASE 9.74 232 13.17 227 -4.4 97 -4.8 5 6 956.5 NA 0.0000 -SN BR 8000 0 0 0 1800
2017/06/28 16:56:00 BASE 10.43 231 13.17 227 -4.4 97 -4.8 5 5 956.5 NA 0.0000 -SN BR 7000 0 0 0 1870
2017/06/28 16:57:00 BASE 10.69 231 12.81 233 -4.4 97 -4.8 4 5 956.5 NA 0.0000 -SN BR 9999 0 0 0 2100
2017/06/28 16:58:00 BASE 10.73 229 12.81 233 -4.3 97 -4.8 3 3 956.5 NA 0.0000 -SN BR 9999 0 0 0 1840
2017/06/28 16:59:00 BASE 10.57 231 12.81 233 -4.3 96 -4.8 3 2 956.5 NA 0.0000 -SN BR 5000 0 0 0 1440
2017/06/28 17:00:00 BASE 9.59 233 12.81 233 -4.3 96 -4.8 4 5 956.5 NA 0.0000 -SN BR 2900 0 0 0 1510
2017/06/28 17:01:00 BASE 9.53 236 12.81 233 -4.3 96 -4.8 4 5 956.5 NA 0.0000 -SN BR 3600 0 0 0 1510
2017/06/28 17:02:00 BASE 10.05 234 12.81 233 -4.3 97 -4.7 4 4 956.5 NA 0.0000 -SN BR 7000 0 0 0 2100
2017/06/28 17:03:00 BASE 9.73 232 12.30 226 -4.3 97 -4.7 3 3 956.6 NA 0.0000 -SN BR 8000 0 0 0 1770
2017/06/28 17:04:00 BASE 9.66 232 12.30 226 -4.2 97 -4.7 2 1 956.6 NA 0.0000 -SN BR 3900 230 0 0 0
2017/06/28 17:05:00 BASE 9.73 229 12.30 226 -4.2 97 -4.7 2 1 956.7 NA 0.0000 -SN BR 2200 0 0 0 1210
2017/06/28 17:06:00 BASE 9.41 225 12.30 226 -4.2 97 -4.7 3 1 956.6 NA 0.0000 -SN BR 2000 0 0 0 1350
2017/06/28 17:07:00 BASE 9.09 220 12.30 226 -4.2 97 -4.7 3 2 956.7 NA 0.0000 -SN BR 2000 0 0 0 1610
2017/06/28 17:08:00 BASE 9.00 222 11.57 238 -4.2 97 -4.6 3 2 956.7 NA 0.0000 -SN BR 1900 0 0 0 1250
2017/06/28 17:09:00 BASE 9.89 227 11.88 224 -4.2 98 -4.5 2 0 956.6 NA 0.0000 -SN BR 1900 0 0 0 1870
2017/06/28 17:10:00 BASE 10.95 221 12.81 222 -4.2 98 -4.5 3 2 956.7 NA 0.0000 -SN BR 1800 0 0 0 1570
2017/06/28 17:11:00 BASE 10.01 218 12.81 222 -4.3 98 -4.6 3 3 956.7 NA 0.0000 -SN BR 2200 0 0 0 1840
2017/06/28 17:12:00 BASE 9.27 220 12.81 222 -4.3 98 -4.7 3 3 956.7 NA 0.0000 -SN BR 2600 230 0 0 0
2017/06/28 17:13:00 BASE 9.57 226 12.81 222 -4.4 97 -4.8 3 3 956.7 NA 0.0000 -SN BR 4000 260 0 0 0
2017/06/28 17:14:00 BASE 9.86 230 12.81 222 -4.4 97 -4.9 3 4 956.6 NA 0.0000 -SN BR 5000 0 0 0 2920
2017/06/28 17:15:00 BASE 10.38 228 12.81 222 -4.4 96 -5.0 3 2 956.6 NA 0.0000 -SN BR 8000 0 0 0 2890
2017/06/28 17:16:00 BASE 10.63 227 12.91 229 -4.3 95 -5.0 3 1 956.6 NA 0.0000 -SN BR 9000 360 0 0 0
2017/06/28 17:17:00 BASE 10.94 227 12.91 229 -4.3 94 -5.0 2 2 956.6 NA 0.0000 -SN BR 7000 300 0 0 0
2017/06/28 17:18:00 BASE 11.24 226 13.68 235 -4.2 94 -5.0 2 1 956.7 NA 0.0000 -SN BR 6000 330 1380 0 0
2017/06/28 17:19:00 BASE 12.44 228 14.66 228 -4.2 94 -5.0 2 1 956.6 NA 0.0000 -SN BR 7000 230 0 0 0
2017/06/28 17:20:00 BASE 13.28 229 14.66 228 -4.2 94 -5.0 2 2 956.7 NA 0.0000 -SN BR 5000 260 0 0 0
2017/06/28 17:21:00 BASE 13.06 228 14.66 228 -4.3 94 -5.1 3 1 956.7 NA 0.0000 -SN BR 9999 330 0 0 0
2017/06/28 17:22:00 BASE 12.84 229 14.66 228 -4.4 94 -5.2 3 1 956.7 NA 0.0000 -SN BR 9999 360 0 0 0
2017/06/28 17:23:00 BASE 12.27 229 14.66 228 -4.4 94 -5.2 3 3 956.8 NA 0.0000 -SN BR 9999 360 0 0 0
2017/06/28 17:24:00 BASE 11.73 231 14.66 228 -4.5 94 -5.2 2 2 956.8 NA 0.0000 -SN BR 9999 1640 0 0 0
2017/06/28 17:25:00 BASE 10.63 231 14.66 228 -4.4 94 -5.2 2 0 956.8 NA 0.0000 -SN BR 9999 360 0 0 0
2017/06/28 17:26:00 BASE 10.27 227 14.66 228 -4.4 94 -5.1 2 1 956.8 NA 0.0000 -SN BR 9000 360 0 0 0
2017/06/28 17:27:00 BASE 10.64 224 14.66 228 -4.4 94 -5.2 3 1 956.9 NA 0.0000 -SN BR 9999 390 0 0 0
2017/06/28 17:28:00 BASE 10.46 221 14.66 228 -4.4 94 -5.2 3 1 956.9 NA 0.0000 -SN BR 9999 360 2360 0 0
2017/06/28 17:29:00 BASE 10.44 219 14.46 231 -4.4 94 -5.3 2 1 956.9 NA 0.0000 -SN BR 9999 390 0 0 0
2017/06/28 17:30:00 BASE 10.54 220 14.20 233 -4.4 93 -5.3 2 2 956.9 NA 0.0000 -SN 9999 390 0 0 0
2017/06/28 17:31:00 BASE 9.99 224 14.15 232 -4.4 93 -5.4 2 1 956.9 NA 0.0000 -SN 6000 300 2130 0 0
2017/06/28 17:32:00 BASE 9.47 227 14.15 232 -4.4 94 -5.3 2 2 956.9 NA 0.0000 -SN BR 3800 260 1640 0 0
2017/06/28 17:33:00 BASE 9.66 225 14.15 232 -4.4 94 -5.2 3 2 957.0 NA 0.0000 -SN BR 4500 1510 0 0 0
2017/06/28 17:34:00 BASE 9.44 224 12.66 227 -4.4 95 -5.1 3 2 957.0 NA 0.0000 -SN BR 9999 1410 2990 0 0
2017/06/28 17:35:00 BASE 9.53 225 12.66 227 -4.4 95 -5.1 3 1 957.0 NA 0.0000 -SN BR 9999 1970 3120 0 0
2017/06/28 17:36:00 BASE 10.52 225 12.19 218 -4.4 95 -5.1 2 1 957.0 NA 0.0000 -SN BR 9000 1410 3610 0 0
2017/06/28 17:37:00 BASE 11.42 224 13.38 220 -4.3 94 -5.2 2 1 957.0 NA 0.0000 -SN BR 6000 390 0 0 0
2017/06/28 17:38:00 BASE 11.48 222 13.43 220 -4.4 93 -5.3 2 1 957.0 NA 0.0000 -SN BR 6000 390 0 0 0
2017/06/28 17:39:00 BASE 11.51 229 14.15 243 -4.4 93 -5.3 2 0 956.9 NA 0.0000 -SN BR 4600 230 0 0 0
2017/06/28 17:40:00 BASE 12.53 237 14.61 236 -4.5 93 -5.4 2 0 956.8 NA 0.0000 -SN BR 3400 0 0 0 1570
2017/06/28 17:41:00 BASE 13.16 237 14.61 236 -4.5 93 -5.4 2 1 957.0 NA 0.0000 -SN BR 4000 260 0 0 0
2017/06/28 17:42:00 BASE 11.92 236 14.61 236 -4.6 94 -5.4 2 1 957.1 NA 0.0000 -SN BR 3300 300 0 0 0
2017/06/28 17:43:00 BASE 10.78 237 14.61 236 -4.7 95 -5.3 2 1 957.0 NA 0.0000 -SN BR 3700 1380 0 0 0
2017/06/28 17:44:00 BASE 11.44 236 14.61 236 -4.7 95 -5.4 3 1 957.1 NA 0.0000 -SN BR 5000 0 0 0 2990
2017/06/28 17:45:00 BASE 11.46 232 14.61 236 -4.7 95 -5.4 3 2 957.2 NA 0.0000 -SN BR 9999 0 0 0 3220
2017/06/28 17:46:00 BASE 10.63 231 14.61 236 -4.8 94 -5.6 3 2 957.2 NA 0.0000 -SN BR 9999 0 0 0 3410
2017/06/28 17:47:00 BASE 10.08 233 14.61 236 -4.7 93 -5.7 3 2 957.2 NA 0.0000 -SN BR 9999 0 0 0 3480
2017/06/28 17:48:00 BASE 10.28 231 14.61 236 -4.7 92 -5.8 3 1 957.2 NA 0.0000 -SN BR 9999 2430 0 0 0
2017/06/28 17:49:00 BASE 10.57 231 14.61 236 -4.7 91 -6.0 3 2 957.2 NA 0.0000 -SN BR 9999 0 0 0 3670
2017/06/28 17:50:00 BASE 10.80 233 14.25 236 -4.7 90 -6.1 3 2 957.2 NA 0.0000 -SN BR 9999 3080 0 0 0
2017/06/28 17:51:00 BASE 10.88 234 13.53 233 -4.6 90 -6.0 3 1 957.2 NA 0.0000 -SN BR 9999 1350 0 0 0
2017/06/28 17:52:00 BASE 9.97 234 13.53 233 -4.6 90 -5.9 2 2 957.2 NA 0.0000 -SN 9999 1210 0 0 0
2017/06/28 17:53:00 BASE 9.11 226 13.53 233 -4.5 91 -5.8 2 0 957.3 NA 0.0000 9999 460 0 0 0
2017/06/28 17:54:00 BASE 8.87 221 12.66 227 -4.5 91 -5.7 2 0 957.3 NA 0.0000 9999 430 0 0 0
2017/06/28 17:55:00 BASE 9.58 225 12.40 235 -4.4 92 -5.6 2 2 957.3 NA 0.0000 9999 430 1350 0 0
2017/06/28 17:56:00 BASE 9.46 228 12.40 235 -4.4 92 -5.5 2 1 957.3 NA 0.0000 -SN 9999 1280 0 0 0
2017/06/28 17:57:00 BASE 9.82 229 12.40 235 -4.4 91 -5.6 2 2 957.3 NA 0.0000 -SN 9999 0 0 0 3610
2017/06/28 17:58:00 BASE 11.25 231 13.43 234 -4.4 91 -5.7 2 2 957.2 NA 0.0000 -SN 9999 1670 0 0 0
2017/06/28 17:59:00 BASE 12.00 231 13.43 234 -4.5 90 -5.8 2 1 957.2 NA 0.0000 -SN 9999 1050 2260 0 0
2017/06/28 18:00:00 BASE 11.72 229 13.43 234 -4.5 90 -6.0 2 1 957.3 NA 0.0000 -SN 9999 2170 0 0 0
2017/06/28 18:01:00 BASE 10.96 229 13.43 234 -4.5 89 -6.0 2 1 957.3 NA 0.0000 -SN 9999 2950 0 0 0
2017/06/28 18:02:00 BASE 11.14 228 13.43 234 -4.6 89 -6.1 2 1 957.3 NA 0.0000 -SN 9999 3150 0 0 0
2017/06/28 18:03:00 BASE 10.73 225 13.43 234 -4.6 89 -6.2 2 0 957.4 NA 0.0000 -SN 9999 3380 0 0 0
2017/06/28 18:04:00 BASE 9.53 222 13.43 234 -4.6 89 -6.2 2 1 957.4 NA 0.0000 -SN 9999 1840 0 0 0
2017/06/28 18:05:00 BASE 9.60 224 13.43 234 -4.6 89 -6.2 2 1 957.3 NA 0.0000 -SN 9999 2850 0 0 0
2017/06/28 18:06:00 BASE 9.70 227 13.43 234 -4.6 88 -6.3 2 1 957.4 NA 0.0000 9999 2590 3610 0 0
2017/06/28 18:07:00 BASE 9.84 225 13.43 234 -4.6 88 -6.2 2 1 957.4 NA 0.0000 9999 2760 0 0 0
2017/06/28 18:08:00 BASE 9.74 221 13.27 231 -4.6 89 -6.2 2 1 957.4 NA 0.0000 9999 2660 0 0 0
2017/06/28 18:09:00 BASE 9.43 220 12.60 231 -4.6 89 -6.2 2 2 957.4 NA 0.0000 9999 2620 3310 0 0
2017/06/28 18:10:00 BASE 9.55 221 12.55 225 -4.6 88 -6.2 3 2 957.4 NA 0.0000 9999 1710 0 0 0
2017/06/28 18:11:00 BASE 9.23 220 12.55 225 -4.6 88 -6.3 3 2 957.4 NA 0.0000 9999 3710 0 0 0
2017/06/28 18:12:00 BASE 9.19 220 12.14 223 -4.6 87 -6.4 3 2 957.3 NA 0.0000 9999 3640 0 0 0
2017/06/28 18:13:00 BASE 9.40 223 11.57 229 -4.6 87 -6.5 3 2 957.3 NA 0.0000 9999 3310 0 0 0
2017/06/28 18:14:00 BASE 9.75 227 11.57 229 -4.6 85 -6.6 3 2 957.3 NA 0.0000 9999 3380 0 0 0
2017/06/28 18:15:00 BASE 9.57 229 11.57 229 -4.5 84 -6.8 3 2 957.3 NA 0.0000 9999 3380 0 0 0
2017/06/28 18:16:00 BASE 9.56 226 11.57 229 -4.5 83 -7.0 3 2 957.4 NA 0.0000 9999 2230 0 0 0
2017/06/28 18:17:00 BASE 10.28 223 11.63 218 -4.5 82 -7.2 3 3 957.3 NA 0.0000 9999 2590 0 0 0
2017/06/28 18:18:00 BASE 11.17 224 12.81 224 -4.5 80 -7.4 3 3 957.4 NA 0.0000 9999 2920 0 0 0
2017/06/28 18:19:00 BASE 11.14 226 12.81 224 -4.5 79 -7.6 4 3 957.4 NA 0.0000 9999 3310 0 0 0
2017/06/28 18:20:00 BASE 10.43 229 12.81 224 -4.6 78 -7.8 4 3 957.3 NA 0.0000 9999 3510 0 0 0
2017/06/28 18:21:00 BASE 9.59 227 12.81 224 -4.6 77 -8.0 4 2 957.4 NA 0.0000 9999 2990 0 0 0
2017/06/28 18:22:00 BASE 9.27 227 12.81 224 -4.5 77 -7.9 4 3 957.3 NA 0.0000 9999 3150 0 0 0
2017/06/28 18:23:00 BASE 10.16 232 12.81 224 -4.5 77 -7.9 4 3 957.3 NA 0.0000 9999 3450 0 0 0
2017/06/28 18:24:00 BASE 10.22 231 12.81 224 -4.5 77 -7.9 4 4 957.3 NA 0.0000 9999 2720 0 0 0
2017/06/28 18:25:00 BASE 9.23 228 12.81 224 -4.5 77 -7.9 4 4 957.3 NA 0.0000 9999 3180 0 0 0
2017/06/28 18:26:00 BASE 9.22 229 12.81 224 -4.5 77 -8.0 4 4 957.3 NA 0.0000 9999 3450 4100 0 0
2017/06/28 18:27:00 BASE 9.22 228 12.81 224 -4.6 76 -8.2 4 4 957.3 NA 0.0000 9999 3450 0 0 0
2017/06/28 18:28:00 BASE 8.70 228 12.30 225 -4.5 76 -8.2 4 4 957.3 NA 0.0000 9999 3410 0 0 0
2017/06/28 18:29:00 BASE 9.55 231 12.04 225 -4.5 75 -8.2 4 4 957.3 NA 0.0000 9999 3610 0 0 0
2017/06/28 18:30:00 BASE 10.37 232 12.04 225 -4.5 75 -8.3 4 4 957.3 NA 0.0000 9999 3710 0 0 0
2017/06/28 18:31:00 BASE 10.02 235 12.04 225 -4.5 75 -8.3 4 4 957.3 NA 0.0000 9999 3840 0 0 0
2017/06/28 18:32:00 BASE 9.66 235 12.04 225 -4.5 74 -8.4 3 3 957.3 NA 0.0000 9999 3740 0 0 0
2017/06/28 18:33:00 BASE 9.67 233 12.04 225 -4.5 73 -8.6 3 3 957.3 NA 0.0000 9999 3610 0 0 0
2017/06/28 18:34:00 BASE 10.53 236 12.50 234 -4.5 73 -8.7 3 3 957.3 NA 0.0000 9999 3250 0 0 0
2017/06/28 18:35:00 BASE 11.70 236 13.32 232 -4.6 73 -8.7 3 3 957.3 NA 0.0000 9999 3410 0 0 0
2017/06/28 18:36:00 BASE 11.26 234 13.32 232 -4.6 73 -8.8 3 2 957.3 NA 0.0000 9999 3610 0 0 0
2017/06/28 18:37:00 BASE 10.09 232 13.32 232 -4.6 72 -8.8 3 2 957.3 NA 0.0000 9999 3510 0 0 0
2017/06/28 18:38:00 BASE 9.86 231 13.32 232 -4.6 72 -8.9 3 2 957.3 NA 0.0000 9999 2850 0 0 0
2017/06/28 18:39:00 BASE 9.52 232 13.32 232 -4.7 72 -8.9 2 2 957.4 NA 0.0000 9999 3580 0 0 0
2017/06/28 18:40:00 BASE 9.92 229 13.32 232 -4.7 72 -8.9 2 2 957.3 NA 0.0000 9999 3180 0 0 0
2017/06/28 18:41:00 BASE 10.71 231 13.32 232 -4.6 72 -8.9 2 2 957.4 NA 0.0000 9999 2130 0 0 0
2017/06/28 18:42:00 BASE 10.59 238 13.32 232 -4.6 72 -8.8 2 2 957.3 NA 0.0000 9999 3610 0 0 0
2017/06/28 18:43:00 BASE 10.03 242 13.32 232 -4.6 73 -8.8 2 2 957.3 NA 0.0000 9999 2720 4230 0 0
2017/06/28 18:44:00 BASE 10.12 239 13.32 232 -4.5 73 -8.7 2 2 957.3 NA 0.0000 9999 3670 0 0 0
2017/06/28 18:45:00 BASE 10.81 235 12.60 234 -4.5 73 -8.7 2 2 957.4 NA 0.0000 9999 3640 0 0 0
2017/06/28 18:46:00 BASE 10.48 235 12.60 234 -4.5 72 -8.8 2 2 957.4 NA 0.0000 9999 4360 0 0 0
2017/06/28 18:47:00 BASE 9.66 238 12.60 234 -4.5 72 -8.8 2 1 957.4 NA 0.0000 9999 4000 0 0 0
2017/06/28 18:48:00 BASE 9.11 244 12.60 234 -4.5 72 -8.8 2 1 957.4 NA 0.0000 9999 3770 0 0 0
2017/06/28 18:49:00 BASE 9.35 244 12.60 234 -4.5 72 -8.8 2 1 957.3 NA 0.0000 9999 3670 0 0 0
2017/06/28 18:50:00 BASE 10.11 236 12.60 234 -4.5 72 -8.8 2 1 957.4 NA 0.0000 9999 3610 0 0 0
2017/06/28 18:51:00 BASE 11.03 235 12.71 238 -4.5 72 -8.8 2 1 957.3 NA 0.0000 9999 3810 0 0 0
2017/06/28 18:52:00 BASE 10.88 238 12.71 238 -4.5 71 -8.9 2 1 957.4 NA 0.0000 9999 3940 4860 0 0
2017/06/28 18:53:00 BASE 9.54 241 12.71 238 -4.4 72 -8.8 1 1 957.4 NA 0.0000 9999 4490 0 0 0
2017/06/28 18:54:00 BASE 9.70 239 12.71 238 -4.5 71 -8.9 1 1 957.3 NA 0.0000 9999 4330 0 0 0
2017/06/28 18:55:00 BASE 10.13 232 12.71 238 -4.5 71 -8.9 1 1 957.4 NA 0.0000 9999 4460 0 0 0
2017/06/28 18:56:00 BASE 9.72 230 12.71 238 -4.5 71 -8.9 1 1 957.3 NA 0.0000 9999 4230 0 0 0
2017/06/28 18:57:00 BASE 9.39 234 12.71 238 -4.5 71 -8.9 1 0 957.3 NA 0.0000 9999 3870 0 0 0
2017/06/28 18:58:00 BASE 9.70 234 12.71 238 -4.5 71 -9.0 0 0 957.3 NA 0.0000 9999 3610 0 0 0
2017/06/28 18:59:00 BASE 9.82 231 12.71 238 -4.5 70 -9.1 0 0 957.4 NA 0.0000 9999 3740 0 0 0
2017/06/28 19:00:00 BASE 10.05 230 12.71 238 -4.5 70 -9.2 0 0 957.3 NA 0.0000 9999 4100 0 0 0
2017/06/28 19:01:00 BASE 10.84 229 11.88 234 -4.5 71 -9.0 0 0 957.3 NA 0.0000 9999 2850 3870 0 0
2017/06/28 19:02:00 BASE 11.28 231 13.12 237 -4.5 73 -8.7 0 0 957.3 NA 0.0000 9999 2070 0 0 0
2017/06/28 19:03:00 BASE 12.23 233 14.04 233 -4.6 75 -8.4 0 0 957.3 NA 0.0000 9999 3120 3740 0 0
2017/06/28 19:04:00 BASE 12.75 231 14.04 233 -4.6 77 -8.1 0 0 957.3 NA 0.0000 9999 2760 0 0 0
2017/06/28 19:05:00 BASE 11.83 230 14.04 233 -4.7 79 -7.7 0 0 957.3 NA 0.0000 9999 2590 0 0 0
2017/06/28 19:06:00 BASE 11.78 235 14.04 233 -4.8 80 -7.6 0 0 957.3 NA 0.0000 9999 2820 0 0 0
2017/06/28 19:07:00 BASE 12.79 235 14.51 231 -4.8 80 -7.8 0 0 957.3 NA 0.0000 9999 2660 0 0 0
2017/06/28 19:08:00 BASE 12.75 232 14.51 231 -4.8 79 -7.9 0 0 957.4 NA 0.0000 9999 3670 0 0 0
2017/06/28 19:09:00 BASE 11.35 235 14.51 231 -4.8 79 -7.9 0 0 957.5 NA 0.0000 9999 3840 0 0 0
2017/06/28 19:10:00 BASE 11.58 239 14.51 231 -4.9 79 -7.9 0 0 957.4 NA 0.0000 9999 4040 0 0 0
2017/06/28 19:11:00 BASE 12.43 237 14.51 231 -4.9 78 -8.1 0 0 957.4 NA 0.0000 9999 1250 0 0 0
2017/06/28 19:12:00 BASE 11.91 235 14.51 231 -4.9 78 -8.1 0 0 957.5 NA 0.0000 9999 3710 5050 0 0
2017/06/28 19:13:00 BASE 11.07 236 14.51 231 -5.0 78 -8.2 0 0 957.6 NA 0.0000 9999 4920 0 0 0
2017/06/28 19:14:00 BASE 10.26 237 14.51 231 -5.0 77 -8.4 0 0 957.6 NA 0.0000 9999 4630 0 0 0
2017/06/28 19:15:00 BASE 10.77 238 14.51 231 -5.0 76 -8.6 0 0 957.5 NA 0.0000 9999 4660 0 0 0
2017/06/28 19:16:00 BASE 10.95 240 14.51 231 -4.9 75 -8.8 0 0 957.5 NA 0.0000 9999 4360 0 0 0
2017/06/28 19:17:00 BASE 10.73 240 14.10 240 -4.8 74 -8.8 0 0 957.5 NA 0.0000 9999 4330 0 0 0
2017/06/28 19:18:00 BASE 11.21 236 14.10 240 -4.8 73 -8.9 0 0 957.5 NA 0.0000 9999 4820 0 0 0
2017/06/28 19:19:00 BASE 11.32 232 14.10 240 -4.8 72 -9.0 0 0 957.6 NA 0.0000 9999 5220 0 0 0
2017/06/28 19:20:00 BASE 10.91 229 13.27 236 -4.8 71 -9.2 0 0 957.6 NA 0.0000 9999 5250 0 0 0
2017/06/28 19:21:00 BASE 10.71 228 12.81 234 -4.8 71 -9.3 0 0 957.6 NA 0.0000 9999 5320 0 0 0
2017/06/28 19:22:00 BASE 10.84 227 12.81 234 -4.9 70 -9.5 0 0 957.6 NA 0.0000 9999 5350 0 0 0
2017/06/28 19:23:00 BASE 10.69 228 12.81 234 -4.9 69 -9.7 0 0 957.7 NA 0.0000 9999 5380 0 0 0
2017/06/28 19:24:00 BASE 9.85 230 12.81 234 -4.9 69 -9.6 0 0 957.7 NA 0.0000 9999 5680 0 0 0
2017/06/28 19:25:00 BASE 9.17 232 12.81 234 -4.8 70 -9.5 0 0 957.7 NA 0.0000 9999 5840 0 0 0
2017/06/28 19:26:00 BASE 9.51 233 12.81 234 -4.8 71 -9.2 0 0 957.7 NA 0.0000 9999 5680 0 0 0
2017/06/28 19:27:00 BASE 10.32 235 12.81 234 -4.8 71 -9.2 0 0 957.6 NA 0.0000 9999 5640 0 0 0
2017/06/28 19:28:00 BASE 10.67 237 12.40 228 -4.8 72 -9.1 0 0 957.6 NA 0.0000 9999 5540 0 0 0
2017/06/28 19:29:00 BASE 10.05 238 11.78 235 -4.8 73 -9.0 0 0 957.7 NA 0.0000 9999 5450 0 0 0
2017/06/28 19:30:00 BASE 9.69 237 11.78 235 -4.8 73 -8.9 0 0 957.7 NA 0.0000 9999 5450 0 0 0
2017/06/28 19:31:00 BASE 9.51 231 11.78 235 -4.8 73 -8.9 0 0 957.8 NA 0.0000 9999 3020 5280 0 0
2017/06/28 19:32:00 BASE 8.85 229 11.78 235 -4.8 74 -8.8 0 0 957.8 NA 0.0000 9999 3020 5180 0 0
2017/06/28 19:33:00 BASE 8.51 231 11.78 235 -4.8 74 -8.7 0 0 957.8 NA 0.0000 9999 5380 0 0 0
2017/06/28 19:34:00 BASE 8.43 229 11.78 235 -4.8 75 -8.6 0 0 957.8 NA 0.0000 9999 3020 5480 0 0
2017/06/28 19:35:00 BASE 8.74 225 11.78 235 -4.8 74 -8.7 0 0 957.8 NA 0.0000 9999 3080 5840 0 0
2017/06/28 19:36:00 BASE 9.01 224 11.78 235 -4.8 74 -8.7 0 0 957.8 NA 0.0000 9999 2950 3540 0 0
2017/06/28 19:37:00 BASE 8.98 229 11.37 235 -4.8 74 -8.7 0 0 957.8 NA 0.0000 9999 3450 5580 0 0
2017/06/28 19:38:00 BASE 8.43 235 10.65 233 -4.8 74 -8.7 0 0 957.8 NA 0.0000 9999 3250 5380 0 0
2017/06/28 19:39:00 BASE 8.73 238 11.27 234 -4.8 74 -8.7 0 0 957.8 NA 0.0000 9999 3080 0 0 0
2017/06/28 19:40:00 BASE 8.89 242 11.27 234 -4.7 74 -8.6 0 0 957.9 NA 0.0000 9999 3020 0 0 0
2017/06/28 19:41:00 BASE 8.28 253 11.27 234 -4.8 75 -8.5 0 0 957.8 NA 0.0000 9999 1250 2920 0 0
2017/06/28 19:42:00 BASE 8.95 266 11.27 234 -4.9 77 -8.2 0 0 957.8 NA 0.0000 9999 1210 0 0 0
2017/06/28 19:43:00 BASE 10.30 275 12.50 276 -5.0 80 -8.0 0 0 957.7 NA 0.0000 6000 1870 0 0 0
2017/06/28 19:44:00 BASE 10.89 279 12.50 276 -5.2 83 -7.6 0 0 957.7 NA 0.0000 -SN 4000 1800 0 0 0
2017/06/28 19:45:00 BASE 10.80 281 12.50 276 -5.4 87 -7.2 0 0 957.7 NA 0.0000 -SN BR 2400 330 1770 0 0
2017/06/28 19:46:00 BASE 10.78 282 12.50 276 -5.6 90 -6.9 0 0 957.7 NA 0.0000 -SN BR 1200 0 0 0 2260
2017/06/28 19:47:00 BASE 10.73 284 12.50 276 -5.6 92 -6.7 0 0 957.8 NA 0.0000 -SN BR 0900 0 0 0 2400
2017/06/28 19:48:00 BASE 10.69 289 12.50 276 -5.7 94 -6.5 0 0 957.7 NA 0.0000 -SN BR 1100 0 0 0 2100
2017/06/28 19:49:00 BASE 11.23 291 13.68 289 -5.7 94 -6.4 0 0 957.6 NA 0.0000 -SN BR 1900 0 0 0 1900
2017/06/28 19:50:00 BASE 12.01 289 13.68 289 -5.7 95 -6.4 0 0 957.6 NA 0.0000 -SN BR 3600 1180 2400 0 0
2017/06/28 19:51:00 BASE 10.23 282 13.68 289 -5.6 95 -6.3 0 0 957.9 NA 0.0000 -SN BR 3600 1410 0 0 0
2017/06/28 19:52:00 BASE 7.73 251 13.68 289 -5.6 95 -6.3 0 0 958.1 NA 0.0000 -SN BR 4400 1570 0 0 0
2017/06/28 19:53:00 BASE 8.06 228 13.68 289 -5.6 93 -6.5 0 0 958.0 NA 0.0000 -SN BR 9000 1280 2000 0 0
2017/06/28 19:54:00 BASE 9.10 225 13.68 289 -5.5 92 -6.6 0 0 958.0 NA 0.0000 -SN BR 9999 390 0 0 0
2017/06/28 19:55:00 BASE 9.05 223 13.68 289 -5.5 91 -6.7 0 0 958.0 NA 0.0000 -SN BR 9999 1870 0 0 0
2017/06/28 19:56:00 BASE 8.67 224 13.68 289 -5.4 90 -6.9 0 0 958.0 NA 0.0000 -SN BR 9999 0 0 0 5090
2017/06/28 19:57:00 BASE 8.35 220 13.68 289 -5.4 89 -6.9 0 0 958.0 NA 0.0000 -SN BR 9999 1440 0 0 0
2017/06/28 19:58:00 BASE 8.87 215 13.68 289 -5.4 90 -6.8 0 0 958.0 NA 0.0000 -SN BR 9999 1840 2890 0 0
2017/06/28 19:59:00 BASE 9.54 214 13.58 286 -5.3 90 -6.7 0 0 958.0 NA 0.0000 -SN BR 9999 2030 0 0 0
2017/06/28 20:00:00 BASE 10.00 213 11.47 285 -5.3 91 -6.6 0 0 958.0 NA 0.0000 -SN BR 9999 1510 0 0 0
2017/06/28 20:01:00 BASE 9.94 216 11.47 222 -5.3 92 -6.5 0 0 958.0 NA 0.0000 -SN BR 9999 1900 0 0 0
2017/06/28 20:02:00 BASE 9.53 219 11.78 213 -5.3 92 -6.4 0 0 958.0 NA 0.0000 -SN 9999 390 1840 0 0
2017/06/28 20:03:00 BASE 9.96 217 11.78 214 -5.4 92 -6.5 0 0 958.0 NA 0.0000 -SN 7000 0 0 0 2790
2017/06/28 20:04:00 BASE 9.93 216 11.78 214 -5.5 93 -6.5 0 0 958.1 NA 0.0000 -SN BR 4100 0 0 0 2360
2017/06/28 20:05:00 BASE 9.78 215 11.78 214 -5.6 94 -6.4 0 0 958.1 NA 0.0000 -SN BR 3900 0 0 0 2260
2017/06/28 20:06:00 BASE 9.66 215 11.78 214 -5.6 94 -6.4 0 0 958.2 NA 0.0000 -SN BR 4700 0 0 0 2030
2017/06/28 20:07:00 BASE 8.76 220 11.78 214 -5.6 94 -6.4 0 0 958.2 NA 0.0000 -SN BR 4300 260 0 0 0
2017/06/28 20:08:00 BASE 8.51 222 11.78 214 -5.6 95 -6.3 0 0 958.2 NA 0.0000 -SN BR 5000 920 1940 0 0
2017/06/28 20:09:00 BASE 7.90 223 11.78 214 -5.6 95 -6.2 0 0 958.3 NA 0.0000 -SN BR 8000 1050 1510 0 0
2017/06/28 20:10:00 BASE 7.69 228 11.78 214 -5.6 95 -6.2 0 0 958.3 NA 0.0000 -SN BR 8000 360 0 0 0
2017/06/28 20:11:00 BASE 10.00 232 14.04 235 -5.5 95 -6.2 0 0 958.2 NA 0.0000 -SN BR 9000 1250 1770 0 0
2017/06/28 20:12:00 BASE 11.96 234 14.04 235 -5.6 95 -6.2 0 0 958.1 NA 0.0000 -SN BR 9999 1150 2490 0 0
2017/06/28 20:13:00 BASE 12.37 236 14.04 235 -5.6 95 -6.2 0 0 958.2 NA 0.0000 -SN BR 9999 1210 2490 0 0
2017/06/28 20:14:00 BASE 12.33 237 14.04 235 -5.5 95 -6.2 0 0 958.2 NA 0.0000 -SN BR 9999 1020 0 0 0
2017/06/28 20:15:00 BASE 12.23 236 14.04 235 -5.5 95 -6.2 0 0 958.2 NA 0.0000 -SN BR 8000 330 2760 0 0
2017/06/28 20:16:00 BASE 12.49 235 14.10 237 -5.6 95 -6.3 0 0 958.2 NA 0.0000 -SN BR 6000 300 3150 0 0
2017/06/28 20:17:00 BASE 12.75 237 15.02 233 -5.6 95 -6.3 0 0 958.3 NA 0.0000 -SN BR 5000 0 0 0 1210
2017/06/28 20:18:00 BASE 12.93 232 15.12 234 -5.7 95 -6.3 0 0 958.3 NA 0.0000 -SN BR 4000 0 0 0 1050
2017/06/28 20:19:00 BASE 12.81 230 15.12 234 -5.9 95 -6.5 0 0 958.4 NA 0.0000 -SN BR 3400 0 0 0 1180
2017/06/28 20:20:00 BASE 13.02 230 15.33 229 -6.0 95 -6.6 0 0 958.3 NA 0.0000 -SN BR 3900 0 0 0 1250
2017/06/28 20:21:00 BASE 12.94 229 15.33 229 -6.1 96 -6.7 0 0 958.3 NA 0.0000 -SN BR 3000 0 0 0 980
2017/06/28 20:22:00 BASE 12.82 230 15.33 229 -6.2 96 -6.7 0 0 958.4 NA 0.0000 -SN BR 2500 0 0 0 1120
2017/06/28 20:23:00 BASE 13.42 230 15.33 229 -6.2 96 -6.8 0 0 958.3 NA 0.0000 -SN BR 2700 0 0 0 850
2017/06/28 20:24:00 BASE 13.55 231 15.33 229 -6.3 96 -6.8 0 0 958.4 NA 0.0000 -SN BR 2400 0 0 0 750
2017/06/28 20:25:00 BASE 13.01 234 15.33 229 -6.2 96 -6.8 0 0 958.5 NA 0.0000 -SN BR 2100 0 0 0 620
2017/06/28 20:26:00 BASE 11.85 236 15.33 229 -6.3 96 -6.8 0 0 958.6 NA 0.0000 -SN BR 2100 0 0 0 890
2017/06/28 20:27:00 BASE 10.84 234 15.33 229 -6.2 96 -6.7 0 0 958.6 NA 0.0000 -SN BR 3100 0 0 0 1280
2017/06/28 20:28:00 BASE 11.12 233 15.33 229 -6.1 96 -6.7 0 0 958.6 NA 0.0000 -SN BR 5000 0 0 0 1840
2017/06/28 20:29:00 BASE 11.71 236 15.33 229 -6.0 96 -6.6 0 0 958.6 NA 0.0000 -SN BR 9999 360 0 0 0
2017/06/28 20:30:00 BASE 12.65 234 15.28 229 -6.0 96 -6.5 0 0 958.6 NA 0.0000 -SN BR 9999 430 0 0 0
2017/06/28 20:31:00 BASE 13.46 231 15.28 229 -5.9 96 -6.5 0 0 958.6 NA 0.0000 -SN BR 9999 390 0 0 0
2017/06/28 20:32:00 BASE 12.86 232 15.28 229 -5.9 96 -6.5 0 0 958.6 NA 0.0000 -SN BR 9999 1150 2130 0 0
2017/06/28 20:33:00 BASE 12.50 232 15.28 229 -6.0 95 -6.6 0 0 958.6 NA 0.0000 -SN BR 9999 660 0 0 0
2017/06/28 20:34:00 BASE 12.30 230 14.76 227 -6.0 94 -6.8 0 0 958.7 NA 0.0000 -SN BR 9999 1540 2790 0 0
2017/06/28 20:35:00 BASE 11.49 229 14.76 227 -6.1 93 -7.0 0 0 958.8 NA 0.0000 -SN BR 9999 2430 4760 0 0
2017/06/28 20:36:00 BASE 10.89 232 14.76 227 -6.0 92 -7.1 0 0 958.8 NA 0.0000 -SN BR 9999 1870 3450 0 0
2017/06/28 20:37:00 BASE 11.55 237 14.76 227 -6.0 91 -7.2 0 0 958.7 NA 0.0000 -SN 9999 1970 4270 0 0
2017/06/28 20:38:00 BASE 11.66 235 14.76 227 -6.0 90 -7.3 0 0 958.8 NA 0.0000 -SN 9999 2000 3280 7710 0
2017/06/28 20:39:00 BASE 10.25 235 14.76 227 -5.9 90 -7.3 0 0 958.9 NA 0.0000 -SN 9999 1670 2330 7740 0
2017/06/28 20:40:00 BASE 10.34 238 14.25 233 -5.8 90 -7.2 0 0 958.8 NA 0.0000 9999 1480 2920 0 0
2017/06/28 20:41:00 BASE 11.06 235 13.58 228 -5.8 90 -7.2 0 0 958.9 NA 0.0000 9999 1640 0 0 0
2017/06/28 20:42:00 BASE 11.43 235 13.58 228 -5.7 89 -7.2 0 0 958.9 NA 0.0000 9999 1310 1970 0 0
2017/06/28 20:43:00 BASE 11.61 234 13.32 233 -5.7 89 -7.1 0 0 958.9 NA 0.0000 9999 1380 0 0 0
2017/06/28 20:44:00 BASE 11.67 233 13.32 233 -5.6 89 -7.1 0 0 958.9 NA 0.0000 9999 2850 3640 4270 0
2017/06/28 20:45:00 BASE 12.91 235 14.82 233 -5.7 89 -7.2 0 0 958.8 NA 0.0000 9999 4170 0 0 0
2017/06/28 20:46:00 BASE 12.97 238 14.82 233 -5.7 88 -7.4 0 0 958.9 NA 0.0000 9999 4430 0 0 0
2017/06/28 20:47:00 BASE 11.86 239 14.82 233 -5.8 88 -7.4 0 0 958.9 NA 0.0000 9999 4560 0 0 0
2017/06/28 20:48:00 BASE 10.60 238 14.82 233 -5.8 88 -7.5 0 0 959.0 NA 0.0000 9999 1480 4630 7150 0
2017/06/28 20:49:00 BASE 10.43 237 14.82 233 -5.8 88 -7.5 0 0 959.0 NA 0.0000 9999 7120 7870 0 0
2017/06/28 20:50:00 BASE 11.49 234 14.82 233 -5.7 88 -7.4 0 0 959.0 NA 0.0000 9999 1510 7050 0 0
2017/06/28 20:51:00 BASE 11.26 234 14.82 233 -5.7 88 -7.4 0 0 959.0 NA 0.0000 9999 1770 0 0 0
2017/06/28 20:52:00 BASE 10.28 235 14.82 233 -5.7 88 -7.3 0 0 959.0 NA 0.0000 9999 1900 0 0 0
2017/06/28 20:53:00 BASE 10.46 235 14.82 233 -5.6 88 -7.2 0 0 959.0 NA 0.0000 9999 1770 0 0 0
2017/06/28 20:54:00 BASE 10.94 237 14.82 233 -5.6 88 -7.3 0 0 959.0 NA 0.0000 9999 3220 0 0 0
2017/06/28 20:55:00 BASE 11.15 236 13.68 238 -5.6 88 -7.3 0 0 959.0 NA 0.0000 9999 0 0 0 3310
2017/06/28 20:56:00 BASE 11.55 231 14.25 235 -5.6 88 -7.3 0 0 958.9 NA 0.0000 -SN 9999 1800 2400 0 0
2017/06/28 20:57:00 BASE 11.10 225 14.25 235 -5.6 88 -7.3 0 0 959.0 NA 0.0000 -SN 9999 0 0 0 3280
2017/06/28 20:58:00 BASE 10.72 223 14.25 235 -5.6 87 -7.4 0 0 959.0 NA 0.0000 -SN 9999 2950 0 0 0
2017/06/28 20:59:00 BASE 11.41 220 14.25 235 -5.6 87 -7.4 0 0 959.1 NA 0.0000 -SN 9999 3050 0 0 0
2017/06/28 21:00:00 BASE 11.72 215 14.25 235 -5.6 86 -7.5 0 0 959.1 NA 0.0000 -SN 9999 4130 0 0 0
2017/06/28 21:01:00 BASE 11.95 218 14.25 235 -5.5 86 -7.5 0 0 959.1 NA 0.0000 -SN 9999 2990 4170 0 0
2017/06/28 21:02:00 BASE 11.95 222 14.25 235 -5.6 85 -7.7 0 0 959.1 NA 0.0000 -SN 9999 3080 0 0 0
2017/06/28 21:03:00 BASE 10.84 224 14.25 235 -5.6 84 -7.9 0 0 959.2 NA 0.0000 -SN 9999 2590 0 0 0
2017/06/28 21:04:00 BASE 10.74 226 14.25 235 -5.6 82 -8.2 0 0 959.2 NA 0.0000 -SN 9999 2990 0 0 0
2017/06/28 21:05:00 BASE 11.07 231 14.25 235 -5.5 81 -8.4 0 0 959.2 NA 0.0000 9999 2950 0 0 0
2017/06/28 21:06:00 BASE 11.73 234 13.84 213 -5.5 78 -8.7 0 0 959.1 NA 0.0000 9999 2200 4330 0 0
2017/06/28 21:07:00 BASE 12.45 233 14.51 238 -5.5 77 -9.0 0 0 959.2 NA 0.0000 9999 3080 0 0 0
2017/06/28 21:08:00 BASE 11.23 231 14.51 238 -5.5 76 -9.1 0 0 959.3 NA 0.0000 9999 3120 0 0 0
2017/06/28 21:09:00 BASE 10.91 231 14.51 238 -5.5 75 -9.3 0 0 959.2 NA 0.0000 9999 3120 0 0 0
2017/06/28 21:10:00 BASE 11.65 230 14.51 238 -5.5 74 -9.4 0 0 959.3 NA 0.0000 9999 3180 3810 0 0
2017/06/28 21:11:00 BASE 12.01 229 14.51 238 -5.4 74 -9.4 0 0 959.2 NA 0.0000 9999 4200 0 0 0
2017/06/28 21:12:00 BASE 12.57 232 14.51 238 -5.4 74 -9.4 0 0 959.2 NA 0.0000 9999 2790 0 0 0
2017/06/28 21:13:00 BASE 12.84 232 14.51 238 -5.4 74 -9.4 0 0 959.2 NA 0.0000 9999 3450 4130 0 0
2017/06/28 21:14:00 BASE 12.73 231 14.51 238 -5.5 74 -9.4 0 0 959.2 NA 0.0000 9999 3670 4360 0 0
2017/06/28 21:15:00 BASE 12.45 231 14.51 238 -5.5 74 -9.4 0 0 959.3 NA 0.0000 9999 4560 0 0 0
2017/06/28 21:16:00 BASE 12.23 230 14.51 238 -5.5 74 -9.3 0 0 959.2 NA 0.0000 9999 4590 0 0 0
2017/06/28 21:17:00 BASE 11.81 231 14.25 232 -5.5 74 -9.3 0 0 959.2 NA 0.0000 9999 4490 0 0 0
2017/06/28 21:18:00 BASE 12.31 232 14.25 232 -5.4 74 -9.3 0 0 959.2 NA 0.0000 9999 2690 4530 0 0
2017/06/28 21:19:00 BASE 12.88 233 14.25 237 -5.4 75 -9.2 0 0 959.2 NA 0.0000 9999 4590 5220 0 0
2017/06/28 21:20:00 BASE 12.91 233 14.87 235 -5.4 76 -9.1 0 0 959.2 NA 0.0000 9999 3310 4720 0 0
2017/06/28 21:21:00 BASE 12.56 233 14.87 235 -5.5 76 -9.0 0 0 959.3 NA 0.0000 9999 3640 4920 0 0
2017/06/28 21:22:00 BASE 12.67 235 15.18 227 -5.5 76 -9.0 0 0 959.2 NA 0.0000 9999 3710 0 0 0
2017/06/28 21:23:00 BASE 12.73 238 15.18 227 -5.5 77 -8.9 0 0 959.3 NA 0.0000 9999 4040 4400 4890 0
2017/06/28 21:24:00 BASE 11.94 237 15.18 227 -5.5 77 -8.8 0 0 959.3 NA 0.0000 9999 4820 0 0 0
2017/06/28 21:25:00 BASE 11.77 236 15.18 227 -5.4 77 -8.7 0 0 959.4 NA 0.0000 9999 2720 4990 0 0
2017/06/28 21:26:00 BASE 11.42 233 15.18 227 -5.4 78 -8.7 0 0 959.4 NA 0.0000 9999 2760 4890 0 0
2017/06/28 21:27:00 BASE 11.83 228 15.18 227 -5.4 78 -8.7 0 0 959.4 NA 0.0000 9999 2720 4990 0 0
2017/06/28 21:28:00 BASE 12.83 231 15.18 227 -5.4 77 -8.7 0 0 959.3 NA 0.0000 9999 3450 5050 0 0
2017/06/28 21:29:00 BASE 13.30 236 15.18 227 -5.4 76 -8.9 0 0 959.3 NA 0.0000 9999 3480 5180 0 0
2017/06/28 21:30:00 BASE 13.56 237 15.18 227 -5.5 75 -9.2 0 0 959.2 NA 0.0000 9999 5020 0 0 0
2017/06/28 21:31:00 BASE 13.02 235 15.18 227 -5.6 75 -9.4 0 0 959.4 NA 0.0000 9999 5020 0 0 0
2017/06/28 21:32:00 BASE 12.39 233 15.07 238 -5.5 75 -9.3 0 0 959.5 NA 0.0000 9999 5090 0 0 0
2017/06/28 21:33:00 BASE 12.90 236 15.07 238 -5.5 75 -9.3 0 0 959.4 NA 0.0000 9999 5050 0 0 0
2017/06/28 21:34:00 BASE 13.46 234 15.18 232 -5.5 75 -9.2 0 0 959.5 NA 0.0000 9999 4820 0 0 0
2017/06/28 21:35:00 BASE 13.46 231 15.64 230 -5.5 75 -9.2 0 0 959.5 NA 0.0000 9999 4950 0 0 0
2017/06/28 21:36:00 BASE 13.34 230 15.64 230 -5.5 75 -9.2 0 0 959.5 NA 0.0000 9999 4920 0 0 0
2017/06/28 21:37:00 BASE 13.03 232 15.64 230 -5.6 75 -9.4 0 0 959.5 NA 0.0000 9999 4490 0 0 0
2017/06/28 21:38:00 BASE 12.59 231 15.64 230 -5.6 74 -9.5 0 0 959.6 NA 0.0000 9999 4660 0 0 0
2017/06/28 21:39:00 BASE 12.41 232 15.64 230 -5.6 74 -9.6 0 0 959.6 NA 0.0000 9999 4590 0 0 0
2017/06/28 21:40:00 BASE 11.96 232 15.64 230 -5.6 74 -9.5 0 0 959.7 NA 0.0000 9999 4100 0 0 0
2017/06/28 21:41:00 BASE 11.87 227 15.64 230 -5.6 74 -9.5 0 0 959.7 NA 0.0000 9999 4230 0 0 0
2017/06/28 21:42:00 BASE 11.52 228 15.64 230 -5.6 74 -9.4 0 0 959.7 NA 0.0000 9999 4400 0 0 0
2017/06/28 21:43:00 BASE 11.52 233 15.64 230 -5.5 74 -9.4 0 0 959.7 NA 0.0000 9999 2560 4690 0 0
2017/06/28 21:44:00 BASE 12.15 234 15.64 230 -5.5 75 -9.3 0 0 959.7 NA 0.0000 9999 2660 4790 0 0
2017/06/28 21:45:00 BASE 12.60 233 14.71 234 -5.5 74 -9.3 0 0 959.8 NA 0.0000 9999 2990 4720 0 0
2017/06/28 21:46:00 BASE 12.97 230 14.56 230 -5.5 74 -9.4 0 0 959.8 NA 0.0000 9999 2820 4860 0 0
2017/06/28 21:47:00 BASE 12.99 232 14.61 245 -5.5 74 -9.5 0 0 959.8 NA 0.0000 9999 2890 0 0 0
2017/06/28 21:48:00 BASE 12.73 236 14.61 245 -5.6 74 -9.5 0 0 959.8 NA 0.0000 9999 3410 0 0 0
2017/06/28 21:49:00 BASE 12.15 238 14.61 245 -5.6 73 -9.6 0 0 959.9 NA 0.0000 9999 3740 0 0 0
2017/06/28 21:50:00 BASE 12.32 237 14.61 245 -5.6 73 -9.6 0 0 959.9 NA 0.0000 9999 3610 4200 0 0
2017/06/28 21:51:00 BASE 11.90 234 14.61 245 -5.5 73 -9.6 0 0 959.9 NA 0.0000 9999 3610 0 0 0
2017/06/28 21:52:00 BASE 11.62 231 14.61 245 -5.5 74 -9.5 0 0 960.0 NA 0.0000 9999 3220 3940 0 0
2017/06/28 21:53:00 BASE 11.77 231 14.61 245 -5.5 73 -9.5 0 0 960.0 NA 0.0000 9999 5090 0 0 0
2017/06/28 21:54:00 BASE 11.55 232 14.61 245 -5.6 73 -9.6 0 0 960.0 NA 0.0000 9999 4000 0 0 0
2017/06/28 21:55:00 BASE 11.39 230 14.61 245 -5.6 73 -9.7 0 0 960.0 NA 0.0000 9999 3120 4460 0 0
2017/06/28 21:56:00 BASE 11.28 227 14.61 245 -5.6 72 -9.8 0 0 960.0 NA 0.0000 9999 3120 4300 0 0
2017/06/28 21:57:00 BASE 10.83 228 14.15 240 -5.6 72 -9.9 0 0 960.1 NA 0.0000 9999 4330 0 0 0
2017/06/28 21:58:00 BASE 11.66 231 14.20 234 -5.6 71 -10.0 0 0 960.0 NA 0.0000 9999 2890 4590 0 0
2017/06/28 21:59:00 BASE 13.17 234 14.20 231 -5.6 72 -9.9 0 0 960.0 NA 0.0000 9999 4430 0 0 0
2017/06/28 22:00:00 BASE 12.54 231 14.20 231 -5.6 73 -9.7 0 0 960.1 NA 0.0000 9999 4530 0 0 0
2017/06/28 22:01:00 BASE 11.73 228 14.20 231 -5.5 74 -9.4 0 0 960.1 NA 0.0000 9999 4660 0 0 0
2017/06/28 22:02:00 BASE 11.34 229 14.20 231 -5.5 75 -9.3 0 0 960.2 NA 0.0000 9999 4490 0 0 0
2017/06/28 22:03:00 BASE 10.79 230 14.20 231 -5.5 75 -9.2 0 0 960.3 NA 0.0000 9999 4200 4760 0 0
2017/06/28 22:04:00 BASE 10.79 232 14.20 231 -5.5 76 -9.1 0 0 960.2 NA 0.0000 9999 2760 4200 0 0
2017/06/28 22:05:00 BASE 11.00 230 14.20 231 -5.6 76 -9.2 0 0 960.2 NA 0.0000 9999 4630 5320 0 0
2017/06/28 22:06:00 BASE 11.30 233 14.20 231 -5.6 75 -9.4 0 0 960.3 NA 0.0000 9999 4820 0 0 0
2017/06/28 22:07:00 BASE 11.61 237 14.20 231 -5.6 73 -9.7 0 0 960.2 NA 0.0000 9999 3350 5450 0 0
2017/06/28 22:08:00 BASE 12.12 240 14.97 240 -5.7 73 -9.7 0 0 960.3 NA 0.0000 9999 5380 0 0 0
2017/06/28 22:09:00 BASE 12.79 242 15.74 237 -5.7 74 -9.6 0 0 960.2 NA 0.0000 9999 1380 3540 5840 0
2017/06/28 22:10:00 BASE 13.14 245 16.15 251 -5.8 76 -9.4 0 0 960.2 NA 0.0000 7000 5220 0 0 0
2017/06/28 22:11:01 BASE 13.04 252 16.15 251 -5.9 80 -8.9 0 0 960.3 NA 0.0000 7000 2920 4270 0 0
2017/06/28 22:12:01 BASE 12.99 255 16.15 251 -6.0 84 -8.3 0 0 960.2 NA 0.0000 7000 4330 0 0 0
2017/06/28 22:13:01 BASE 13.15 253 16.15 251 -6.1 88 -7.8 0 0 960.3 NA 0.0000 BR 6000 1350 5090 0 0
2017/06/28 22:14:01 BASE 13.08 254 16.15 251 -6.1 90 -7.6 0 0 960.3 NA 0.0000 BR 6000 2950 5020 0 0
2017/06/28 22:15:01 BASE 12.89 253 16.15 251 -6.1 91 -7.4 0 0 960.3 NA 0.0000 BR 7000 3280 3970 0 0
2017/06/28 22:16:01 BASE 12.88 247 16.15 251 -6.1 91 -7.3 0 0 960.3 NA 0.0000 BR 6000 1840 3540 0 0
2017/06/28 22:17:01 BASE 12.14 248 16.15 251 -6.1 92 -7.3 0 0 960.4 NA 0.0000 BR 4600 1250 2200 0 0
2017/06/28 22:18:01 BASE 11.71 249 16.15 251 -6.2 92 -7.2 0 0 960.4 NA 0.0000 -SN BR 7000 1080 0 0 0
2017/06/28 22:19:01 BASE 13.13 241 16.15 251 -6.2 92 -7.3 0 0 960.4 NA 0.0000 -SN BR 7000 1840 0 0 0
2017/06/28 22:20:01 BASE 14.70 235 16.20 233 -6.2 92 -7.3 0 0 960.5 NA 0.0000 -SN BR 5000 330 0 0 0
2017/06/28 22:21:01 BASE 14.68 232 16.20 233 -6.3 92 -7.4 0 0 960.6 NA 0.0000 -SN BR 3800 0 0 0 2760
2017/06/28 22:22:01 BASE 13.64 231 16.20 233 -6.4 93 -7.4 0 0 960.6 NA 0.0000 -SN BR 2900 0 0 0 2990
2017/06/28 22:23:01 BASE 13.56 230 16.20 233 -6.5 93 -7.5 0 0 960.7 NA 0.0000 -SN BR 2300 0 0 0 2850
2017/06/28 22:24:01 BASE 13.59 228 16.20 233 -6.6 94 -7.5 0 0 960.8 NA 0.0000 -SN BR 2600 0 0 0 2400
2017/06/28 22:25:01 BASE 13.24 226 16.20 233 -6.7 94 -7.5 0 0 960.7 NA 0.0000 -SN BR 3000 0 0 0 1510
2017/06/28 22:26:01 BASE 12.88 223 16.20 233 -6.8 95 -7.5 0 0 960.8 NA 0.0000 -SN BR 3900 300 1210 0 0
2017/06/28 22:27:01 BASE 12.39 221 16.20 233 -6.9 95 -7.6 0 0 960.8 NA 0.0000 -SN BR 9000 2130 3150 0 0
2017/06/28 22:28:01 BASE 11.46 220 16.20 233 -6.9 95 -7.7 0 0 960.8 NA 0.0000 -SN BR 9999 3410 4690 0 0
2017/06/28 22:29:01 BASE 10.77 218 16.20 233 -6.9 94 -7.7 0 0 960.9 NA 0.0000 -SN BR 9999 5050 7480 0 0
2017/06/28 22:30:01 BASE 10.48 218 16.10 240 -6.9 94 -7.7 0 0 960.9 NA 0.0000 -SN BR 9999 2400 7420 0 0
2017/06/28 22:31:01 BASE 10.52 219 16.10 240 -6.8 94 -7.7 0 0 960.9 NA 0.0000 -SN BR 9999 2030 3350 0 0
2017/06/28 22:32:01 BASE 9.81 221 15.38 233 -6.7 94 -7.6 0 0 960.9 NA 0.0000 -SN BR 9999 3120 3640 0 0
2017/06/28 22:33:01 BASE 10.49 226 15.07 225 -6.7 93 -7.6 0 0 960.8 NA 0.0000 -SN BR 9999 2920 0 0 0
2017/06/28 22:34:01 BASE 12.14 228 15.07 225 -6.6 92 -7.6 0 0 960.8 NA 0.0000 -SN BR 9999 2660 0 0 0
2017/06/28 22:35:01 BASE 11.59 224 13.68 232 -6.6 91 -7.8 0 0 960.8 NA 0.0000 -SN 9999 2990 0 0 0
2017/06/28 22:36:01 BASE 12.21 218 15.07 216 -6.5 89 -8.0 0 0 960.9 NA 0.0000 -SN 9999 2820 0 0 0
2017/06/28 22:37:01 BASE 13.81 218 17.34 219 -6.4 87 -8.3 0 0 960.9 NA 0.0000 -SN 9999 3020 3740 0 0
2017/06/28 22:38:01 BASE 14.10 218 17.34 219 -6.4 85 -8.5 0 0 961.0 NA 0.0000 -SN 9999 4170 7380 0 0
2017/06/28 22:39:01 BASE 13.16 219 17.34 219 -6.3 83 -8.8 0 0 960.9 NA 0.0000 -SN 9999 5180 7250 0 0
2017/06/28 22:40:01 BASE 13.21 217 17.34 219 -6.3 81 -9.0 0 0 960.9 NA 0.0000 -SN 9999 5180 7420 0 0
2017/06/28 22:41:01 BASE 13.75 215 17.34 219 -6.2 80 -9.2 0 0 961.0 NA 0.0000 -SN 9999 2690 3380 0 0
2017/06/28 22:42:01 BASE 13.03 221 17.34 219 -6.2 79 -9.2 0 0 961.0 NA 0.0000 -SN 9999 3840 4720 0 0
2017/06/28 22:43:01 BASE 12.87 222 17.34 219 -6.1 79 -9.2 0 0 961.0 NA 0.0000 -SN 9999 4040 0 0 0
2017/06/28 22:44:01 BASE 13.19 218 17.34 219 -6.1 78 -9.3 0 0 961.0 NA 0.0000 -SN 9999 3050 0 0 0
2017/06/28 22:45:01 BASE 12.83 218 17.34 219 -6.1 78 -9.3 0 0 961.1 NA 0.0000 -SN 9999 2660 0 0 0
2017/06/28 22:46:01 BASE 12.51 220 17.34 219 -6.1 78 -9.3 0 0 961.1 NA 0.0000 -SN 9999 2590 0 0 0
2017/06/28 22:47:01 BASE 13.21 224 16.36 214 -6.1 77 -9.4 0 0 961.1 NA 0.0000 -SN 9999 2850 3510 0 0
2017/06/28 22:48:01 BASE 13.95 234 16.36 214 -6.1 77 -9.5 0 0 961.0 NA 0.0000 -SN 9999 2990 0 0 0
2017/06/28 22:49:01 BASE 13.45 236 16.36 214 -6.2 77 -9.5 0 0 961.1 NA 0.0000 -SN 9999 2820 0 0 0
2017/06/28 22:50:01 BASE 12.76 232 16.36 214 -6.2 77 -9.5 0 0 961.2 NA 0.0000 -SN 9999 2920 0 0 0
2017/06/28 22:51:01 BASE 13.19 232 16.00 243 -6.2 77 -9.6 0 0 961.2 NA 0.0000 -SN 9999 2850 0 0 0
2017/06/28 22:52:01 BASE 12.81 234 16.00 243 -6.3 77 -9.7 0 0 961.3 NA 0.0000 -SN 9999 2790 0 0 0
2017/06/28 22:53:01 BASE 12.21 236 16.00 243 -6.2 76 -9.7 0 0 961.2 NA 0.0000 -SN 9999 2790 3740 0 0
2017/06/28 22:54:01 BASE 13.39 238 16.10 240 -6.2 76 -9.8 0 0 961.2 NA 0.0000 -SN 9999 2820 3350 0 0
2017/06/28 22:55:01 BASE 13.96 235 16.10 240 -6.3 75 -9.9 0 0 961.3 NA 0.0000 -SN 9999 3670 0 0 0
2017/06/28 22:56:01 BASE 12.66 230 16.10 240 -6.3 75 -10.0 0 0 961.4 NA 0.0000 -SN 9999 2920 0 0 0
2017/06/28 22:57:01 BASE 12.39 230 16.10 240 -6.3 74 -10.1 0 0 961.4 NA 0.0000 -SN 9999 2790 3450 0 0
2017/06/28 22:58:01 BASE 11.91 229 16.10 240 -6.3 74 -10.2 0 0 961.5 NA 0.0000 -SN 9999 2850 0 0 0
2017/06/28 22:59:01 BASE 11.52 230 16.10 240 -6.3 74 -10.2 0 0 961.4 NA 0.0000 -SN 9999 2720 0 0 0
2017/06/28 23:00:01 BASE 12.73 230 16.10 240 -6.3 74 -10.3 0 0 961.4 NA 0.0000 -SN 9999 2950 3870 0 0
2017/06/28 23:01:01 BASE 12.62 227 16.10 240 -6.3 74 -10.3 0 0 961.5 NA 0.0000 -SN 9999 2850 0 0 0
2017/06/28 23:02:01 BASE 12.59 225 16.10 240 -6.3 74 -10.2 0 0 961.5 NA 0.0000 -SN 9999 2920 3580 0 0
2017/06/28 23:03:01 BASE 13.11 226 16.10 240 -6.4 74 -10.3 0 0 961.5 NA 0.0000 -SN 9999 2920 3810 0 0
2017/06/28 23:04:01 BASE 13.32 227 15.90 227 -6.4 74 -10.3 0 0 961.5 NA 0.0000 -SN 9999 3250 0 0 0
2017/06/28 23:05:01 BASE 13.52 227 15.90 227 -6.4 74 -10.2 0 0 961.5 NA 0.0000 -SN 9999 2950 3450 0 0
2017/06/28 23:06:01 BASE 13.47 225 15.90 227 -6.4 75 -10.1 0 0 961.6 NA 0.0000 -SN 9999 3640 0 0 0
2017/06/28 23:07:01 BASE 13.38 222 15.90 227 -6.5 75 -10.1 0 0 961.7 NA 0.0000 -SN 9999 3670 0 0 0
2017/06/28 23:08:01 BASE 13.19 223 15.90 225 -6.5 76 -10.0 0 0 961.7 NA 0.0000 -SN 9999 3280 0 0 0
2017/06/28 23:09:01 BASE 13.57 223 15.90 225 -6.5 76 -10.0 0 0 961.7 NA 0.0000 -SN 9999 3410 0 0 0
2017/06/28 23:10:01 BASE 13.15 222 15.90 225 -6.5 76 -10.1 0 0 961.8 NA 0.0000 -SN 9999 3120 3770 0 0
2017/06/28 23:11:01 BASE 12.09 224 15.90 225 -6.5 75 -10.2 0 0 961.8 NA 0.0000 -SN 9999 3610 0 0 0
2017/06/28 23:12:01 BASE 12.78 224 15.90 225 -6.5 75 -10.3 0 0 961.8 NA 0.0000 -SN 9999 3840 0 0 0
2017/06/28 23:13:01 BASE 12.79 219 15.90 225 -6.5 74 -10.4 0 0 961.9 NA 0.0000 -SN 9999 3020 3870 0 0
2017/06/28 23:14:01 BASE 11.22 217 15.90 225 -6.5 74 -10.4 0 0 962.0 NA 0.0000 -SN 9999 3150 0 0 0
2017/06/28 23:15:01 BASE 11.32 223 15.90 225 -6.5 74 -10.4 0 0 961.9 NA 0.0000 -SN 9999 3310 0 0 0
2017/06/28 23:16:01 BASE 12.75 224 15.90 225 -6.4 74 -10.4 0 0 961.8 NA 0.0000 -SN 9999 2790 3450 0 0
2017/06/28 23:17:01 BASE 13.38 223 15.90 225 -6.5 74 -10.4 0 0 961.9 NA 0.0000 -SN 9999 2850 0 0 0
2017/06/28 23:18:01 BASE 12.95 222 15.54 221 -6.5 74 -10.4 0 0 962.0 NA 0.0000 9999 3080 0 0 0
2017/06/28 23:19:01 BASE 12.20 222 15.28 223 -6.6 73 -10.5 0 0 962.0 NA 0.0000 9999 3450 4100 0 0
2017/06/28 23:20:01 BASE 12.37 218 15.28 223 -6.6 73 -10.6 0 0 962.0 NA 0.0000 9999 3310 4270 0 0
2017/06/28 23:21:01 BASE 12.13 216 15.28 223 -6.6 73 -10.5 0 0 962.1 NA 0.0000 9999 3020 0 0 0
2017/06/28 23:22:01 BASE 11.32 219 15.28 223 -6.5 74 -10.5 0 0 962.1 NA 0.0000 9999 2820 0 0 0
2017/06/28 23:23:01 BASE 12.10 221 15.28 223 -6.5 74 -10.5 0 0 962.0 NA 0.0000 9999 2890 0 0 0
2017/06/28 23:24:01 BASE 12.53 219 15.28 223 -6.5 74 -10.4 0 0 962.0 NA 0.0000 9999 3120 0 0 0
2017/06/28 23:25:01 BASE 12.43 216 15.28 223 -6.5 74 -10.4 0 0 962.1 NA 0.0000 9999 2920 3610 0 0
2017/06/28 23:26:01 BASE 12.69 217 14.97 225 -6.5 73 -10.4 0 0 962.1 NA 0.0000 9999 3220 0 0 0
2017/06/28 23:27:01 BASE 11.84 222 14.46 221 -6.5 73 -10.6 0 0 962.2 NA 0.0000 9999 3350 0 0 0
2017/06/28 23:28:01 BASE 10.93 222 14.46 221 -6.5 72 -10.7 0 0 962.2 NA 0.0000 9999 2820 3380 0 0
2017/06/28 23:29:01 BASE 10.43 219 14.46 221 -6.6 71 -10.9 0 0 962.2 NA 0.0000 9999 2790 0 0 0
2017/06/28 23:30:01 BASE 10.31 223 14.35 212 -6.6 71 -10.9 0 0 962.2 NA 0.0000 9999 2990 0 0 0
2017/06/28 23:31:01 BASE 11.02 227 14.35 212 -6.6 71 -11.0 0 0 962.1 NA 0.0000 9999 2820 3380 0 0
2017/06/28 23:32:01 BASE 11.15 224 14.35 212 -6.6 71 -10.9 0 0 962.2 NA 0.0000 9999 3120 0 0 0
2017/06/28 23:33:01 BASE 10.84 225 13.84 216 -6.6 72 -10.8 0 0 962.2 NA 0.0000 9999 3710 4460 0 0
2017/06/28 23:34:01 BASE 11.50 228 13.74 215 -6.6 72 -10.8 0 0 962.2 NA 0.0000 9999 2990 4000 0 0
2017/06/28 23:35:00 BASE 11.80 228 13.74 215 -6.6 72 -10.9 0 0 962.3 NA 0.0000 9999 3020 3940 0 0
2017/06/28 23:36:01 BASE 11.34 226 13.48 231 -6.6 72 -10.8 0 0 962.3 NA 0.0000 9999 3120 0 0 0
2017/06/28 23:37:00 BASE 10.91 219 13.48 231 -6.6 72 -10.8 0 0 962.3 NA 0.0000 9999 2820 0 0 0
2017/06/28 23:38:00 BASE 11.59 216 14.40 210 -6.6 72 -10.8 0 0 962.4 NA 0.0000 9999 3220 0 0 0
2017/06/28 23:39:01 BASE 12.24 216 15.38 215 -6.6 72 -10.8 0 0 962.4 NA 0.0000 9999 3020 0 0 0
2017/06/28 23:40:00 BASE 11.64 219 15.38 215 -6.5 73 -10.7 0 0 962.4 NA 0.0000 9999 3050 0 0 0
2017/06/28 23:41:00 BASE 10.63 220 15.38 215 -6.5 73 -10.6 0 0 962.5 NA 0.0000 9999 2820 3350 0 0
2017/06/28 23:42:00 BASE 10.48 215 15.38 215 -6.5 73 -10.5 0 0 962.4 NA 0.0000 9999 2720 0 0 0
2017/06/28 23:43:00 BASE 12.53 212 15.54 208 -6.5 73 -10.5 0 0 962.4 NA 0.0000 9999 2660 0 0 0
2017/06/28 23:44:00 BASE 13.62 211 16.05 214 -6.5 74 -10.4 0 0 962.4 NA 0.0000 9999 2790 0 0 0
2017/06/28 23:45:00 BASE 13.82 213 16.05 214 -6.6 74 -10.4 0 0 962.5 NA 0.0000 9999 2620 0 0 0
2017/06/28 23:46:00 BASE 13.59 219 16.05 214 -6.6 74 -10.5 0 0 962.5 NA 0.0000 9999 2790 0 0 0
2017/06/28 23:47:00 BASE 11.95 218 16.05 214 -6.7 73 -10.7 0 0 962.6 NA 0.0000 9999 2890 0 0 0
2017/06/28 23:48:00 BASE 11.86 214 16.05 214 -6.7 73 -10.8 0 0 962.6 NA 0.0000 9999 2690 0 0 0
2017/06/28 23:49:00 BASE 13.00 214 16.05 214 -6.7 73 -10.7 0 0 962.6 NA 0.0000 9999 2850 0 0 0
2017/06/28 23:50:00 BASE 13.13 219 16.05 214 -6.7 73 -10.8 0 0 962.6 NA 0.0000 9999 3080 0 0 0
2017/06/28 23:51:00 BASE 12.90 221 16.05 214 -6.6 72 -10.8 0 0 962.6 NA 0.0000 9999 3380 0 0 0
2017/06/28 23:52:01 BASE 13.31 221 16.05 214 -6.6 72 -10.8 0 0 962.6 NA 0.0000 9999 3380 0 0 0
2017/06/28 23:53:00 BASE 13.40 222 16.05 214 -6.7 71 -11.0 0 0 962.6 NA 0.0000 9999 3020 0 0 0
2017/06/28 23:54:00 BASE 12.76 221 15.90 213 -6.7 71 -11.1 0 0 962.6 NA 0.0000 9999 3450 0 0 0
2017/06/28 23:55:00 BASE 11.59 221 15.90 213 -6.7 71 -11.1 0 0 962.7 NA 0.0000 9999 3510 0 0 0
2017/06/28 23:56:00 BASE 11.16 223 15.90 213 -6.7 70 -11.3 0 0 962.7 NA 0.0000 9999 3710 0 0 0
2017/06/28 23:57:00 BASE 11.54 220 15.90 213 -6.7 70 -11.2 0 0 962.8 NA 0.0000 9999 4040 4560 0 0
2017/06/28 23:58:00 BASE 10.89 214 15.90 213 -6.6 71 -11.0 0 0 962.9 NA 0.0000 9999 4130 0 0 0
2017/06/28 23:59:01 BASE 11.46 213 15.84 210 -6.6 71 -11.0 0 0 962.8 NA 0.0000 9999 3280 0 0 0